source: josm/trunk/test/data/regress/2147/WG20080203171807.log.gpx

Last change on this file was 10906, checked in by Don-vip, 5 years ago

add more non-regression NMEA unit tests

File size: 187.6 KB
Line 
1<?xml version="1.0" encoding="UTF-8"?>
2<gpx version="1.0" creator="GPSBabel - http://www.gpsbabel.org" xmlns="http://www.topografix.com/GPX/1/0">
3  <time>2016-08-27T14:56:19.676Z</time>
4  <bounds minlat="-6.760321667" minlon="-37.208255000" maxlat="-6.681998333" maxlon="-37.125885000"/>
5  <trk>
6    <trkseg>
7      <trkpt lat="-6.751121667" lon="-37.129723333">
8        <ele>241.000000</ele>
9        <time>2008-02-03T17:18:07Z</time>
10        <course>352.700012</course>
11        <speed>0.000000</speed>
12        <geoidheight>-11.9</geoidheight>
13        <fix>3d</fix>
14        <sat>6</sat>
15        <hdop>1.100000</hdop>
16        <vdop>1.800000</vdop>
17        <pdop>2.200000</pdop>
18      </trkpt>
19      <trkpt lat="-6.750545000" lon="-37.130013333">
20        <ele>226.900000</ele>
21        <time>2008-02-03T17:18:37Z</time>
22        <course>334.799988</course>
23        <speed>5.361111</speed>
24        <geoidheight>-11.9</geoidheight>
25        <fix>3d</fix>
26        <sat>5</sat>
27        <hdop>1.300000</hdop>
28        <vdop>1.900000</vdop>
29        <pdop>2.300000</pdop>
30      </trkpt>
31      <trkpt lat="-6.749801667" lon="-37.130250000">
32        <ele>231.200000</ele>
33        <time>2008-02-03T17:18:52Z</time>
34        <course>345.700012</course>
35        <speed>5.833333</speed>
36        <geoidheight>-11.9</geoidheight>
37        <fix>3d</fix>
38        <sat>5</sat>
39        <hdop>1.300000</hdop>
40        <vdop>2.000000</vdop>
41        <pdop>2.400000</pdop>
42      </trkpt>
43      <trkpt lat="-6.748878333" lon="-37.130548333">
44        <ele>233.300000</ele>
45        <time>2008-02-03T17:19:07Z</time>
46        <course>333.600006</course>
47        <speed>7.111111</speed>
48        <geoidheight>-11.9</geoidheight>
49        <fix>3d</fix>
50        <sat>5</sat>
51        <hdop>1.500000</hdop>
52        <vdop>2.000000</vdop>
53        <pdop>2.500000</pdop>
54      </trkpt>
55      <trkpt lat="-6.748238333" lon="-37.130931667">
56        <ele>230.100000</ele>
57        <time>2008-02-03T17:19:22Z</time>
58        <course>328.299988</course>
59        <speed>4.000000</speed>
60        <geoidheight>-11.9</geoidheight>
61        <fix>3d</fix>
62        <sat>5</sat>
63        <hdop>1.500000</hdop>
64        <vdop>2.000000</vdop>
65        <pdop>2.500000</pdop>
66      </trkpt>
67      <trkpt lat="-6.747301667" lon="-37.131495000">
68        <ele>231.700000</ele>
69        <time>2008-02-03T17:19:42Z</time>
70        <course>324.899994</course>
71        <speed>6.111111</speed>
72        <geoidheight>-11.9</geoidheight>
73        <fix>3d</fix>
74        <sat>5</sat>
75        <hdop>1.400000</hdop>
76        <vdop>1.900000</vdop>
77        <pdop>2.300000</pdop>
78      </trkpt>
79      <trkpt lat="-6.746895000" lon="-37.132223333">
80        <ele>228.100000</ele>
81        <time>2008-02-03T17:19:57Z</time>
82        <course>307.700012</course>
83        <speed>5.611111</speed>
84        <geoidheight>-11.9</geoidheight>
85        <fix>3d</fix>
86        <sat>5</sat>
87        <hdop>1.500000</hdop>
88        <vdop>2.000000</vdop>
89        <pdop>2.500000</pdop>
90      </trkpt>
91      <trkpt lat="-6.746240000" lon="-37.132748333">
92        <ele>231.600000</ele>
93        <time>2008-02-03T17:20:12Z</time>
94        <course>330.100006</course>
95        <speed>7.861111</speed>
96        <geoidheight>-11.9</geoidheight>
97        <fix>3d</fix>
98        <sat>6</sat>
99        <hdop>1.200000</hdop>
100        <vdop>1.900000</vdop>
101        <pdop>2.200000</pdop>
102      </trkpt>
103      <trkpt lat="-6.745473333" lon="-37.133180000">
104        <ele>232.000000</ele>
105        <time>2008-02-03T17:20:27Z</time>
106        <course>323.899994</course>
107        <speed>5.194445</speed>
108        <geoidheight>-11.9</geoidheight>
109        <fix>3d</fix>
110        <sat>6</sat>
111        <hdop>1.200000</hdop>
112        <vdop>1.900000</vdop>
113        <pdop>2.200000</pdop>
114      </trkpt>
115      <trkpt lat="-6.744886667" lon="-37.133653333">
116        <ele>236.900000</ele>
117        <time>2008-02-03T17:20:42Z</time>
118        <course>319.299988</course>
119        <speed>5.083333</speed>
120        <geoidheight>-11.9</geoidheight>
121        <fix>3d</fix>
122        <sat>6</sat>
123        <hdop>1.200000</hdop>
124        <vdop>1.900000</vdop>
125        <pdop>2.200000</pdop>
126      </trkpt>
127      <trkpt lat="-6.744418333" lon="-37.134146667">
128        <ele>237.200000</ele>
129        <time>2008-02-03T17:20:57Z</time>
130        <course>304.600006</course>
131        <speed>6.583333</speed>
132        <geoidheight>-11.9</geoidheight>
133        <fix>3d</fix>
134        <sat>6</sat>
135        <hdop>1.200000</hdop>
136        <vdop>1.900000</vdop>
137        <pdop>2.200000</pdop>
138      </trkpt>
139      <trkpt lat="-6.743891667" lon="-37.134691667">
140        <ele>236.700000</ele>
141        <time>2008-02-03T17:21:12Z</time>
142        <course>324.100006</course>
143        <speed>3.777778</speed>
144        <geoidheight>-11.9</geoidheight>
145        <fix>3d</fix>
146        <sat>6</sat>
147        <hdop>1.200000</hdop>
148        <vdop>1.900000</vdop>
149        <pdop>2.200000</pdop>
150      </trkpt>
151      <trkpt lat="-6.743278333" lon="-37.135150000">
152        <ele>237.100000</ele>
153        <time>2008-02-03T17:21:27Z</time>
154        <course>332.299988</course>
155        <speed>4.611111</speed>
156        <geoidheight>-11.9</geoidheight>
157        <fix>3d</fix>
158        <sat>6</sat>
159        <hdop>1.200000</hdop>
160        <vdop>1.900000</vdop>
161        <pdop>2.200000</pdop>
162      </trkpt>
163      <trkpt lat="-6.742931667" lon="-37.135075000">
164        <ele>236.000000</ele>
165        <time>2008-02-03T17:21:42Z</time>
166        <course>51.000000</course>
167        <speed>1.833333</speed>
168        <geoidheight>-11.9</geoidheight>
169        <fix>3d</fix>
170        <sat>5</sat>
171        <hdop>3.300000</hdop>
172        <vdop>3.300000</vdop>
173        <pdop>4.600000</pdop>
174      </trkpt>
175      <trkpt lat="-6.742823333" lon="-37.134643333">
176        <ele>235.800000</ele>
177        <time>2008-02-03T17:21:57Z</time>
178        <course>68.599998</course>
179        <speed>6.583333</speed>
180        <geoidheight>-11.9</geoidheight>
181        <fix>3d</fix>
182        <sat>5</sat>
183        <hdop>3.300000</hdop>
184        <vdop>3.300000</vdop>
185        <pdop>4.700000</pdop>
186      </trkpt>
187      <trkpt lat="-6.742530000" lon="-37.133885000">
188        <ele>235.200000</ele>
189        <time>2008-02-03T17:22:12Z</time>
190        <course>57.799999</course>
191        <speed>5.611111</speed>
192        <geoidheight>-11.9</geoidheight>
193        <fix>3d</fix>
194        <sat>4</sat>
195        <hdop>4.900000</hdop>
196        <vdop>4.800000</vdop>
197        <pdop>6.900000</pdop>
198      </trkpt>
199      <trkpt lat="-6.742273333" lon="-37.133373333">
200        <ele>235.300000</ele>
201        <time>2008-02-03T17:22:27Z</time>
202        <course>59.000000</course>
203        <speed>4.777778</speed>
204        <geoidheight>-11.9</geoidheight>
205        <fix>3d</fix>
206        <sat>6</sat>
207        <hdop>1.200000</hdop>
208        <vdop>1.900000</vdop>
209        <pdop>2.200000</pdop>
210      </trkpt>
211      <trkpt lat="-6.742195000" lon="-37.133260000">
212        <ele>237.900000</ele>
213        <time>2008-02-03T17:22:42Z</time>
214        <course>218.100006</course>
215        <speed>1.333333</speed>
216        <geoidheight>-11.9</geoidheight>
217        <fix>3d</fix>
218        <sat>4</sat>
219        <hdop>3.900000</hdop>
220        <vdop>3.800000</vdop>
221        <pdop>5.500000</pdop>
222      </trkpt>
223      <trkpt lat="-6.742153333" lon="-37.133240000">
224        <ele>238.600000</ele>
225        <time>2008-02-03T17:22:57Z</time>
226        <course>197.899994</course>
227        <speed>0.916667</speed>
228        <geoidheight>-11.9</geoidheight>
229        <fix>3d</fix>
230        <sat>6</sat>
231        <hdop>1.200000</hdop>
232        <vdop>1.900000</vdop>
233        <pdop>2.200000</pdop>
234      </trkpt>
235      <trkpt lat="-6.742096667" lon="-37.133150000">
236        <ele>239.800000</ele>
237        <time>2008-02-03T17:23:12Z</time>
238        <course>66.199997</course>
239        <speed>1.500000</speed>
240        <geoidheight>-11.9</geoidheight>
241        <fix>3d</fix>
242        <sat>4</sat>
243        <hdop>3.500000</hdop>
244        <vdop>3.500000</vdop>
245        <pdop>4.900000</pdop>
246      </trkpt>
247      <trkpt lat="-6.741955000" lon="-37.133051667">
248        <ele>239.200000</ele>
249        <time>2008-02-03T17:23:27Z</time>
250        <course>53.299999</course>
251        <speed>1.416667</speed>
252        <geoidheight>-11.9</geoidheight>
253        <fix>3d</fix>
254        <sat>6</sat>
255        <hdop>1.200000</hdop>
256        <vdop>1.900000</vdop>
257        <pdop>2.200000</pdop>
258      </trkpt>
259      <trkpt lat="-6.741805000" lon="-37.132883333">
260        <ele>240.900000</ele>
261        <time>2008-02-03T17:23:42Z</time>
262        <course>55.299999</course>
263        <speed>4.666667</speed>
264        <geoidheight>-11.9</geoidheight>
265        <fix>2d</fix>
266        <sat>3</sat>
267        <hdop>2.600000</hdop>
268        <vdop>0.900000</vdop>
269        <pdop>2.800000</pdop>
270      </trkpt>
271      <trkpt lat="-6.741518333" lon="-37.132430000">
272        <ele>243.100000</ele>
273        <time>2008-02-03T17:23:57Z</time>
274        <course>48.200001</course>
275        <speed>4.333333</speed>
276        <geoidheight>-11.9</geoidheight>
277        <fix>3d</fix>
278        <sat>5</sat>
279        <hdop>3.400000</hdop>
280        <vdop>3.500000</vdop>
281        <pdop>4.900000</pdop>
282      </trkpt>
283      <trkpt lat="-6.740936667" lon="-37.132295000">
284        <ele>244.500000</ele>
285        <time>2008-02-03T17:24:12Z</time>
286        <course>340.200012</course>
287        <speed>4.638889</speed>
288        <geoidheight>-11.9</geoidheight>
289        <fix>3d</fix>
290        <sat>5</sat>
291        <hdop>3.400000</hdop>
292        <vdop>3.600000</vdop>
293        <pdop>5.000000</pdop>
294      </trkpt>
295      <trkpt lat="-6.740181667" lon="-37.132615000">
296        <ele>244.200000</ele>
297        <time>2008-02-03T17:24:27Z</time>
298        <course>333.399994</course>
299        <speed>7.000000</speed>
300        <geoidheight>-11.9</geoidheight>
301        <fix>3d</fix>
302        <sat>6</sat>
303        <hdop>1.200000</hdop>
304        <vdop>1.900000</vdop>
305        <pdop>2.200000</pdop>
306      </trkpt>
307      <trkpt lat="-6.739598333" lon="-37.133273333">
308        <ele>241.000000</ele>
309        <time>2008-02-03T17:24:42Z</time>
310        <course>326.100006</course>
311        <speed>4.833333</speed>
312        <geoidheight>-11.9</geoidheight>
313        <fix>3d</fix>
314        <sat>6</sat>
315        <hdop>1.200000</hdop>
316        <vdop>1.900000</vdop>
317        <pdop>2.200000</pdop>
318      </trkpt>
319      <trkpt lat="-6.738975000" lon="-37.133605000">
320        <ele>242.700000</ele>
321        <time>2008-02-03T17:24:57Z</time>
322        <course>316.600006</course>
323        <speed>4.944445</speed>
324        <geoidheight>-11.9</geoidheight>
325        <fix>3d</fix>
326        <sat>5</sat>
327        <hdop>1.400000</hdop>
328        <vdop>1.900000</vdop>
329        <pdop>2.400000</pdop>
330      </trkpt>
331      <trkpt lat="-6.738508333" lon="-37.134091667">
332        <ele>245.500000</ele>
333        <time>2008-02-03T17:25:12Z</time>
334        <course>317.299988</course>
335        <speed>5.722222</speed>
336        <geoidheight>-11.9</geoidheight>
337        <fix>3d</fix>
338        <sat>5</sat>
339        <hdop>1.500000</hdop>
340        <vdop>1.900000</vdop>
341        <pdop>2.500000</pdop>
342      </trkpt>
343      <trkpt lat="-6.737908333" lon="-37.134881667">
344        <ele>248.500000</ele>
345        <time>2008-02-03T17:25:32Z</time>
346        <course>317.799988</course>
347        <speed>6.138889</speed>
348        <geoidheight>-11.9</geoidheight>
349        <fix>3d</fix>
350        <sat>6</sat>
351        <hdop>1.200000</hdop>
352        <vdop>1.900000</vdop>
353        <pdop>2.200000</pdop>
354      </trkpt>
355      <trkpt lat="-6.737390000" lon="-37.135381667">
356        <ele>250.900000</ele>
357        <time>2008-02-03T17:25:47Z</time>
358        <course>308.799988</course>
359        <speed>4.055555</speed>
360        <geoidheight>-11.9</geoidheight>
361        <fix>3d</fix>
362        <sat>6</sat>
363        <hdop>1.200000</hdop>
364        <vdop>1.900000</vdop>
365        <pdop>2.200000</pdop>
366      </trkpt>
367      <trkpt lat="-6.736743333" lon="-37.135995000">
368        <ele>252.700000</ele>
369        <time>2008-02-03T17:26:02Z</time>
370        <course>313.000000</course>
371        <speed>6.916667</speed>
372        <geoidheight>-11.9</geoidheight>
373        <fix>3d</fix>
374        <sat>5</sat>
375        <hdop>1.400000</hdop>
376        <vdop>1.900000</vdop>
377        <pdop>2.400000</pdop>
378      </trkpt>
379      <trkpt lat="-6.736181667" lon="-37.136715000">
380        <ele>255.400000</ele>
381        <time>2008-02-03T17:26:17Z</time>
382        <course>284.700012</course>
383        <speed>6.972222</speed>
384        <geoidheight>-11.9</geoidheight>
385        <fix>3d</fix>
386        <sat>6</sat>
387        <hdop>1.200000</hdop>
388        <vdop>1.900000</vdop>
389        <pdop>2.200000</pdop>
390      </trkpt>
391      <trkpt lat="-6.735970000" lon="-37.137393333">
392        <ele>256.200000</ele>
393        <time>2008-02-03T17:26:32Z</time>
394        <course>287.299988</course>
395        <speed>3.611111</speed>
396        <geoidheight>-11.9</geoidheight>
397        <fix>3d</fix>
398        <sat>6</sat>
399        <hdop>1.200000</hdop>
400        <vdop>1.900000</vdop>
401        <pdop>2.200000</pdop>
402      </trkpt>
403      <trkpt lat="-6.735638333" lon="-37.137993333">
404        <ele>257.100000</ele>
405        <time>2008-02-03T17:26:47Z</time>
406        <course>297.000000</course>
407        <speed>5.833333</speed>
408        <geoidheight>-11.9</geoidheight>
409        <fix>3d</fix>
410        <sat>5</sat>
411        <hdop>1.500000</hdop>
412        <vdop>1.900000</vdop>
413        <pdop>2.500000</pdop>
414      </trkpt>
415      <trkpt lat="-6.735275000" lon="-37.138450000">
416        <ele>256.900000</ele>
417        <time>2008-02-03T17:27:02Z</time>
418        <course>313.000000</course>
419        <speed>4.194445</speed>
420        <geoidheight>-11.9</geoidheight>
421        <fix>3d</fix>
422        <sat>6</sat>
423        <hdop>1.200000</hdop>
424        <vdop>1.900000</vdop>
425        <pdop>2.300000</pdop>
426      </trkpt>
427      <trkpt lat="-6.734743333" lon="-37.139006667">
428        <ele>255.400000</ele>
429        <time>2008-02-03T17:27:17Z</time>
430        <course>315.000000</course>
431        <speed>6.472222</speed>
432        <geoidheight>-11.9</geoidheight>
433        <fix>3d</fix>
434        <sat>6</sat>
435        <hdop>1.200000</hdop>
436        <vdop>1.900000</vdop>
437        <pdop>2.300000</pdop>
438      </trkpt>
439      <trkpt lat="-6.734205000" lon="-37.139526667">
440        <ele>254.500000</ele>
441        <time>2008-02-03T17:27:32Z</time>
442        <course>317.700012</course>
443        <speed>5.333333</speed>
444        <geoidheight>-11.9</geoidheight>
445        <fix>3d</fix>
446        <sat>6</sat>
447        <hdop>1.200000</hdop>
448        <vdop>1.900000</vdop>
449        <pdop>2.300000</pdop>
450      </trkpt>
451      <trkpt lat="-6.733723333" lon="-37.140341667">
452        <ele>253.400000</ele>
453        <time>2008-02-03T17:27:47Z</time>
454        <course>299.500000</course>
455        <speed>8.444445</speed>
456        <geoidheight>-11.9</geoidheight>
457        <fix>3d</fix>
458        <sat>6</sat>
459        <hdop>1.200000</hdop>
460        <vdop>1.900000</vdop>
461        <pdop>2.300000</pdop>
462      </trkpt>
463      <trkpt lat="-6.733583333" lon="-37.140651667">
464        <ele>253.200000</ele>
465        <time>2008-02-03T17:28:02Z</time>
466        <course>286.000000</course>
467        <speed>2.194444</speed>
468        <geoidheight>-11.9</geoidheight>
469        <fix>3d</fix>
470        <sat>6</sat>
471        <hdop>1.200000</hdop>
472        <vdop>1.900000</vdop>
473        <pdop>2.300000</pdop>
474      </trkpt>
475      <trkpt lat="-6.733191667" lon="-37.141301667">
476        <ele>253.900000</ele>
477        <time>2008-02-03T17:28:17Z</time>
478        <course>294.100006</course>
479        <speed>6.666667</speed>
480        <geoidheight>-11.9</geoidheight>
481        <fix>3d</fix>
482        <sat>6</sat>
483        <hdop>1.200000</hdop>
484        <vdop>1.900000</vdop>
485        <pdop>2.300000</pdop>
486      </trkpt>
487      <trkpt lat="-6.732920000" lon="-37.141980000">
488        <ele>252.600000</ele>
489        <time>2008-02-03T17:28:32Z</time>
490        <course>295.299988</course>
491        <speed>3.750000</speed>
492        <geoidheight>-11.9</geoidheight>
493        <fix>3d</fix>
494        <sat>6</sat>
495        <hdop>1.200000</hdop>
496        <vdop>1.900000</vdop>
497        <pdop>2.300000</pdop>
498      </trkpt>
499      <trkpt lat="-6.732618333" lon="-37.142720000">
500        <ele>251.500000</ele>
501        <time>2008-02-03T17:28:47Z</time>
502        <course>290.600006</course>
503        <speed>8.833333</speed>
504        <geoidheight>-11.9</geoidheight>
505        <fix>3d</fix>
506        <sat>6</sat>
507        <hdop>1.200000</hdop>
508        <vdop>1.900000</vdop>
509        <pdop>2.300000</pdop>
510      </trkpt>
511      <trkpt lat="-6.732201667" lon="-37.143748333">
512        <ele>250.700000</ele>
513        <time>2008-02-03T17:29:02Z</time>
514        <course>290.500000</course>
515        <speed>7.555555</speed>
516        <geoidheight>-11.9</geoidheight>
517        <fix>3d</fix>
518        <sat>5</sat>
519        <hdop>1.500000</hdop>
520        <vdop>1.900000</vdop>
521        <pdop>2.500000</pdop>
522      </trkpt>
523      <trkpt lat="-6.731610000" lon="-37.144736667">
524        <ele>250.300000</ele>
525        <time>2008-02-03T17:29:17Z</time>
526        <course>309.899994</course>
527        <speed>8.888889</speed>
528        <geoidheight>-11.9</geoidheight>
529        <fix>3d</fix>
530        <sat>6</sat>
531        <hdop>1.200000</hdop>
532        <vdop>1.900000</vdop>
533        <pdop>2.300000</pdop>
534      </trkpt>
535      <trkpt lat="-6.730986667" lon="-37.145683333">
536        <ele>250.600000</ele>
537        <time>2008-02-03T17:29:32Z</time>
538        <course>292.200012</course>
539        <speed>7.472222</speed>
540        <geoidheight>-11.9</geoidheight>
541        <fix>3d</fix>
542        <sat>6</sat>
543        <hdop>1.200000</hdop>
544        <vdop>1.900000</vdop>
545        <pdop>2.300000</pdop>
546      </trkpt>
547      <trkpt lat="-6.730796667" lon="-37.146758333">
548        <ele>251.300000</ele>
549        <time>2008-02-03T17:29:47Z</time>
550        <course>278.100006</course>
551        <speed>6.666667</speed>
552        <geoidheight>-11.9</geoidheight>
553        <fix>3d</fix>
554        <sat>6</sat>
555        <hdop>1.200000</hdop>
556        <vdop>1.900000</vdop>
557        <pdop>2.300000</pdop>
558      </trkpt>
559      <trkpt lat="-6.730715000" lon="-37.147581667">
560        <ele>249.700000</ele>
561        <time>2008-02-03T17:30:02Z</time>
562        <course>284.299988</course>
563        <speed>5.027778</speed>
564        <geoidheight>-11.9</geoidheight>
565        <fix>3d</fix>
566        <sat>6</sat>
567        <hdop>1.200000</hdop>
568        <vdop>1.900000</vdop>
569        <pdop>2.300000</pdop>
570      </trkpt>
571      <trkpt lat="-6.730660000" lon="-37.148106667">
572        <ele>247.500000</ele>
573        <time>2008-02-03T17:30:17Z</time>
574        <course>292.899994</course>
575        <speed>5.250000</speed>
576        <geoidheight>-11.9</geoidheight>
577        <fix>3d</fix>
578        <sat>6</sat>
579        <hdop>1.200000</hdop>
580        <vdop>1.900000</vdop>
581        <pdop>2.300000</pdop>
582      </trkpt>
583      <trkpt lat="-6.730496667" lon="-37.148778333">
584        <ele>246.300000</ele>
585        <time>2008-02-03T17:30:32Z</time>
586        <course>278.299988</course>
587        <speed>4.555555</speed>
588        <geoidheight>-11.9</geoidheight>
589        <fix>3d</fix>
590        <sat>6</sat>
591        <hdop>1.200000</hdop>
592        <vdop>1.900000</vdop>
593        <pdop>2.300000</pdop>
594      </trkpt>
595      <trkpt lat="-6.730131667" lon="-37.149568333">
596        <ele>245.200000</ele>
597        <time>2008-02-03T17:30:47Z</time>
598        <course>284.399994</course>
599        <speed>5.638889</speed>
600        <geoidheight>-11.9</geoidheight>
601        <fix>3d</fix>
602        <sat>6</sat>
603        <hdop>1.200000</hdop>
604        <vdop>1.900000</vdop>
605        <pdop>2.300000</pdop>
606      </trkpt>
607      <trkpt lat="-6.729766667" lon="-37.150231667">
608        <ele>244.300000</ele>
609        <time>2008-02-03T17:31:02Z</time>
610        <course>310.100006</course>
611        <speed>5.527778</speed>
612        <geoidheight>-12.0</geoidheight>
613        <fix>3d</fix>
614        <sat>5</sat>
615        <hdop>1.500000</hdop>
616        <vdop>1.900000</vdop>
617        <pdop>2.500000</pdop>
618      </trkpt>
619      <trkpt lat="-6.729161667" lon="-37.150390000">
620        <ele>243.900000</ele>
621        <time>2008-02-03T17:31:17Z</time>
622        <course>0.200000</course>
623        <speed>5.638889</speed>
624        <geoidheight>-12.0</geoidheight>
625        <fix>3d</fix>
626        <sat>6</sat>
627        <hdop>1.200000</hdop>
628        <vdop>1.900000</vdop>
629        <pdop>2.300000</pdop>
630      </trkpt>
631      <trkpt lat="-6.728458333" lon="-37.150971667">
632        <ele>244.200000</ele>
633        <time>2008-02-03T17:31:32Z</time>
634        <course>304.700012</course>
635        <speed>7.555555</speed>
636        <geoidheight>-12.0</geoidheight>
637        <fix>3d</fix>
638        <sat>6</sat>
639        <hdop>1.200000</hdop>
640        <vdop>1.900000</vdop>
641        <pdop>2.300000</pdop>
642      </trkpt>
643      <trkpt lat="-6.728460000" lon="-37.151708333">
644        <ele>243.800000</ele>
645        <time>2008-02-03T17:31:47Z</time>
646        <course>266.399994</course>
647        <speed>4.944445</speed>
648        <geoidheight>-12.0</geoidheight>
649        <fix>3d</fix>
650        <sat>6</sat>
651        <hdop>1.200000</hdop>
652        <vdop>1.900000</vdop>
653        <pdop>2.300000</pdop>
654      </trkpt>
655      <trkpt lat="-6.728581667" lon="-37.152353333">
656        <ele>242.600000</ele>
657        <time>2008-02-03T17:32:02Z</time>
658        <course>256.399994</course>
659        <speed>6.611111</speed>
660        <geoidheight>-12.0</geoidheight>
661        <fix>3d</fix>
662        <sat>6</sat>
663        <hdop>1.200000</hdop>
664        <vdop>1.900000</vdop>
665        <pdop>2.300000</pdop>
666      </trkpt>
667      <trkpt lat="-6.728740000" lon="-37.152921667">
668        <ele>240.700000</ele>
669        <time>2008-02-03T17:32:17Z</time>
670        <course>257.100006</course>
671        <speed>4.194445</speed>
672        <geoidheight>-12.0</geoidheight>
673        <fix>3d</fix>
674        <sat>6</sat>
675        <hdop>1.200000</hdop>
676        <vdop>1.900000</vdop>
677        <pdop>2.300000</pdop>
678      </trkpt>
679      <trkpt lat="-6.729016667" lon="-37.153685000">
680        <ele>238.000000</ele>
681        <time>2008-02-03T17:32:32Z</time>
682        <course>253.899994</course>
683        <speed>7.527778</speed>
684        <geoidheight>-12.0</geoidheight>
685        <fix>3d</fix>
686        <sat>6</sat>
687        <hdop>1.200000</hdop>
688        <vdop>1.900000</vdop>
689        <pdop>2.300000</pdop>
690      </trkpt>
691      <trkpt lat="-6.729271667" lon="-37.154651667">
692        <ele>236.300000</ele>
693        <time>2008-02-03T17:32:47Z</time>
694        <course>258.000000</course>
695        <speed>6.944445</speed>
696        <geoidheight>-12.0</geoidheight>
697        <fix>3d</fix>
698        <sat>6</sat>
699        <hdop>1.200000</hdop>
700        <vdop>1.900000</vdop>
701        <pdop>2.300000</pdop>
702      </trkpt>
703      <trkpt lat="-6.729466667" lon="-37.155521667">
704        <ele>235.700000</ele>
705        <time>2008-02-03T17:33:02Z</time>
706        <course>252.199997</course>
707        <speed>6.861111</speed>
708        <geoidheight>-12.0</geoidheight>
709        <fix>3d</fix>
710        <sat>6</sat>
711        <hdop>1.200000</hdop>
712        <vdop>1.900000</vdop>
713        <pdop>2.300000</pdop>
714      </trkpt>
715      <trkpt lat="-6.729665000" lon="-37.156456667">
716        <ele>234.400000</ele>
717        <time>2008-02-03T17:33:17Z</time>
718        <course>263.200012</course>
719        <speed>7.388889</speed>
720        <geoidheight>-12.0</geoidheight>
721        <fix>3d</fix>
722        <sat>6</sat>
723        <hdop>1.300000</hdop>
724        <vdop>1.900000</vdop>
725        <pdop>2.300000</pdop>
726      </trkpt>
727      <trkpt lat="-6.729701667" lon="-37.157528333">
728        <ele>232.000000</ele>
729        <time>2008-02-03T17:33:32Z</time>
730        <course>274.200012</course>
731        <speed>7.611111</speed>
732        <geoidheight>-12.0</geoidheight>
733        <fix>3d</fix>
734        <sat>6</sat>
735        <hdop>1.300000</hdop>
736        <vdop>1.900000</vdop>
737        <pdop>2.300000</pdop>
738      </trkpt>
739      <trkpt lat="-6.729575000" lon="-37.158493333">
740        <ele>231.200000</ele>
741        <time>2008-02-03T17:33:47Z</time>
742        <course>279.000000</course>
743        <speed>6.972222</speed>
744        <geoidheight>-12.0</geoidheight>
745        <fix>3d</fix>
746        <sat>6</sat>
747        <hdop>1.300000</hdop>
748        <vdop>1.900000</vdop>
749        <pdop>2.300000</pdop>
750      </trkpt>
751      <trkpt lat="-6.729525000" lon="-37.159260000">
752        <ele>227.300000</ele>
753        <time>2008-02-03T17:34:02Z</time>
754        <course>274.899994</course>
755        <speed>5.194445</speed>
756        <geoidheight>-12.0</geoidheight>
757        <fix>3d</fix>
758        <sat>6</sat>
759        <hdop>1.300000</hdop>
760        <vdop>1.900000</vdop>
761        <pdop>2.300000</pdop>
762      </trkpt>
763      <trkpt lat="-6.729538333" lon="-37.160101667">
764        <ele>226.600000</ele>
765        <time>2008-02-03T17:34:17Z</time>
766        <course>297.600006</course>
767        <speed>8.750000</speed>
768        <geoidheight>-12.0</geoidheight>
769        <fix>3d</fix>
770        <sat>6</sat>
771        <hdop>1.300000</hdop>
772        <vdop>1.900000</vdop>
773        <pdop>2.300000</pdop>
774      </trkpt>
775      <trkpt lat="-6.728960000" lon="-37.160953333">
776        <ele>225.700000</ele>
777        <time>2008-02-03T17:34:32Z</time>
778        <course>301.899994</course>
779        <speed>7.333333</speed>
780        <geoidheight>-12.0</geoidheight>
781        <fix>3d</fix>
782        <sat>6</sat>
783        <hdop>1.300000</hdop>
784        <vdop>1.900000</vdop>
785        <pdop>2.300000</pdop>
786      </trkpt>
787      <trkpt lat="-6.728268333" lon="-37.161673333">
788        <ele>227.100000</ele>
789        <time>2008-02-03T17:34:47Z</time>
790        <course>316.299988</course>
791        <speed>8.472222</speed>
792        <geoidheight>-12.0</geoidheight>
793        <fix>3d</fix>
794        <sat>6</sat>
795        <hdop>1.300000</hdop>
796        <vdop>1.900000</vdop>
797        <pdop>2.300000</pdop>
798      </trkpt>
799      <trkpt lat="-6.727738333" lon="-37.162146667">
800        <ele>227.800000</ele>
801        <time>2008-02-03T17:35:02Z</time>
802        <course>310.000000</course>
803        <speed>4.000000</speed>
804        <geoidheight>-12.0</geoidheight>
805        <fix>3d</fix>
806        <sat>5</sat>
807        <hdop>1.600000</hdop>
808        <vdop>1.900000</vdop>
809        <pdop>2.500000</pdop>
810      </trkpt>
811      <trkpt lat="-6.727561667" lon="-37.162673333">
812        <ele>229.000000</ele>
813        <time>2008-02-03T17:35:17Z</time>
814        <course>260.600006</course>
815        <speed>5.000000</speed>
816        <geoidheight>-12.0</geoidheight>
817        <fix>3d</fix>
818        <sat>6</sat>
819        <hdop>1.300000</hdop>
820        <vdop>1.900000</vdop>
821        <pdop>2.300000</pdop>
822      </trkpt>
823      <trkpt lat="-6.727460000" lon="-37.163208333">
824        <ele>231.200000</ele>
825        <time>2008-02-03T17:35:32Z</time>
826        <course>299.600006</course>
827        <speed>4.305555</speed>
828        <geoidheight>-12.0</geoidheight>
829        <fix>3d</fix>
830        <sat>6</sat>
831        <hdop>1.300000</hdop>
832        <vdop>2.000000</vdop>
833        <pdop>2.300000</pdop>
834      </trkpt>
835      <trkpt lat="-6.726941667" lon="-37.164026667">
836        <ele>232.800000</ele>
837        <time>2008-02-03T17:35:47Z</time>
838        <course>293.200012</course>
839        <speed>9.194445</speed>
840        <geoidheight>-12.0</geoidheight>
841        <fix>3d</fix>
842        <sat>6</sat>
843        <hdop>1.300000</hdop>
844        <vdop>2.000000</vdop>
845        <pdop>2.400000</pdop>
846      </trkpt>
847      <trkpt lat="-6.726456667" lon="-37.165060000">
848        <ele>245.600000</ele>
849        <time>2008-02-03T17:36:02Z</time>
850        <course>284.799988</course>
851        <speed>9.444445</speed>
852        <geoidheight>-12.0</geoidheight>
853        <fix>3d</fix>
854        <sat>6</sat>
855        <hdop>1.300000</hdop>
856        <vdop>2.000000</vdop>
857        <pdop>2.400000</pdop>
858      </trkpt>
859      <trkpt lat="-6.726285000" lon="-37.165740000">
860        <ele>248.900000</ele>
861        <time>2008-02-03T17:36:17Z</time>
862        <course>289.600006</course>
863        <speed>5.222222</speed>
864        <geoidheight>-12.0</geoidheight>
865        <fix>3d</fix>
866        <sat>5</sat>
867        <hdop>1.600000</hdop>
868        <vdop>2.000000</vdop>
869        <pdop>2.500000</pdop>
870      </trkpt>
871      <trkpt lat="-6.725918333" lon="-37.166560000">
872        <ele>248.000000</ele>
873        <time>2008-02-03T17:36:32Z</time>
874        <course>294.100006</course>
875        <speed>6.250000</speed>
876        <geoidheight>-12.0</geoidheight>
877        <fix>3d</fix>
878        <sat>6</sat>
879        <hdop>1.300000</hdop>
880        <vdop>2.000000</vdop>
881        <pdop>2.400000</pdop>
882      </trkpt>
883      <trkpt lat="-6.725780000" lon="-37.167256667">
884        <ele>242.400000</ele>
885        <time>2008-02-03T17:36:47Z</time>
886        <course>289.299988</course>
887        <speed>4.166667</speed>
888        <geoidheight>-12.0</geoidheight>
889        <fix>3d</fix>
890        <sat>6</sat>
891        <hdop>1.300000</hdop>
892        <vdop>2.000000</vdop>
893        <pdop>2.400000</pdop>
894      </trkpt>
895      <trkpt lat="-6.725598333" lon="-37.167928333">
896        <ele>242.400000</ele>
897        <time>2008-02-03T17:37:02Z</time>
898        <course>289.600006</course>
899        <speed>6.333333</speed>
900        <geoidheight>-12.0</geoidheight>
901        <fix>3d</fix>
902        <sat>6</sat>
903        <hdop>1.300000</hdop>
904        <vdop>2.000000</vdop>
905        <pdop>2.400000</pdop>
906      </trkpt>
907      <trkpt lat="-6.725455000" lon="-37.168861667">
908        <ele>241.000000</ele>
909        <time>2008-02-03T17:37:17Z</time>
910        <course>288.399994</course>
911        <speed>7.027778</speed>
912        <geoidheight>-12.0</geoidheight>
913        <fix>3d</fix>
914        <sat>6</sat>
915        <hdop>1.300000</hdop>
916        <vdop>2.000000</vdop>
917        <pdop>2.400000</pdop>
918      </trkpt>
919      <trkpt lat="-6.725015000" lon="-37.169875000">
920        <ele>241.500000</ele>
921        <time>2008-02-03T17:37:32Z</time>
922        <course>289.700012</course>
923        <speed>8.972222</speed>
924        <geoidheight>-12.0</geoidheight>
925        <fix>3d</fix>
926        <sat>6</sat>
927        <hdop>1.300000</hdop>
928        <vdop>2.000000</vdop>
929        <pdop>2.400000</pdop>
930      </trkpt>
931      <trkpt lat="-6.724800000" lon="-37.170628333">
932        <ele>240.000000</ele>
933        <time>2008-02-03T17:37:47Z</time>
934        <course>284.600006</course>
935        <speed>6.472222</speed>
936        <geoidheight>-12.0</geoidheight>
937        <fix>3d</fix>
938        <sat>6</sat>
939        <hdop>1.300000</hdop>
940        <vdop>2.000000</vdop>
941        <pdop>2.400000</pdop>
942      </trkpt>
943      <trkpt lat="-6.724835000" lon="-37.171540000">
944        <ele>238.900000</ele>
945        <time>2008-02-03T17:38:02Z</time>
946        <course>260.399994</course>
947        <speed>8.111111</speed>
948        <geoidheight>-12.0</geoidheight>
949        <fix>3d</fix>
950        <sat>6</sat>
951        <hdop>1.300000</hdop>
952        <vdop>2.000000</vdop>
953        <pdop>2.400000</pdop>
954      </trkpt>
955      <trkpt lat="-6.724891667" lon="-37.172571667">
956        <ele>238.500000</ele>
957        <time>2008-02-03T17:38:17Z</time>
958        <course>280.799988</course>
959        <speed>8.305555</speed>
960        <geoidheight>-12.0</geoidheight>
961        <fix>3d</fix>
962        <sat>6</sat>
963        <hdop>1.300000</hdop>
964        <vdop>2.000000</vdop>
965        <pdop>2.400000</pdop>
966      </trkpt>
967      <trkpt lat="-6.724563333" lon="-37.173491667">
968        <ele>228.000000</ele>
969        <time>2008-02-03T17:38:32Z</time>
970        <course>294.500000</course>
971        <speed>6.055555</speed>
972        <geoidheight>-12.0</geoidheight>
973        <fix>3d</fix>
974        <sat>5</sat>
975        <hdop>1.600000</hdop>
976        <vdop>2.000000</vdop>
977        <pdop>2.600000</pdop>
978      </trkpt>
979      <trkpt lat="-6.724310000" lon="-37.174401667">
980        <ele>225.800000</ele>
981        <time>2008-02-03T17:38:47Z</time>
982        <course>289.399994</course>
983        <speed>8.305555</speed>
984        <geoidheight>-12.0</geoidheight>
985        <fix>3d</fix>
986        <sat>5</sat>
987        <hdop>1.500000</hdop>
988        <vdop>2.100000</vdop>
989        <pdop>2.600000</pdop>
990      </trkpt>
991      <trkpt lat="-6.723931667" lon="-37.175340000">
992        <ele>227.800000</ele>
993        <time>2008-02-03T17:39:02Z</time>
994        <course>287.399994</course>
995        <speed>7.694445</speed>
996        <geoidheight>-12.0</geoidheight>
997        <fix>3d</fix>
998        <sat>6</sat>
999        <hdop>1.300000</hdop>
1000        <vdop>2.000000</vdop>
1001        <pdop>2.400000</pdop>
1002      </trkpt>
1003      <trkpt lat="-6.723746667" lon="-37.176120000">
1004        <ele>229.300000</ele>
1005        <time>2008-02-03T17:39:17Z</time>
1006        <course>289.100006</course>
1007        <speed>3.305556</speed>
1008        <geoidheight>-12.0</geoidheight>
1009        <fix>3d</fix>
1010        <sat>6</sat>
1011        <hdop>1.300000</hdop>
1012        <vdop>2.000000</vdop>
1013        <pdop>2.400000</pdop>
1014      </trkpt>
1015      <trkpt lat="-6.723376667" lon="-37.176946667">
1016        <ele>232.100000</ele>
1017        <time>2008-02-03T17:39:32Z</time>
1018        <course>288.700012</course>
1019        <speed>9.250000</speed>
1020        <geoidheight>-12.0</geoidheight>
1021        <fix>3d</fix>
1022        <sat>6</sat>
1023        <hdop>1.300000</hdop>
1024        <vdop>2.000000</vdop>
1025        <pdop>2.400000</pdop>
1026      </trkpt>
1027      <trkpt lat="-6.723043333" lon="-37.178001667">
1028        <ele>234.400000</ele>
1029        <time>2008-02-03T17:39:47Z</time>
1030        <course>288.700012</course>
1031        <speed>8.138889</speed>
1032        <geoidheight>-12.0</geoidheight>
1033        <fix>3d</fix>
1034        <sat>5</sat>
1035        <hdop>1.600000</hdop>
1036        <vdop>2.100000</vdop>
1037        <pdop>2.600000</pdop>
1038      </trkpt>
1039      <trkpt lat="-6.722743333" lon="-37.178890000">
1040        <ele>232.900000</ele>
1041        <time>2008-02-03T17:40:02Z</time>
1042        <course>299.200012</course>
1043        <speed>6.305555</speed>
1044        <geoidheight>-12.0</geoidheight>
1045        <fix>3d</fix>
1046        <sat>6</sat>
1047        <hdop>1.300000</hdop>
1048        <vdop>2.000000</vdop>
1049        <pdop>2.400000</pdop>
1050      </trkpt>
1051      <trkpt lat="-6.722225000" lon="-37.179760000">
1052        <ele>230.300000</ele>
1053        <time>2008-02-03T17:40:17Z</time>
1054        <course>302.899994</course>
1055        <speed>7.722222</speed>
1056        <geoidheight>-12.0</geoidheight>
1057        <fix>3d</fix>
1058        <sat>6</sat>
1059        <hdop>1.300000</hdop>
1060        <vdop>2.000000</vdop>
1061        <pdop>2.400000</pdop>
1062      </trkpt>
1063      <trkpt lat="-6.721451667" lon="-37.180683333">
1064        <ele>228.500000</ele>
1065        <time>2008-02-03T17:40:32Z</time>
1066        <course>305.600006</course>
1067        <speed>8.555555</speed>
1068        <geoidheight>-12.0</geoidheight>
1069        <fix>3d</fix>
1070        <sat>6</sat>
1071        <hdop>1.300000</hdop>
1072        <vdop>2.000000</vdop>
1073        <pdop>2.400000</pdop>
1074      </trkpt>
1075      <trkpt lat="-6.720891667" lon="-37.181565000">
1076        <ele>227.700000</ele>
1077        <time>2008-02-03T17:40:47Z</time>
1078        <course>297.600006</course>
1079        <speed>7.138889</speed>
1080        <geoidheight>-12.0</geoidheight>
1081        <fix>3d</fix>
1082        <sat>6</sat>
1083        <hdop>1.300000</hdop>
1084        <vdop>2.000000</vdop>
1085        <pdop>2.400000</pdop>
1086      </trkpt>
1087      <trkpt lat="-6.720303333" lon="-37.182376667">
1088        <ele>225.800000</ele>
1089        <time>2008-02-03T17:41:02Z</time>
1090        <course>305.700012</course>
1091        <speed>7.555555</speed>
1092        <geoidheight>-12.0</geoidheight>
1093        <fix>3d</fix>
1094        <sat>6</sat>
1095        <hdop>1.300000</hdop>
1096        <vdop>2.000000</vdop>
1097        <pdop>2.400000</pdop>
1098      </trkpt>
1099      <trkpt lat="-6.719868333" lon="-37.183156667">
1100        <ele>225.400000</ele>
1101        <time>2008-02-03T17:41:17Z</time>
1102        <course>287.299988</course>
1103        <speed>6.777778</speed>
1104        <geoidheight>-12.0</geoidheight>
1105        <fix>3d</fix>
1106        <sat>5</sat>
1107        <hdop>1.700000</hdop>
1108        <vdop>2.100000</vdop>
1109        <pdop>2.700000</pdop>
1110      </trkpt>
1111      <trkpt lat="-6.719695000" lon="-37.183948333">
1112        <ele>225.000000</ele>
1113        <time>2008-02-03T17:41:32Z</time>
1114        <course>268.799988</course>
1115        <speed>3.055556</speed>
1116        <geoidheight>-12.0</geoidheight>
1117        <fix>3d</fix>
1118        <sat>6</sat>
1119        <hdop>1.300000</hdop>
1120        <vdop>2.000000</vdop>
1121        <pdop>2.400000</pdop>
1122      </trkpt>
1123      <trkpt lat="-6.719713333" lon="-37.184835000">
1124        <ele>223.600000</ele>
1125        <time>2008-02-03T17:41:47Z</time>
1126        <course>273.700012</course>
1127        <speed>12.388889</speed>
1128        <geoidheight>-12.0</geoidheight>
1129        <fix>3d</fix>
1130        <sat>6</sat>
1131        <hdop>1.300000</hdop>
1132        <vdop>2.000000</vdop>
1133        <pdop>2.400000</pdop>
1134      </trkpt>
1135      <trkpt lat="-6.719520000" lon="-37.186768333">
1136        <ele>219.300000</ele>
1137        <time>2008-02-03T17:42:02Z</time>
1138        <course>276.000000</course>
1139        <speed>15.666667</speed>
1140        <geoidheight>-12.0</geoidheight>
1141        <fix>3d</fix>
1142        <sat>6</sat>
1143        <hdop>1.300000</hdop>
1144        <vdop>2.000000</vdop>
1145        <pdop>2.500000</pdop>
1146      </trkpt>
1147      <trkpt lat="-6.719350000" lon="-37.188818333">
1148        <ele>217.400000</ele>
1149        <time>2008-02-03T17:42:17Z</time>
1150        <course>276.000000</course>
1151        <speed>14.944445</speed>
1152        <geoidheight>-12.0</geoidheight>
1153        <fix>3d</fix>
1154        <sat>6</sat>
1155        <hdop>1.300000</hdop>
1156        <vdop>2.000000</vdop>
1157        <pdop>2.500000</pdop>
1158      </trkpt>
1159      <trkpt lat="-6.719196667" lon="-37.190636667">
1160        <ele>215.500000</ele>
1161        <time>2008-02-03T17:42:32Z</time>
1162        <course>273.000000</course>
1163        <speed>10.555555</speed>
1164        <geoidheight>-12.0</geoidheight>
1165        <fix>3d</fix>
1166        <sat>6</sat>
1167        <hdop>1.300000</hdop>
1168        <vdop>2.000000</vdop>
1169        <pdop>2.500000</pdop>
1170      </trkpt>
1171      <trkpt lat="-6.718985000" lon="-37.192230000">
1172        <ele>215.000000</ele>
1173        <time>2008-02-03T17:42:47Z</time>
1174        <course>274.799988</course>
1175        <speed>14.444445</speed>
1176        <geoidheight>-12.0</geoidheight>
1177        <fix>3d</fix>
1178        <sat>6</sat>
1179        <hdop>1.300000</hdop>
1180        <vdop>2.000000</vdop>
1181        <pdop>2.500000</pdop>
1182      </trkpt>
1183      <trkpt lat="-6.718636667" lon="-37.193413333">
1184        <ele>226.700000</ele>
1185        <time>2008-02-03T17:43:02Z</time>
1186        <course>274.500000</course>
1187        <speed>7.305555</speed>
1188        <geoidheight>-12.0</geoidheight>
1189        <fix>3d</fix>
1190        <sat>6</sat>
1191        <hdop>1.400000</hdop>
1192        <vdop>2.000000</vdop>
1193        <pdop>2.500000</pdop>
1194      </trkpt>
1195      <trkpt lat="-6.718593333" lon="-37.194726667">
1196        <ele>225.100000</ele>
1197        <time>2008-02-03T17:43:17Z</time>
1198        <course>273.899994</course>
1199        <speed>11.388889</speed>
1200        <geoidheight>-12.0</geoidheight>
1201        <fix>3d</fix>
1202        <sat>6</sat>
1203        <hdop>1.400000</hdop>
1204        <vdop>2.100000</vdop>
1205        <pdop>2.500000</pdop>
1206      </trkpt>
1207      <trkpt lat="-6.718596667" lon="-37.196088333">
1208        <ele>216.300000</ele>
1209        <time>2008-02-03T17:43:32Z</time>
1210        <course>274.799988</course>
1211        <speed>9.888889</speed>
1212        <geoidheight>-12.0</geoidheight>
1213        <fix>3d</fix>
1214        <sat>6</sat>
1215        <hdop>1.400000</hdop>
1216        <vdop>2.100000</vdop>
1217        <pdop>2.500000</pdop>
1218      </trkpt>
1219      <trkpt lat="-6.718480000" lon="-37.197555000">
1220        <ele>212.600000</ele>
1221        <time>2008-02-03T17:43:47Z</time>
1222        <course>273.799988</course>
1223        <speed>10.722222</speed>
1224        <geoidheight>-12.0</geoidheight>
1225        <fix>3d</fix>
1226        <sat>6</sat>
1227        <hdop>1.400000</hdop>
1228        <vdop>2.100000</vdop>
1229        <pdop>2.500000</pdop>
1230      </trkpt>
1231      <trkpt lat="-6.718460000" lon="-37.198401667">
1232        <ele>199.300000</ele>
1233        <time>2008-02-03T17:44:02Z</time>
1234        <course>282.600006</course>
1235        <speed>5.555555</speed>
1236        <geoidheight>-12.0</geoidheight>
1237        <fix>3d</fix>
1238        <sat>6</sat>
1239        <hdop>1.400000</hdop>
1240        <vdop>2.100000</vdop>
1241        <pdop>2.500000</pdop>
1242      </trkpt>
1243      <trkpt lat="-6.718518333" lon="-37.199043333">
1244        <ele>213.700000</ele>
1245        <time>2008-02-03T17:44:17Z</time>
1246        <course>267.799988</course>
1247        <speed>5.277778</speed>
1248        <geoidheight>-12.0</geoidheight>
1249        <fix>3d</fix>
1250        <sat>6</sat>
1251        <hdop>1.400000</hdop>
1252        <vdop>2.100000</vdop>
1253        <pdop>2.500000</pdop>
1254      </trkpt>
1255      <trkpt lat="-6.718550000" lon="-37.199575000">
1256        <ele>211.300000</ele>
1257        <time>2008-02-03T17:44:32Z</time>
1258        <course>267.500000</course>
1259        <speed>0.361111</speed>
1260        <geoidheight>-12.0</geoidheight>
1261        <fix>3d</fix>
1262        <sat>6</sat>
1263        <hdop>1.400000</hdop>
1264        <vdop>2.100000</vdop>
1265        <pdop>2.500000</pdop>
1266      </trkpt>
1267      <trkpt lat="-6.718538333" lon="-37.200021667">
1268        <ele>209.500000</ele>
1269        <time>2008-02-03T17:44:47Z</time>
1270        <course>259.899994</course>
1271        <speed>3.444444</speed>
1272        <geoidheight>-12.0</geoidheight>
1273        <fix>3d</fix>
1274        <sat>6</sat>
1275        <hdop>1.400000</hdop>
1276        <vdop>2.100000</vdop>
1277        <pdop>2.500000</pdop>
1278      </trkpt>
1279      <trkpt lat="-6.718185000" lon="-37.200663333">
1280        <ele>215.000000</ele>
1281        <time>2008-02-03T17:45:02Z</time>
1282        <course>280.200012</course>
1283        <speed>3.750000</speed>
1284        <geoidheight>-12.0</geoidheight>
1285        <fix>3d</fix>
1286        <sat>6</sat>
1287        <hdop>1.400000</hdop>
1288        <vdop>2.100000</vdop>
1289        <pdop>2.500000</pdop>
1290      </trkpt>
1291      <trkpt lat="-6.718305000" lon="-37.201178333">
1292        <ele>214.900000</ele>
1293        <time>2008-02-03T17:45:17Z</time>
1294        <course>221.100006</course>
1295        <speed>1.805556</speed>
1296        <geoidheight>-12.0</geoidheight>
1297        <fix>3d</fix>
1298        <sat>6</sat>
1299        <hdop>1.400000</hdop>
1300        <vdop>2.100000</vdop>
1301        <pdop>2.500000</pdop>
1302      </trkpt>
1303      <trkpt lat="-6.718551667" lon="-37.201226667">
1304        <ele>215.200000</ele>
1305        <time>2008-02-03T17:45:32Z</time>
1306        <course>199.600006</course>
1307        <speed>0.472222</speed>
1308        <geoidheight>-12.0</geoidheight>
1309        <fix>3d</fix>
1310        <sat>5</sat>
1311        <hdop>11.000000</hdop>
1312        <vdop>14.400000</vdop>
1313        <pdop>18.200001</pdop>
1314      </trkpt>
1315      <trkpt lat="-6.718905000" lon="-37.201241667">
1316        <ele>215.500000</ele>
1317        <time>2008-02-03T17:45:47Z</time>
1318        <course>145.699997</course>
1319        <speed>2.972222</speed>
1320        <geoidheight>-12.0</geoidheight>
1321        <fix>3d</fix>
1322        <sat>6</sat>
1323        <hdop>1.400000</hdop>
1324        <vdop>2.100000</vdop>
1325        <pdop>2.500000</pdop>
1326      </trkpt>
1327      <trkpt lat="-6.719081667" lon="-37.200996667">
1328        <ele>215.000000</ele>
1329        <time>2008-02-03T17:46:02Z</time>
1330        <course>159.500000</course>
1331        <speed>1.166667</speed>
1332        <geoidheight>-12.0</geoidheight>
1333        <fix>3d</fix>
1334        <sat>6</sat>
1335        <hdop>1.400000</hdop>
1336        <vdop>2.100000</vdop>
1337        <pdop>2.500000</pdop>
1338      </trkpt>
1339      <trkpt lat="-6.719216667" lon="-37.200515000">
1340        <ele>214.800000</ele>
1341        <time>2008-02-03T17:46:17Z</time>
1342        <course>129.500000</course>
1343        <speed>1.694444</speed>
1344        <geoidheight>-12.0</geoidheight>
1345        <fix>3d</fix>
1346        <sat>6</sat>
1347        <hdop>1.400000</hdop>
1348        <vdop>2.100000</vdop>
1349        <pdop>2.500000</pdop>
1350      </trkpt>
1351      <trkpt lat="-6.719348333" lon="-37.200303333">
1352        <ele>214.700000</ele>
1353        <time>2008-02-03T17:46:32Z</time>
1354        <course>148.899994</course>
1355        <speed>2.222222</speed>
1356        <geoidheight>-12.0</geoidheight>
1357        <fix>3d</fix>
1358        <sat>6</sat>
1359        <hdop>1.400000</hdop>
1360        <vdop>2.100000</vdop>
1361        <pdop>2.500000</pdop>
1362      </trkpt>
1363      <trkpt lat="-6.719750000" lon="-37.200300000">
1364        <ele>215.800000</ele>
1365        <time>2008-02-03T17:46:47Z</time>
1366        <course>166.300003</course>
1367        <speed>4.138889</speed>
1368        <geoidheight>-12.0</geoidheight>
1369        <fix>3d</fix>
1370        <sat>5</sat>
1371        <hdop>1.600000</hdop>
1372        <vdop>2.100000</vdop>
1373        <pdop>2.700000</pdop>
1374      </trkpt>
1375      <trkpt lat="-6.719823333" lon="-37.200058333">
1376        <ele>216.300000</ele>
1377        <time>2008-02-03T17:47:02Z</time>
1378        <course>151.000000</course>
1379        <speed>0.194444</speed>
1380        <geoidheight>-12.0</geoidheight>
1381        <fix>3d</fix>
1382        <sat>5</sat>
1383        <hdop>1.600000</hdop>
1384        <vdop>2.100000</vdop>
1385        <pdop>2.700000</pdop>
1386      </trkpt>
1387      <trkpt lat="-6.719833333" lon="-37.200058333">
1388        <ele>217.000000</ele>
1389        <time>2008-02-03T17:47:17Z</time>
1390        <course>199.699997</course>
1391        <speed>0.583333</speed>
1392        <geoidheight>-12.0</geoidheight>
1393        <fix>3d</fix>
1394        <sat>6</sat>
1395        <hdop>1.400000</hdop>
1396        <vdop>2.100000</vdop>
1397        <pdop>2.600000</pdop>
1398      </trkpt>
1399      <trkpt lat="-6.719871667" lon="-37.200101667">
1400        <ele>217.400000</ele>
1401        <time>2008-02-03T17:47:32Z</time>
1402        <course>234.899994</course>
1403        <speed>0.111111</speed>
1404        <geoidheight>-12.0</geoidheight>
1405        <fix>3d</fix>
1406        <sat>5</sat>
1407        <hdop>1.600000</hdop>
1408        <vdop>2.100000</vdop>
1409        <pdop>2.700000</pdop>
1410      </trkpt>
1411      <trkpt lat="-6.719868333" lon="-37.200136667">
1412        <ele>217.200000</ele>
1413        <time>2008-02-03T17:47:47Z</time>
1414        <course>272.799988</course>
1415        <speed>0.805556</speed>
1416        <geoidheight>-12.0</geoidheight>
1417        <fix>3d</fix>
1418        <sat>6</sat>
1419        <hdop>1.400000</hdop>
1420        <vdop>2.100000</vdop>
1421        <pdop>2.600000</pdop>
1422      </trkpt>
1423      <trkpt lat="-6.719785000" lon="-37.200155000">
1424        <ele>217.400000</ele>
1425        <time>2008-02-03T17:48:02Z</time>
1426        <course>272.000000</course>
1427        <speed>0.222222</speed>
1428        <geoidheight>-12.0</geoidheight>
1429        <fix>3d</fix>
1430        <sat>6</sat>
1431        <hdop>1.400000</hdop>
1432        <vdop>2.100000</vdop>
1433        <pdop>2.600000</pdop>
1434      </trkpt>
1435      <trkpt lat="-6.719756667" lon="-37.200140000">
1436        <ele>218.100000</ele>
1437        <time>2008-02-03T17:48:17Z</time>
1438        <course>229.300003</course>
1439        <speed>1.111111</speed>
1440        <geoidheight>-12.0</geoidheight>
1441        <fix>3d</fix>
1442        <sat>4</sat>
1443        <hdop>7.300000</hdop>
1444        <vdop>4.100000</vdop>
1445        <pdop>8.400000</pdop>
1446      </trkpt>
1447      <trkpt lat="-6.719868333" lon="-37.200140000">
1448        <ele>217.500000</ele>
1449        <time>2008-02-03T17:48:32Z</time>
1450        <course>188.699997</course>
1451        <speed>0.333333</speed>
1452        <geoidheight>-12.0</geoidheight>
1453        <fix>3d</fix>
1454        <sat>5</sat>
1455        <hdop>1.600000</hdop>
1456        <vdop>2.100000</vdop>
1457        <pdop>2.700000</pdop>
1458      </trkpt>
1459      <trkpt lat="-6.719798333" lon="-37.200106667">
1460        <ele>217.400000</ele>
1461        <time>2008-02-03T17:48:47Z</time>
1462        <course>188.699997</course>
1463        <speed>0.277778</speed>
1464        <geoidheight>-12.0</geoidheight>
1465        <fix>3d</fix>
1466        <sat>6</sat>
1467        <hdop>1.400000</hdop>
1468        <vdop>2.100000</vdop>
1469        <pdop>2.600000</pdop>
1470      </trkpt>
1471      <trkpt lat="-6.719871667" lon="-37.200108333">
1472        <ele>217.800000</ele>
1473        <time>2008-02-03T17:49:07Z</time>
1474        <course>188.699997</course>
1475        <speed>0.666667</speed>
1476        <geoidheight>-12.0</geoidheight>
1477        <fix>3d</fix>
1478        <sat>4</sat>
1479        <hdop>7.500000</hdop>
1480        <vdop>4.300000</vdop>
1481        <pdop>8.700000</pdop>
1482      </trkpt>
1483      <trkpt lat="-6.719661667" lon="-37.200090000">
1484        <ele>218.600000</ele>
1485        <time>2008-02-03T17:49:22Z</time>
1486        <course>188.699997</course>
1487        <speed>1.527778</speed>
1488        <geoidheight>-12.0</geoidheight>
1489        <fix>3d</fix>
1490        <sat>6</sat>
1491        <hdop>1.400000</hdop>
1492        <vdop>2.200000</vdop>
1493        <pdop>2.600000</pdop>
1494      </trkpt>
1495      <trkpt lat="-6.719655000" lon="-37.200071667">
1496        <ele>219.300000</ele>
1497        <time>2008-02-03T17:49:37Z</time>
1498        <course>188.600006</course>
1499        <speed>1.388889</speed>
1500        <geoidheight>-12.0</geoidheight>
1501        <fix>3d</fix>
1502        <sat>5</sat>
1503        <hdop>1.600000</hdop>
1504        <vdop>2.200000</vdop>
1505        <pdop>2.700000</pdop>
1506      </trkpt>
1507      <trkpt lat="-6.719671667" lon="-37.200060000">
1508        <ele>220.700000</ele>
1509        <time>2008-02-03T17:49:52Z</time>
1510        <course>187.899994</course>
1511        <speed>0.972222</speed>
1512        <geoidheight>-12.0</geoidheight>
1513        <fix>3d</fix>
1514        <sat>5</sat>
1515        <hdop>1.600000</hdop>
1516        <vdop>2.200000</vdop>
1517        <pdop>2.700000</pdop>
1518      </trkpt>
1519      <trkpt lat="-6.719751667" lon="-37.200038333">
1520        <ele>216.300000</ele>
1521        <time>2008-02-03T17:50:12Z</time>
1522        <course>187.899994</course>
1523        <speed>0.166667</speed>
1524        <geoidheight>-12.0</geoidheight>
1525        <fix>3d</fix>
1526        <sat>5</sat>
1527        <hdop>1.700000</hdop>
1528        <vdop>2.200000</vdop>
1529        <pdop>2.800000</pdop>
1530      </trkpt>
1531      <trkpt lat="-6.719708333" lon="-37.200038333">
1532        <ele>213.800000</ele>
1533        <time>2008-02-03T17:50:27Z</time>
1534        <course>187.899994</course>
1535        <speed>0.611111</speed>
1536        <geoidheight>-12.0</geoidheight>
1537        <fix>3d</fix>
1538        <sat>5</sat>
1539        <hdop>1.900000</hdop>
1540        <vdop>2.400000</vdop>
1541        <pdop>3.100000</pdop>
1542      </trkpt>
1543      <trkpt lat="-6.719673333" lon="-37.200025000">
1544        <ele>215.200000</ele>
1545        <time>2008-02-03T17:50:42Z</time>
1546        <course>187.899994</course>
1547        <speed>0.444444</speed>
1548        <geoidheight>-12.0</geoidheight>
1549        <fix>3d</fix>
1550        <sat>4</sat>
1551        <hdop>8.000000</hdop>
1552        <vdop>4.800000</vdop>
1553        <pdop>9.400000</pdop>
1554      </trkpt>
1555      <trkpt lat="-6.719726667" lon="-37.200008333">
1556        <ele>214.800000</ele>
1557        <time>2008-02-03T17:50:57Z</time>
1558        <course>183.800003</course>
1559        <speed>0.500000</speed>
1560        <geoidheight>-12.0</geoidheight>
1561        <fix>2d</fix>
1562        <sat>4</sat>
1563        <hdop>2.000000</hdop>
1564        <vdop>0.900000</vdop>
1565        <pdop>2.200000</pdop>
1566      </trkpt>
1567      <trkpt lat="-6.719635000" lon="-37.200125000">
1568        <ele>215.200000</ele>
1569        <time>2008-02-03T17:51:12Z</time>
1570        <course>271.299988</course>
1571        <speed>0.888889</speed>
1572        <geoidheight>-12.0</geoidheight>
1573        <fix>2d</fix>
1574        <sat>4</sat>
1575        <hdop>2.000000</hdop>
1576        <vdop>0.900000</vdop>
1577        <pdop>2.200000</pdop>
1578      </trkpt>
1579      <trkpt lat="-6.719616667" lon="-37.200206667">
1580        <ele>215.300000</ele>
1581        <time>2008-02-03T17:51:27Z</time>
1582        <course>269.899994</course>
1583        <speed>0.361111</speed>
1584        <geoidheight>-12.0</geoidheight>
1585        <fix>3d</fix>
1586        <sat>6</sat>
1587        <hdop>1.500000</hdop>
1588        <vdop>2.200000</vdop>
1589        <pdop>2.700000</pdop>
1590      </trkpt>
1591      <trkpt lat="-6.719260000" lon="-37.200155000">
1592        <ele>215.600000</ele>
1593        <time>2008-02-03T17:51:42Z</time>
1594        <course>12.200000</course>
1595        <speed>1.416667</speed>
1596        <geoidheight>-12.0</geoidheight>
1597        <fix>3d</fix>
1598        <sat>6</sat>
1599        <hdop>1.500000</hdop>
1600        <vdop>2.200000</vdop>
1601        <pdop>2.700000</pdop>
1602      </trkpt>
1603      <trkpt lat="-6.719313333" lon="-37.199728333">
1604        <ele>215.000000</ele>
1605        <time>2008-02-03T17:51:57Z</time>
1606        <course>104.199997</course>
1607        <speed>3.638889</speed>
1608        <geoidheight>-12.0</geoidheight>
1609        <fix>3d</fix>
1610        <sat>6</sat>
1611        <hdop>1.500000</hdop>
1612        <vdop>2.200000</vdop>
1613        <pdop>2.700000</pdop>
1614      </trkpt>
1615      <trkpt lat="-6.719440000" lon="-37.199430000">
1616        <ele>214.900000</ele>
1617        <time>2008-02-03T17:52:12Z</time>
1618        <course>119.199997</course>
1619        <speed>2.500000</speed>
1620        <geoidheight>-12.0</geoidheight>
1621        <fix>3d</fix>
1622        <sat>4</sat>
1623        <hdop>1.800000</hdop>
1624        <vdop>2.600000</vdop>
1625        <pdop>3.100000</pdop>
1626      </trkpt>
1627      <trkpt lat="-6.719136667" lon="-37.199251667">
1628        <ele>215.000000</ele>
1629        <time>2008-02-03T17:52:27Z</time>
1630        <course>358.500000</course>
1631        <speed>4.555555</speed>
1632        <geoidheight>-12.0</geoidheight>
1633        <fix>2d</fix>
1634        <sat>4</sat>
1635        <hdop>2.100000</hdop>
1636        <vdop>0.900000</vdop>
1637        <pdop>2.300000</pdop>
1638      </trkpt>
1639      <trkpt lat="-6.718733333" lon="-37.199065000">
1640        <ele>215.100000</ele>
1641        <time>2008-02-03T17:52:47Z</time>
1642        <course>8.100000</course>
1643        <speed>3.500000</speed>
1644        <geoidheight>-12.0</geoidheight>
1645        <fix>2d</fix>
1646        <sat>4</sat>
1647        <hdop>2.100000</hdop>
1648        <vdop>0.900000</vdop>
1649        <pdop>2.300000</pdop>
1650      </trkpt>
1651      <trkpt lat="-6.718435000" lon="-37.199246667">
1652        <ele>210.500000</ele>
1653        <time>2008-02-03T17:53:02Z</time>
1654        <course>268.799988</course>
1655        <speed>5.472222</speed>
1656        <geoidheight>-12.0</geoidheight>
1657        <fix>3d</fix>
1658        <sat>6</sat>
1659        <hdop>1.500000</hdop>
1660        <vdop>2.200000</vdop>
1661        <pdop>2.700000</pdop>
1662      </trkpt>
1663      <trkpt lat="-6.718513333" lon="-37.199721667">
1664        <ele>205.800000</ele>
1665        <time>2008-02-03T17:53:17Z</time>
1666        <course>267.700012</course>
1667        <speed>3.388889</speed>
1668        <geoidheight>-12.0</geoidheight>
1669        <fix>3d</fix>
1670        <sat>6</sat>
1671        <hdop>1.500000</hdop>
1672        <vdop>2.200000</vdop>
1673        <pdop>2.700000</pdop>
1674      </trkpt>
1675      <trkpt lat="-6.718513333" lon="-37.200213333">
1676        <ele>202.700000</ele>
1677        <time>2008-02-03T17:53:32Z</time>
1678        <course>276.399994</course>
1679        <speed>4.805555</speed>
1680        <geoidheight>-12.0</geoidheight>
1681        <fix>3d</fix>
1682        <sat>5</sat>
1683        <hdop>1.700000</hdop>
1684        <vdop>2.200000</vdop>
1685        <pdop>2.800000</pdop>
1686      </trkpt>
1687      <trkpt lat="-6.718241667" lon="-37.200780000">
1688        <ele>203.700000</ele>
1689        <time>2008-02-03T17:53:47Z</time>
1690        <course>266.500000</course>
1691        <speed>3.000000</speed>
1692        <geoidheight>-12.0</geoidheight>
1693        <fix>3d</fix>
1694        <sat>6</sat>
1695        <hdop>1.500000</hdop>
1696        <vdop>2.200000</vdop>
1697        <pdop>2.700000</pdop>
1698      </trkpt>
1699      <trkpt lat="-6.718183333" lon="-37.201348333">
1700        <ele>202.700000</ele>
1701        <time>2008-02-03T17:54:02Z</time>
1702        <course>288.600006</course>
1703        <speed>3.166667</speed>
1704        <geoidheight>-12.0</geoidheight>
1705        <fix>3d</fix>
1706        <sat>5</sat>
1707        <hdop>2.100000</hdop>
1708        <vdop>2.600000</vdop>
1709        <pdop>3.300000</pdop>
1710      </trkpt>
1711      <trkpt lat="-6.718163333" lon="-37.201843333">
1712        <ele>202.700000</ele>
1713        <time>2008-02-03T17:54:17Z</time>
1714        <course>262.399994</course>
1715        <speed>5.333333</speed>
1716        <geoidheight>-12.0</geoidheight>
1717        <fix>3d</fix>
1718        <sat>5</sat>
1719        <hdop>2.100000</hdop>
1720        <vdop>2.600000</vdop>
1721        <pdop>3.400000</pdop>
1722      </trkpt>
1723      <trkpt lat="-6.717808333" lon="-37.202205000">
1724        <ele>208.600000</ele>
1725        <time>2008-02-03T17:54:32Z</time>
1726        <course>4.400000</course>
1727        <speed>3.638889</speed>
1728        <geoidheight>-12.0</geoidheight>
1729        <fix>2d</fix>
1730        <sat>5</sat>
1731        <hdop>1.800000</hdop>
1732        <vdop>0.900000</vdop>
1733        <pdop>2.100000</pdop>
1734      </trkpt>
1735      <trkpt lat="-6.717233333" lon="-37.202065000">
1736        <ele>178.400000</ele>
1737        <time>2008-02-03T17:54:57Z</time>
1738        <course>7.700000</course>
1739        <speed>4.805555</speed>
1740        <geoidheight>-12.0</geoidheight>
1741        <fix>3d</fix>
1742        <sat>6</sat>
1743        <hdop>1.500000</hdop>
1744        <vdop>2.300000</vdop>
1745        <pdop>2.700000</pdop>
1746      </trkpt>
1747      <trkpt lat="-6.716416667" lon="-37.201951667">
1748        <ele>191.600000</ele>
1749        <time>2008-02-03T17:55:12Z</time>
1750        <course>8.500000</course>
1751        <speed>3.444444</speed>
1752        <geoidheight>-12.0</geoidheight>
1753        <fix>3d</fix>
1754        <sat>5</sat>
1755        <hdop>1.700000</hdop>
1756        <vdop>2.600000</vdop>
1757        <pdop>3.100000</pdop>
1758      </trkpt>
1759      <trkpt lat="-6.716038333" lon="-37.201820000">
1760        <ele>193.500000</ele>
1761        <time>2008-02-03T17:55:27Z</time>
1762        <course>9.600000</course>
1763        <speed>2.416667</speed>
1764        <geoidheight>-12.0</geoidheight>
1765        <fix>3d</fix>
1766        <sat>5</sat>
1767        <hdop>1.700000</hdop>
1768        <vdop>2.600000</vdop>
1769        <pdop>3.100000</pdop>
1770      </trkpt>
1771      <trkpt lat="-6.715430000" lon="-37.201741667">
1772        <ele>206.400000</ele>
1773        <time>2008-02-03T17:55:42Z</time>
1774        <course>14.200000</course>
1775        <speed>3.722222</speed>
1776        <geoidheight>-12.0</geoidheight>
1777        <fix>3d</fix>
1778        <sat>6</sat>
1779        <hdop>1.500000</hdop>
1780        <vdop>2.300000</vdop>
1781        <pdop>2.800000</pdop>
1782      </trkpt>
1783      <trkpt lat="-6.714911667" lon="-37.201451667">
1784        <ele>208.000000</ele>
1785        <time>2008-02-03T17:55:57Z</time>
1786        <course>54.400002</course>
1787        <speed>5.888889</speed>
1788        <geoidheight>-12.0</geoidheight>
1789        <fix>3d</fix>
1790        <sat>6</sat>
1791        <hdop>1.500000</hdop>
1792        <vdop>2.300000</vdop>
1793        <pdop>2.800000</pdop>
1794      </trkpt>
1795      <trkpt lat="-6.714213333" lon="-37.200731667">
1796        <ele>202.900000</ele>
1797        <time>2008-02-03T17:56:12Z</time>
1798        <course>22.200001</course>
1799        <speed>8.944445</speed>
1800        <geoidheight>-12.0</geoidheight>
1801        <fix>3d</fix>
1802        <sat>6</sat>
1803        <hdop>1.500000</hdop>
1804        <vdop>2.300000</vdop>
1805        <pdop>2.800000</pdop>
1806      </trkpt>
1807      <trkpt lat="-6.713103333" lon="-37.200206667">
1808        <ele>204.300000</ele>
1809        <time>2008-02-03T17:56:27Z</time>
1810        <course>31.299999</course>
1811        <speed>7.888889</speed>
1812        <geoidheight>-12.0</geoidheight>
1813        <fix>3d</fix>
1814        <sat>6</sat>
1815        <hdop>1.500000</hdop>
1816        <vdop>2.300000</vdop>
1817        <pdop>2.800000</pdop>
1818      </trkpt>
1819      <trkpt lat="-6.711898333" lon="-37.199785000">
1820        <ele>212.400000</ele>
1821        <time>2008-02-03T17:56:47Z</time>
1822        <course>11.000000</course>
1823        <speed>10.222222</speed>
1824        <geoidheight>-12.0</geoidheight>
1825        <fix>2d</fix>
1826        <sat>5</sat>
1827        <hdop>1.800000</hdop>
1828        <vdop>0.900000</vdop>
1829        <pdop>2.100000</pdop>
1830      </trkpt>
1831      <trkpt lat="-6.710700000" lon="-37.199400000">
1832        <ele>211.200000</ele>
1833        <time>2008-02-03T17:57:02Z</time>
1834        <course>25.600000</course>
1835        <speed>8.472222</speed>
1836        <geoidheight>-12.0</geoidheight>
1837        <fix>3d</fix>
1838        <sat>6</sat>
1839        <hdop>1.500000</hdop>
1840        <vdop>2.300000</vdop>
1841        <pdop>2.800000</pdop>
1842      </trkpt>
1843      <trkpt lat="-6.709651667" lon="-37.199213333">
1844        <ele>208.400000</ele>
1845        <time>2008-02-03T17:57:17Z</time>
1846        <course>357.700012</course>
1847        <speed>7.305555</speed>
1848        <geoidheight>-12.0</geoidheight>
1849        <fix>3d</fix>
1850        <sat>5</sat>
1851        <hdop>1.700000</hdop>
1852        <vdop>2.300000</vdop>
1853        <pdop>2.900000</pdop>
1854      </trkpt>
1855      <trkpt lat="-6.708716667" lon="-37.199211667">
1856        <ele>204.000000</ele>
1857        <time>2008-02-03T17:57:32Z</time>
1858        <course>0.900000</course>
1859        <speed>6.750000</speed>
1860        <geoidheight>-12.0</geoidheight>
1861        <fix>3d</fix>
1862        <sat>6</sat>
1863        <hdop>1.600000</hdop>
1864        <vdop>2.300000</vdop>
1865        <pdop>2.800000</pdop>
1866      </trkpt>
1867      <trkpt lat="-6.707751667" lon="-37.199321667">
1868        <ele>202.500000</ele>
1869        <time>2008-02-03T17:57:47Z</time>
1870        <course>357.500000</course>
1871        <speed>7.027778</speed>
1872        <geoidheight>-12.0</geoidheight>
1873        <fix>3d</fix>
1874        <sat>4</sat>
1875        <hdop>10.900000</hdop>
1876        <vdop>8.400000</vdop>
1877        <pdop>13.800000</pdop>
1878      </trkpt>
1879      <trkpt lat="-6.707085000" lon="-37.199285000">
1880        <ele>202.500000</ele>
1881        <time>2008-02-03T17:58:02Z</time>
1882        <course>347.500000</course>
1883        <speed>3.277778</speed>
1884        <geoidheight>-12.0</geoidheight>
1885        <fix>3d</fix>
1886        <sat>5</sat>
1887        <hdop>1.700000</hdop>
1888        <vdop>2.700000</vdop>
1889        <pdop>3.200000</pdop>
1890      </trkpt>
1891      <trkpt lat="-6.706675000" lon="-37.199301667">
1892        <ele>203.000000</ele>
1893        <time>2008-02-03T17:58:17Z</time>
1894        <course>350.299988</course>
1895        <speed>2.916667</speed>
1896        <geoidheight>-12.0</geoidheight>
1897        <fix>3d</fix>
1898        <sat>6</sat>
1899        <hdop>1.600000</hdop>
1900        <vdop>2.300000</vdop>
1901        <pdop>2.800000</pdop>
1902      </trkpt>
1903      <trkpt lat="-6.706251667" lon="-37.199435000">
1904        <ele>202.000000</ele>
1905        <time>2008-02-03T17:58:32Z</time>
1906        <course>342.200012</course>
1907        <speed>4.638889</speed>
1908        <geoidheight>-12.0</geoidheight>
1909        <fix>3d</fix>
1910        <sat>6</sat>
1911        <hdop>1.600000</hdop>
1912        <vdop>2.300000</vdop>
1913        <pdop>2.800000</pdop>
1914      </trkpt>
1915      <trkpt lat="-6.705601667" lon="-37.199280000">
1916        <ele>207.000000</ele>
1917        <time>2008-02-03T17:58:47Z</time>
1918        <course>53.700001</course>
1919        <speed>3.027778</speed>
1920        <geoidheight>-12.0</geoidheight>
1921        <fix>3d</fix>
1922        <sat>6</sat>
1923        <hdop>1.600000</hdop>
1924        <vdop>2.400000</vdop>
1925        <pdop>2.800000</pdop>
1926      </trkpt>
1927      <trkpt lat="-6.705605000" lon="-37.198946667">
1928        <ele>206.200000</ele>
1929        <time>2008-02-03T17:59:02Z</time>
1930        <course>73.000000</course>
1931        <speed>0.111111</speed>
1932        <geoidheight>-12.0</geoidheight>
1933        <fix>3d</fix>
1934        <sat>6</sat>
1935        <hdop>1.600000</hdop>
1936        <vdop>2.400000</vdop>
1937        <pdop>2.900000</pdop>
1938      </trkpt>
1939      <trkpt lat="-6.705608333" lon="-37.198953333">
1940        <ele>206.700000</ele>
1941        <time>2008-02-03T17:59:17Z</time>
1942        <course>64.400002</course>
1943        <speed>0.333333</speed>
1944        <geoidheight>-12.0</geoidheight>
1945        <fix>3d</fix>
1946        <sat>6</sat>
1947        <hdop>1.600000</hdop>
1948        <vdop>2.400000</vdop>
1949        <pdop>2.900000</pdop>
1950      </trkpt>
1951      <trkpt lat="-6.705635000" lon="-37.198936667">
1952        <ele>206.900000</ele>
1953        <time>2008-02-03T17:59:32Z</time>
1954        <course>64.400002</course>
1955        <speed>0.472222</speed>
1956        <geoidheight>-12.0</geoidheight>
1957        <fix>3d</fix>
1958        <sat>5</sat>
1959        <hdop>1.800000</hdop>
1960        <vdop>2.700000</vdop>
1961        <pdop>3.300000</pdop>
1962      </trkpt>
1963      <trkpt lat="-6.705653333" lon="-37.198938333">
1964        <ele>206.200000</ele>
1965        <time>2008-02-03T17:59:47Z</time>
1966        <course>64.400002</course>
1967        <speed>0.416667</speed>
1968        <geoidheight>-12.0</geoidheight>
1969        <fix>3d</fix>
1970        <sat>5</sat>
1971        <hdop>1.800000</hdop>
1972        <vdop>2.700000</vdop>
1973        <pdop>3.300000</pdop>
1974      </trkpt>
1975      <trkpt lat="-6.705661667" lon="-37.198941667">
1976        <ele>206.000000</ele>
1977        <time>2008-02-03T18:00:07Z</time>
1978        <course>64.400002</course>
1979        <speed>0.555556</speed>
1980        <geoidheight>-12.0</geoidheight>
1981        <fix>3d</fix>
1982        <sat>6</sat>
1983        <hdop>1.600000</hdop>
1984        <vdop>2.400000</vdop>
1985        <pdop>2.900000</pdop>
1986      </trkpt>
1987      <trkpt lat="-6.705723333" lon="-37.198933333">
1988        <ele>204.400000</ele>
1989        <time>2008-02-03T18:00:22Z</time>
1990        <course>64.400002</course>
1991        <speed>0.694444</speed>
1992        <geoidheight>-12.0</geoidheight>
1993        <fix>3d</fix>
1994        <sat>6</sat>
1995        <hdop>1.600000</hdop>
1996        <vdop>2.400000</vdop>
1997        <pdop>2.900000</pdop>
1998      </trkpt>
1999      <trkpt lat="-6.705731667" lon="-37.198928333">
2000        <ele>203.800000</ele>
2001        <time>2008-02-03T18:00:37Z</time>
2002        <course>64.400002</course>
2003        <speed>0.222222</speed>
2004        <geoidheight>-12.0</geoidheight>
2005        <fix>3d</fix>
2006        <sat>6</sat>
2007        <hdop>1.600000</hdop>
2008        <vdop>2.400000</vdop>
2009        <pdop>2.900000</pdop>
2010      </trkpt>
2011      <trkpt lat="-6.705740000" lon="-37.198876667">
2012        <ele>203.600000</ele>
2013        <time>2008-02-03T18:00:52Z</time>
2014        <course>83.099998</course>
2015        <speed>0.777778</speed>
2016        <geoidheight>-12.0</geoidheight>
2017        <fix>3d</fix>
2018        <sat>5</sat>
2019        <hdop>1.800000</hdop>
2020        <vdop>2.800000</vdop>
2021        <pdop>3.300000</pdop>
2022      </trkpt>
2023      <trkpt lat="-6.705743333" lon="-37.198890000">
2024        <ele>203.900000</ele>
2025        <time>2008-02-03T18:01:07Z</time>
2026        <course>83.099998</course>
2027        <speed>0.222222</speed>
2028        <geoidheight>-12.0</geoidheight>
2029        <fix>3d</fix>
2030        <sat>6</sat>
2031        <hdop>1.600000</hdop>
2032        <vdop>2.400000</vdop>
2033        <pdop>2.900000</pdop>
2034      </trkpt>
2035      <trkpt lat="-6.705733333" lon="-37.198906667">
2036        <ele>203.800000</ele>
2037        <time>2008-02-03T18:01:22Z</time>
2038        <course>83.099998</course>
2039        <speed>0.888889</speed>
2040        <geoidheight>-12.0</geoidheight>
2041        <fix>3d</fix>
2042        <sat>6</sat>
2043        <hdop>1.600000</hdop>
2044        <vdop>2.400000</vdop>
2045        <pdop>2.900000</pdop>
2046      </trkpt>
2047      <trkpt lat="-6.705771667" lon="-37.198926667">
2048        <ele>203.400000</ele>
2049        <time>2008-02-03T18:01:37Z</time>
2050        <course>106.599998</course>
2051        <speed>0.305556</speed>
2052        <geoidheight>-12.0</geoidheight>
2053        <fix>3d</fix>
2054        <sat>6</sat>
2055        <hdop>1.600000</hdop>
2056        <vdop>2.400000</vdop>
2057        <pdop>2.900000</pdop>
2058      </trkpt>
2059      <trkpt lat="-6.705771667" lon="-37.198900000">
2060        <ele>203.400000</ele>
2061        <time>2008-02-03T18:01:52Z</time>
2062        <course>160.500000</course>
2063        <speed>0.194444</speed>
2064        <geoidheight>-12.0</geoidheight>
2065        <fix>3d</fix>
2066        <sat>6</sat>
2067        <hdop>1.600000</hdop>
2068        <vdop>2.400000</vdop>
2069        <pdop>2.900000</pdop>
2070      </trkpt>
2071      <trkpt lat="-6.705758333" lon="-37.198933333">
2072        <ele>204.000000</ele>
2073        <time>2008-02-03T18:02:07Z</time>
2074        <course>189.100006</course>
2075        <speed>0.611111</speed>
2076        <geoidheight>-12.0</geoidheight>
2077        <fix>3d</fix>
2078        <sat>6</sat>
2079        <hdop>1.600000</hdop>
2080        <vdop>2.400000</vdop>
2081        <pdop>2.900000</pdop>
2082      </trkpt>
2083      <trkpt lat="-6.705768333" lon="-37.198933333">
2084        <ele>204.600000</ele>
2085        <time>2008-02-03T18:02:22Z</time>
2086        <course>172.300003</course>
2087        <speed>0.388889</speed>
2088        <geoidheight>-12.0</geoidheight>
2089        <fix>3d</fix>
2090        <sat>6</sat>
2091        <hdop>1.600000</hdop>
2092        <vdop>2.400000</vdop>
2093        <pdop>2.900000</pdop>
2094      </trkpt>
2095      <trkpt lat="-6.705750000" lon="-37.198935000">
2096        <ele>204.900000</ele>
2097        <time>2008-02-03T18:02:37Z</time>
2098        <course>167.899994</course>
2099        <speed>0.138889</speed>
2100        <geoidheight>-12.0</geoidheight>
2101        <fix>3d</fix>
2102        <sat>6</sat>
2103        <hdop>1.600000</hdop>
2104        <vdop>2.400000</vdop>
2105        <pdop>2.900000</pdop>
2106      </trkpt>
2107      <trkpt lat="-6.705750000" lon="-37.198928333">
2108        <ele>205.300000</ele>
2109        <time>2008-02-03T18:02:52Z</time>
2110        <course>167.899994</course>
2111        <speed>0.055556</speed>
2112        <geoidheight>-12.0</geoidheight>
2113        <fix>3d</fix>
2114        <sat>6</sat>
2115        <hdop>1.600000</hdop>
2116        <vdop>2.400000</vdop>
2117        <pdop>3.000000</pdop>
2118      </trkpt>
2119      <trkpt lat="-6.705746667" lon="-37.198925000">
2120        <ele>205.700000</ele>
2121        <time>2008-02-03T18:03:07Z</time>
2122        <course>167.899994</course>
2123        <speed>0.166667</speed>
2124        <geoidheight>-12.0</geoidheight>
2125        <fix>3d</fix>
2126        <sat>6</sat>
2127        <hdop>1.600000</hdop>
2128        <vdop>2.400000</vdop>
2129        <pdop>3.000000</pdop>
2130      </trkpt>
2131      <trkpt lat="-6.705760000" lon="-37.198921667">
2132        <ele>206.400000</ele>
2133        <time>2008-02-03T18:03:22Z</time>
2134        <course>149.000000</course>
2135        <speed>0.305556</speed>
2136        <geoidheight>-12.0</geoidheight>
2137        <fix>3d</fix>
2138        <sat>6</sat>
2139        <hdop>1.600000</hdop>
2140        <vdop>2.500000</vdop>
2141        <pdop>3.000000</pdop>
2142      </trkpt>
2143      <trkpt lat="-6.705761667" lon="-37.198920000">
2144        <ele>206.400000</ele>
2145        <time>2008-02-03T18:03:37Z</time>
2146        <course>173.800003</course>
2147        <speed>0.055556</speed>
2148        <geoidheight>-12.0</geoidheight>
2149        <fix>3d</fix>
2150        <sat>6</sat>
2151        <hdop>1.600000</hdop>
2152        <vdop>2.500000</vdop>
2153        <pdop>3.000000</pdop>
2154      </trkpt>
2155      <trkpt lat="-6.705773333" lon="-37.198946667">
2156        <ele>206.200000</ele>
2157        <time>2008-02-03T18:03:52Z</time>
2158        <course>198.399994</course>
2159        <speed>0.333333</speed>
2160        <geoidheight>-12.0</geoidheight>
2161        <fix>3d</fix>
2162        <sat>6</sat>
2163        <hdop>1.600000</hdop>
2164        <vdop>2.500000</vdop>
2165        <pdop>3.000000</pdop>
2166      </trkpt>
2167      <trkpt lat="-6.705781667" lon="-37.198918333">
2168        <ele>205.400000</ele>
2169        <time>2008-02-03T18:04:07Z</time>
2170        <course>166.699997</course>
2171        <speed>0.111111</speed>
2172        <geoidheight>-12.0</geoidheight>
2173        <fix>3d</fix>
2174        <sat>5</sat>
2175        <hdop>1.800000</hdop>
2176        <vdop>2.900000</vdop>
2177        <pdop>3.400000</pdop>
2178      </trkpt>
2179      <trkpt lat="-6.705790000" lon="-37.198921667">
2180        <ele>205.200000</ele>
2181        <time>2008-02-03T18:04:22Z</time>
2182        <course>190.399994</course>
2183        <speed>0.666667</speed>
2184        <geoidheight>-12.0</geoidheight>
2185        <fix>3d</fix>
2186        <sat>6</sat>
2187        <hdop>1.600000</hdop>
2188        <vdop>2.500000</vdop>
2189        <pdop>3.000000</pdop>
2190      </trkpt>
2191      <trkpt lat="-6.705776667" lon="-37.198913333">
2192        <ele>205.400000</ele>
2193        <time>2008-02-03T18:04:37Z</time>
2194        <course>190.399994</course>
2195        <speed>0.027778</speed>
2196        <geoidheight>-12.0</geoidheight>
2197        <fix>3d</fix>
2198        <sat>6</sat>
2199        <hdop>1.700000</hdop>
2200        <vdop>2.500000</vdop>
2201        <pdop>3.000000</pdop>
2202      </trkpt>
2203      <trkpt lat="-6.705793333" lon="-37.198918333">
2204        <ele>205.500000</ele>
2205        <time>2008-02-03T18:04:52Z</time>
2206        <course>190.399994</course>
2207        <speed>0.222222</speed>
2208        <geoidheight>-12.0</geoidheight>
2209        <fix>3d</fix>
2210        <sat>6</sat>
2211        <hdop>1.700000</hdop>
2212        <vdop>2.500000</vdop>
2213        <pdop>3.000000</pdop>
2214      </trkpt>
2215      <trkpt lat="-6.705805000" lon="-37.198916667">
2216        <ele>205.900000</ele>
2217        <time>2008-02-03T18:05:07Z</time>
2218        <course>165.100006</course>
2219        <speed>0.111111</speed>
2220        <geoidheight>-12.0</geoidheight>
2221        <fix>3d</fix>
2222        <sat>6</sat>
2223        <hdop>1.700000</hdop>
2224        <vdop>2.500000</vdop>
2225        <pdop>3.000000</pdop>
2226      </trkpt>
2227      <trkpt lat="-6.705825000" lon="-37.198916667">
2228        <ele>206.400000</ele>
2229        <time>2008-02-03T18:05:22Z</time>
2230        <course>176.800003</course>
2231        <speed>0.305556</speed>
2232        <geoidheight>-12.0</geoidheight>
2233        <fix>3d</fix>
2234        <sat>6</sat>
2235        <hdop>1.700000</hdop>
2236        <vdop>2.500000</vdop>
2237        <pdop>3.000000</pdop>
2238      </trkpt>
2239      <trkpt lat="-6.705828333" lon="-37.198905000">
2240        <ele>207.000000</ele>
2241        <time>2008-02-03T18:05:37Z</time>
2242        <course>153.500000</course>
2243        <speed>0.055556</speed>
2244        <geoidheight>-12.0</geoidheight>
2245        <fix>3d</fix>
2246        <sat>6</sat>
2247        <hdop>1.700000</hdop>
2248        <vdop>2.500000</vdop>
2249        <pdop>3.000000</pdop>
2250      </trkpt>
2251      <trkpt lat="-6.705826667" lon="-37.198911667">
2252        <ele>207.400000</ele>
2253        <time>2008-02-03T18:05:52Z</time>
2254        <course>153.500000</course>
2255        <speed>0.388889</speed>
2256        <geoidheight>-12.0</geoidheight>
2257        <fix>3d</fix>
2258        <sat>6</sat>
2259        <hdop>1.700000</hdop>
2260        <vdop>2.500000</vdop>
2261        <pdop>3.000000</pdop>
2262      </trkpt>
2263      <trkpt lat="-6.705818333" lon="-37.198921667">
2264        <ele>207.900000</ele>
2265        <time>2008-02-03T18:06:07Z</time>
2266        <course>167.600006</course>
2267        <speed>0.000000</speed>
2268        <geoidheight>-12.0</geoidheight>
2269        <fix>3d</fix>
2270        <sat>6</sat>
2271        <hdop>1.700000</hdop>
2272        <vdop>2.500000</vdop>
2273        <pdop>3.000000</pdop>
2274      </trkpt>
2275      <trkpt lat="-6.705776667" lon="-37.198940000">
2276        <ele>208.500000</ele>
2277        <time>2008-02-03T18:06:22Z</time>
2278        <course>167.600006</course>
2279        <speed>0.055556</speed>
2280        <geoidheight>-12.0</geoidheight>
2281        <fix>3d</fix>
2282        <sat>6</sat>
2283        <hdop>1.700000</hdop>
2284        <vdop>2.500000</vdop>
2285        <pdop>3.000000</pdop>
2286      </trkpt>
2287      <trkpt lat="-6.705775000" lon="-37.198956667">
2288        <ele>208.900000</ele>
2289        <time>2008-02-03T18:06:37Z</time>
2290        <course>167.600006</course>
2291        <speed>1.361111</speed>
2292        <geoidheight>-12.0</geoidheight>
2293        <fix>3d</fix>
2294        <sat>6</sat>
2295        <hdop>1.700000</hdop>
2296        <vdop>2.500000</vdop>
2297        <pdop>3.000000</pdop>
2298      </trkpt>
2299      <trkpt lat="-6.705826667" lon="-37.198993333">
2300        <ele>207.900000</ele>
2301        <time>2008-02-03T18:06:52Z</time>
2302        <course>167.600006</course>
2303        <speed>0.722222</speed>
2304        <geoidheight>-12.0</geoidheight>
2305        <fix>3d</fix>
2306        <sat>6</sat>
2307        <hdop>1.700000</hdop>
2308        <vdop>2.500000</vdop>
2309        <pdop>3.000000</pdop>
2310      </trkpt>
2311      <trkpt lat="-6.705825000" lon="-37.198925000">
2312        <ele>206.900000</ele>
2313        <time>2008-02-03T18:07:07Z</time>
2314        <course>167.600006</course>
2315        <speed>0.694444</speed>
2316        <geoidheight>-12.0</geoidheight>
2317        <fix>3d</fix>
2318        <sat>4</sat>
2319        <hdop>3.200000</hdop>
2320        <vdop>4.500000</vdop>
2321        <pdop>5.600000</pdop>
2322      </trkpt>
2323      <trkpt lat="-6.705785000" lon="-37.198911667">
2324        <ele>206.500000</ele>
2325        <time>2008-02-03T18:07:22Z</time>
2326        <course>160.300003</course>
2327        <speed>0.138889</speed>
2328        <geoidheight>-12.0</geoidheight>
2329        <fix>3d</fix>
2330        <sat>5</sat>
2331        <hdop>1.900000</hdop>
2332        <vdop>2.900000</vdop>
2333        <pdop>3.500000</pdop>
2334      </trkpt>
2335      <trkpt lat="-6.705751667" lon="-37.198960000">
2336        <ele>206.000000</ele>
2337        <time>2008-02-03T18:07:37Z</time>
2338        <course>279.200012</course>
2339        <speed>0.777778</speed>
2340        <geoidheight>-12.0</geoidheight>
2341        <fix>3d</fix>
2342        <sat>6</sat>
2343        <hdop>1.700000</hdop>
2344        <vdop>2.500000</vdop>
2345        <pdop>3.100000</pdop>
2346      </trkpt>
2347      <trkpt lat="-6.705760000" lon="-37.198980000">
2348        <ele>205.200000</ele>
2349        <time>2008-02-03T18:07:52Z</time>
2350        <course>279.200012</course>
2351        <speed>0.750000</speed>
2352        <geoidheight>-12.0</geoidheight>
2353        <fix>3d</fix>
2354        <sat>6</sat>
2355        <hdop>1.700000</hdop>
2356        <vdop>2.500000</vdop>
2357        <pdop>3.100000</pdop>
2358      </trkpt>
2359      <trkpt lat="-6.705868333" lon="-37.199086667">
2360        <ele>205.000000</ele>
2361        <time>2008-02-03T18:08:07Z</time>
2362        <course>236.699997</course>
2363        <speed>1.111111</speed>
2364        <geoidheight>-12.0</geoidheight>
2365        <fix>3d</fix>
2366        <sat>5</sat>
2367        <hdop>1.800000</hdop>
2368        <vdop>2.600000</vdop>
2369        <pdop>3.100000</pdop>
2370      </trkpt>
2371      <trkpt lat="-6.705835000" lon="-37.199368333">
2372        <ele>204.300000</ele>
2373        <time>2008-02-03T18:08:22Z</time>
2374        <course>338.899994</course>
2375        <speed>4.305555</speed>
2376        <geoidheight>-12.0</geoidheight>
2377        <fix>3d</fix>
2378        <sat>5</sat>
2379        <hdop>1.800000</hdop>
2380        <vdop>2.600000</vdop>
2381        <pdop>3.100000</pdop>
2382      </trkpt>
2383      <trkpt lat="-6.704896667" lon="-37.199408333">
2384        <ele>203.500000</ele>
2385        <time>2008-02-03T18:08:37Z</time>
2386        <course>357.200012</course>
2387        <speed>7.111111</speed>
2388        <geoidheight>-12.0</geoidheight>
2389        <fix>3d</fix>
2390        <sat>5</sat>
2391        <hdop>1.900000</hdop>
2392        <vdop>3.000000</vdop>
2393        <pdop>3.500000</pdop>
2394      </trkpt>
2395      <trkpt lat="-6.703983333" lon="-37.199903333">
2396        <ele>196.700000</ele>
2397        <time>2008-02-03T18:08:52Z</time>
2398        <course>332.299988</course>
2399        <speed>6.416667</speed>
2400        <geoidheight>-12.0</geoidheight>
2401        <fix>3d</fix>
2402        <sat>6</sat>
2403        <hdop>1.700000</hdop>
2404        <vdop>2.600000</vdop>
2405        <pdop>3.100000</pdop>
2406      </trkpt>
2407      <trkpt lat="-6.703160000" lon="-37.200481667">
2408        <ele>200.200000</ele>
2409        <time>2008-02-03T18:09:07Z</time>
2410        <course>325.000000</course>
2411        <speed>6.722222</speed>
2412        <geoidheight>-12.0</geoidheight>
2413        <fix>3d</fix>
2414        <sat>5</sat>
2415        <hdop>1.800000</hdop>
2416        <vdop>2.600000</vdop>
2417        <pdop>3.200000</pdop>
2418      </trkpt>
2419      <trkpt lat="-6.702075000" lon="-37.201163333">
2420        <ele>196.700000</ele>
2421        <time>2008-02-03T18:09:22Z</time>
2422        <course>320.700012</course>
2423        <speed>10.833333</speed>
2424        <geoidheight>-12.0</geoidheight>
2425        <fix>3d</fix>
2426        <sat>6</sat>
2427        <hdop>1.700000</hdop>
2428        <vdop>2.600000</vdop>
2429        <pdop>3.100000</pdop>
2430      </trkpt>
2431      <trkpt lat="-6.701110000" lon="-37.201676667">
2432        <ele>199.100000</ele>
2433        <time>2008-02-03T18:09:37Z</time>
2434        <course>327.100006</course>
2435        <speed>6.138889</speed>
2436        <geoidheight>-12.0</geoidheight>
2437        <fix>3d</fix>
2438        <sat>6</sat>
2439        <hdop>1.700000</hdop>
2440        <vdop>2.600000</vdop>
2441        <pdop>3.100000</pdop>
2442      </trkpt>
2443      <trkpt lat="-6.700125000" lon="-37.202203333">
2444        <ele>199.900000</ele>
2445        <time>2008-02-03T18:09:52Z</time>
2446        <course>333.299988</course>
2447        <speed>9.388889</speed>
2448        <geoidheight>-12.0</geoidheight>
2449        <fix>3d</fix>
2450        <sat>6</sat>
2451        <hdop>1.700000</hdop>
2452        <vdop>2.600000</vdop>
2453        <pdop>3.100000</pdop>
2454      </trkpt>
2455      <trkpt lat="-6.699053333" lon="-37.202438333">
2456        <ele>201.600000</ele>
2457        <time>2008-02-03T18:10:07Z</time>
2458        <course>356.500000</course>
2459        <speed>5.472222</speed>
2460        <geoidheight>-12.0</geoidheight>
2461        <fix>3d</fix>
2462        <sat>6</sat>
2463        <hdop>1.700000</hdop>
2464        <vdop>2.600000</vdop>
2465        <pdop>3.100000</pdop>
2466      </trkpt>
2467      <trkpt lat="-6.698263333" lon="-37.202400000">
2468        <ele>202.200000</ele>
2469        <time>2008-02-03T18:10:22Z</time>
2470        <course>8.000000</course>
2471        <speed>3.722222</speed>
2472        <geoidheight>-12.0</geoidheight>
2473        <fix>3d</fix>
2474        <sat>6</sat>
2475        <hdop>1.700000</hdop>
2476        <vdop>2.600000</vdop>
2477        <pdop>3.100000</pdop>
2478      </trkpt>
2479      <trkpt lat="-6.697760000" lon="-37.202370000">
2480        <ele>201.700000</ele>
2481        <time>2008-02-03T18:10:37Z</time>
2482        <course>5.200000</course>
2483        <speed>4.000000</speed>
2484        <geoidheight>-12.0</geoidheight>
2485        <fix>3d</fix>
2486        <sat>6</sat>
2487        <hdop>1.700000</hdop>
2488        <vdop>2.600000</vdop>
2489        <pdop>3.100000</pdop>
2490      </trkpt>
2491      <trkpt lat="-6.697153333" lon="-37.202328333">
2492        <ele>201.200000</ele>
2493        <time>2008-02-03T18:10:52Z</time>
2494        <course>17.299999</course>
2495        <speed>5.388889</speed>
2496        <geoidheight>-12.0</geoidheight>
2497        <fix>3d</fix>
2498        <sat>6</sat>
2499        <hdop>1.700000</hdop>
2500        <vdop>2.600000</vdop>
2501        <pdop>3.100000</pdop>
2502      </trkpt>
2503      <trkpt lat="-6.696355000" lon="-37.202333333">
2504        <ele>202.600000</ele>
2505        <time>2008-02-03T18:11:07Z</time>
2506        <course>346.600006</course>
2507        <speed>4.916667</speed>
2508        <geoidheight>-12.0</geoidheight>
2509        <fix>3d</fix>
2510        <sat>6</sat>
2511        <hdop>1.700000</hdop>
2512        <vdop>2.600000</vdop>
2513        <pdop>3.100000</pdop>
2514      </trkpt>
2515      <trkpt lat="-6.695726667" lon="-37.202568333">
2516        <ele>202.300000</ele>
2517        <time>2008-02-03T18:11:22Z</time>
2518        <course>337.200012</course>
2519        <speed>4.972222</speed>
2520        <geoidheight>-12.0</geoidheight>
2521        <fix>3d</fix>
2522        <sat>6</sat>
2523        <hdop>1.700000</hdop>
2524        <vdop>2.600000</vdop>
2525        <pdop>3.100000</pdop>
2526      </trkpt>
2527      <trkpt lat="-6.695081667" lon="-37.202856667">
2528        <ele>201.300000</ele>
2529        <time>2008-02-03T18:11:37Z</time>
2530        <course>332.700012</course>
2531        <speed>5.138889</speed>
2532        <geoidheight>-12.0</geoidheight>
2533        <fix>3d</fix>
2534        <sat>6</sat>
2535        <hdop>1.700000</hdop>
2536        <vdop>2.600000</vdop>
2537        <pdop>3.100000</pdop>
2538      </trkpt>
2539      <trkpt lat="-6.694385000" lon="-37.203228333">
2540        <ele>202.200000</ele>
2541        <time>2008-02-03T18:11:52Z</time>
2542        <course>324.399994</course>
2543        <speed>4.166667</speed>
2544        <geoidheight>-12.0</geoidheight>
2545        <fix>3d</fix>
2546        <sat>6</sat>
2547        <hdop>1.700000</hdop>
2548        <vdop>2.600000</vdop>
2549        <pdop>3.100000</pdop>
2550      </trkpt>
2551      <trkpt lat="-6.694001667" lon="-37.203538333">
2552        <ele>203.100000</ele>
2553        <time>2008-02-03T18:12:07Z</time>
2554        <course>317.700012</course>
2555        <speed>4.666667</speed>
2556        <geoidheight>-12.0</geoidheight>
2557        <fix>3d</fix>
2558        <sat>6</sat>
2559        <hdop>1.700000</hdop>
2560        <vdop>2.600000</vdop>
2561        <pdop>3.100000</pdop>
2562      </trkpt>
2563      <trkpt lat="-6.693425000" lon="-37.203773333">
2564        <ele>203.600000</ele>
2565        <time>2008-02-03T18:12:22Z</time>
2566        <course>345.100006</course>
2567        <speed>4.194445</speed>
2568        <geoidheight>-12.0</geoidheight>
2569        <fix>3d</fix>
2570        <sat>6</sat>
2571        <hdop>1.700000</hdop>
2572        <vdop>2.600000</vdop>
2573        <pdop>3.100000</pdop>
2574      </trkpt>
2575      <trkpt lat="-6.692761667" lon="-37.203960000">
2576        <ele>203.500000</ele>
2577        <time>2008-02-03T18:12:37Z</time>
2578        <course>347.100006</course>
2579        <speed>4.944445</speed>
2580        <geoidheight>-12.0</geoidheight>
2581        <fix>3d</fix>
2582        <sat>6</sat>
2583        <hdop>1.700000</hdop>
2584        <vdop>2.600000</vdop>
2585        <pdop>3.200000</pdop>
2586      </trkpt>
2587      <trkpt lat="-6.692146667" lon="-37.204215000">
2588        <ele>204.800000</ele>
2589        <time>2008-02-03T18:12:52Z</time>
2590        <course>322.500000</course>
2591        <speed>5.638889</speed>
2592        <geoidheight>-12.0</geoidheight>
2593        <fix>3d</fix>
2594        <sat>6</sat>
2595        <hdop>1.700000</hdop>
2596        <vdop>2.600000</vdop>
2597        <pdop>3.200000</pdop>
2598      </trkpt>
2599      <trkpt lat="-6.691821667" lon="-37.204646667">
2600        <ele>203.300000</ele>
2601        <time>2008-02-03T18:13:07Z</time>
2602        <course>295.200012</course>
2603        <speed>4.361111</speed>
2604        <geoidheight>-12.0</geoidheight>
2605        <fix>3d</fix>
2606        <sat>5</sat>
2607        <hdop>1.800000</hdop>
2608        <vdop>2.600000</vdop>
2609        <pdop>3.200000</pdop>
2610      </trkpt>
2611      <trkpt lat="-6.691416667" lon="-37.205160000">
2612        <ele>203.500000</ele>
2613        <time>2008-02-03T18:13:22Z</time>
2614        <course>327.000000</course>
2615        <speed>5.666667</speed>
2616        <geoidheight>-12.0</geoidheight>
2617        <fix>3d</fix>
2618        <sat>6</sat>
2619        <hdop>1.700000</hdop>
2620        <vdop>2.600000</vdop>
2621        <pdop>3.200000</pdop>
2622      </trkpt>
2623      <trkpt lat="-6.690573333" lon="-37.205375000">
2624        <ele>203.800000</ele>
2625        <time>2008-02-03T18:13:37Z</time>
2626        <course>341.399994</course>
2627        <speed>6.638889</speed>
2628        <geoidheight>-12.0</geoidheight>
2629        <fix>3d</fix>
2630        <sat>6</sat>
2631        <hdop>1.700000</hdop>
2632        <vdop>2.600000</vdop>
2633        <pdop>3.200000</pdop>
2634      </trkpt>
2635      <trkpt lat="-6.689858333" lon="-37.205601667">
2636        <ele>204.300000</ele>
2637        <time>2008-02-03T18:13:52Z</time>
2638        <course>323.700012</course>
2639        <speed>5.250000</speed>
2640        <geoidheight>-12.0</geoidheight>
2641        <fix>3d</fix>
2642        <sat>6</sat>
2643        <hdop>1.700000</hdop>
2644        <vdop>2.600000</vdop>
2645        <pdop>3.200000</pdop>
2646      </trkpt>
2647      <trkpt lat="-6.689320000" lon="-37.206031667">
2648        <ele>204.600000</ele>
2649        <time>2008-02-03T18:14:07Z</time>
2650        <course>326.399994</course>
2651        <speed>5.083333</speed>
2652        <geoidheight>-12.0</geoidheight>
2653        <fix>3d</fix>
2654        <sat>6</sat>
2655        <hdop>1.700000</hdop>
2656        <vdop>2.600000</vdop>
2657        <pdop>3.200000</pdop>
2658      </trkpt>
2659      <trkpt lat="-6.688866667" lon="-37.206445000">
2660        <ele>204.900000</ele>
2661        <time>2008-02-03T18:14:22Z</time>
2662        <course>315.500000</course>
2663        <speed>3.416667</speed>
2664        <geoidheight>-12.0</geoidheight>
2665        <fix>3d</fix>
2666        <sat>6</sat>
2667        <hdop>1.700000</hdop>
2668        <vdop>2.600000</vdop>
2669        <pdop>3.200000</pdop>
2670      </trkpt>
2671      <trkpt lat="-6.688095000" lon="-37.206876667">
2672        <ele>204.200000</ele>
2673        <time>2008-02-03T18:14:37Z</time>
2674        <course>342.200012</course>
2675        <speed>7.583333</speed>
2676        <geoidheight>-12.0</geoidheight>
2677        <fix>3d</fix>
2678        <sat>6</sat>
2679        <hdop>1.700000</hdop>
2680        <vdop>2.600000</vdop>
2681        <pdop>3.200000</pdop>
2682      </trkpt>
2683      <trkpt lat="-6.687266667" lon="-37.207503333">
2684        <ele>205.300000</ele>
2685        <time>2008-02-03T18:14:52Z</time>
2686        <course>314.600006</course>
2687        <speed>9.250000</speed>
2688        <geoidheight>-12.0</geoidheight>
2689        <fix>3d</fix>
2690        <sat>5</sat>
2691        <hdop>1.800000</hdop>
2692        <vdop>2.700000</vdop>
2693        <pdop>3.200000</pdop>
2694      </trkpt>
2695      <trkpt lat="-6.686285000" lon="-37.207615000">
2696        <ele>204.300000</ele>
2697        <time>2008-02-03T18:15:07Z</time>
2698        <course>3.000000</course>
2699        <speed>8.138889</speed>
2700        <geoidheight>-12.0</geoidheight>
2701        <fix>3d</fix>
2702        <sat>6</sat>
2703        <hdop>1.800000</hdop>
2704        <vdop>2.600000</vdop>
2705        <pdop>3.200000</pdop>
2706      </trkpt>
2707      <trkpt lat="-6.685328333" lon="-37.207570000">
2708        <ele>204.700000</ele>
2709        <time>2008-02-03T18:15:22Z</time>
2710        <course>349.899994</course>
2711        <speed>7.305555</speed>
2712        <geoidheight>-12.0</geoidheight>
2713        <fix>3d</fix>
2714        <sat>6</sat>
2715        <hdop>1.800000</hdop>
2716        <vdop>2.600000</vdop>
2717        <pdop>3.200000</pdop>
2718      </trkpt>
2719      <trkpt lat="-6.684405000" lon="-37.207750000">
2720        <ele>204.500000</ele>
2721        <time>2008-02-03T18:15:37Z</time>
2722        <course>347.299988</course>
2723        <speed>8.916667</speed>
2724        <geoidheight>-12.0</geoidheight>
2725        <fix>3d</fix>
2726        <sat>6</sat>
2727        <hdop>1.800000</hdop>
2728        <vdop>2.600000</vdop>
2729        <pdop>3.200000</pdop>
2730      </trkpt>
2731      <trkpt lat="-6.683343333" lon="-37.207841667">
2732        <ele>204.700000</ele>
2733        <time>2008-02-03T18:15:52Z</time>
2734        <course>321.500000</course>
2735        <speed>5.500000</speed>
2736        <geoidheight>-12.0</geoidheight>
2737        <fix>3d</fix>
2738        <sat>6</sat>
2739        <hdop>1.800000</hdop>
2740        <vdop>2.600000</vdop>
2741        <pdop>3.200000</pdop>
2742      </trkpt>
2743      <trkpt lat="-6.682788333" lon="-37.207990000">
2744        <ele>207.900000</ele>
2745        <time>2008-02-03T18:16:07Z</time>
2746        <course>346.000000</course>
2747        <speed>3.027778</speed>
2748        <geoidheight>-12.0</geoidheight>
2749        <fix>3d</fix>
2750        <sat>5</sat>
2751        <hdop>1.800000</hdop>
2752        <vdop>2.700000</vdop>
2753        <pdop>3.300000</pdop>
2754      </trkpt>
2755      <trkpt lat="-6.682651667" lon="-37.208021667">
2756        <ele>199.500000</ele>
2757        <time>2008-02-03T18:16:22Z</time>
2758        <course>350.500000</course>
2759        <speed>0.250000</speed>
2760        <geoidheight>-12.0</geoidheight>
2761        <fix>3d</fix>
2762        <sat>6</sat>
2763        <hdop>1.800000</hdop>
2764        <vdop>2.600000</vdop>
2765        <pdop>3.200000</pdop>
2766      </trkpt>
2767      <trkpt lat="-6.682643333" lon="-37.207976667">
2768        <ele>199.500000</ele>
2769        <time>2008-02-03T18:16:37Z</time>
2770        <course>24.000000</course>
2771        <speed>0.027778</speed>
2772        <geoidheight>-12.0</geoidheight>
2773        <fix>3d</fix>
2774        <sat>6</sat>
2775        <hdop>1.800000</hdop>
2776        <vdop>2.600000</vdop>
2777        <pdop>3.200000</pdop>
2778      </trkpt>
2779      <trkpt lat="-6.682706667" lon="-37.208026667">
2780        <ele>198.300000</ele>
2781        <time>2008-02-03T18:16:52Z</time>
2782        <course>57.700001</course>
2783        <speed>0.388889</speed>
2784        <geoidheight>-12.0</geoidheight>
2785        <fix>3d</fix>
2786        <sat>6</sat>
2787        <hdop>1.800000</hdop>
2788        <vdop>2.600000</vdop>
2789        <pdop>3.200000</pdop>
2790      </trkpt>
2791      <trkpt lat="-6.682720000" lon="-37.208036667">
2792        <ele>198.500000</ele>
2793        <time>2008-02-03T18:17:07Z</time>
2794        <course>57.700001</course>
2795        <speed>0.527778</speed>
2796        <geoidheight>-12.0</geoidheight>
2797        <fix>3d</fix>
2798        <sat>6</sat>
2799        <hdop>1.800000</hdop>
2800        <vdop>2.600000</vdop>
2801        <pdop>3.200000</pdop>
2802      </trkpt>
2803      <trkpt lat="-6.682728333" lon="-37.208021667">
2804        <ele>198.900000</ele>
2805        <time>2008-02-03T18:17:22Z</time>
2806        <course>113.599998</course>
2807        <speed>0.222222</speed>
2808        <geoidheight>-12.0</geoidheight>
2809        <fix>3d</fix>
2810        <sat>6</sat>
2811        <hdop>1.800000</hdop>
2812        <vdop>2.600000</vdop>
2813        <pdop>3.200000</pdop>
2814      </trkpt>
2815      <trkpt lat="-6.682710000" lon="-37.208020000">
2816        <ele>199.500000</ele>
2817        <time>2008-02-03T18:17:37Z</time>
2818        <course>113.599998</course>
2819        <speed>0.111111</speed>
2820        <geoidheight>-12.0</geoidheight>
2821        <fix>3d</fix>
2822        <sat>6</sat>
2823        <hdop>1.800000</hdop>
2824        <vdop>2.600000</vdop>
2825        <pdop>3.200000</pdop>
2826      </trkpt>
2827      <trkpt lat="-6.682713333" lon="-37.208006667">
2828        <ele>200.000000</ele>
2829        <time>2008-02-03T18:17:52Z</time>
2830        <course>113.599998</course>
2831        <speed>0.388889</speed>
2832        <geoidheight>-12.0</geoidheight>
2833        <fix>3d</fix>
2834        <sat>6</sat>
2835        <hdop>1.800000</hdop>
2836        <vdop>2.600000</vdop>
2837        <pdop>3.200000</pdop>
2838      </trkpt>
2839      <trkpt lat="-6.682703333" lon="-37.208026667">
2840        <ele>200.800000</ele>
2841        <time>2008-02-03T18:18:07Z</time>
2842        <course>201.500000</course>
2843        <speed>0.250000</speed>
2844        <geoidheight>-12.0</geoidheight>
2845        <fix>3d</fix>
2846        <sat>6</sat>
2847        <hdop>1.800000</hdop>
2848        <vdop>2.600000</vdop>
2849        <pdop>3.200000</pdop>
2850      </trkpt>
2851      <trkpt lat="-6.682718333" lon="-37.208021667">
2852        <ele>201.600000</ele>
2853        <time>2008-02-03T18:18:22Z</time>
2854        <course>201.500000</course>
2855        <speed>0.083333</speed>
2856        <geoidheight>-12.0</geoidheight>
2857        <fix>3d</fix>
2858        <sat>6</sat>
2859        <hdop>1.800000</hdop>
2860        <vdop>2.600000</vdop>
2861        <pdop>3.200000</pdop>
2862      </trkpt>
2863      <trkpt lat="-6.682753333" lon="-37.208016667">
2864        <ele>201.800000</ele>
2865        <time>2008-02-03T18:18:37Z</time>
2866        <course>182.800003</course>
2867        <speed>0.083333</speed>
2868        <geoidheight>-12.0</geoidheight>
2869        <fix>3d</fix>
2870        <sat>6</sat>
2871        <hdop>1.800000</hdop>
2872        <vdop>2.600000</vdop>
2873        <pdop>3.200000</pdop>
2874      </trkpt>
2875      <trkpt lat="-6.682695000" lon="-37.208011667">
2876        <ele>202.400000</ele>
2877        <time>2008-02-03T18:18:52Z</time>
2878        <course>180.500000</course>
2879        <speed>0.527778</speed>
2880        <geoidheight>-12.0</geoidheight>
2881        <fix>3d</fix>
2882        <sat>6</sat>
2883        <hdop>1.800000</hdop>
2884        <vdop>2.600000</vdop>
2885        <pdop>3.200000</pdop>
2886      </trkpt>
2887      <trkpt lat="-6.682700000" lon="-37.208013333">
2888        <ele>202.500000</ele>
2889        <time>2008-02-03T18:19:07Z</time>
2890        <course>180.500000</course>
2891        <speed>0.111111</speed>
2892        <geoidheight>-12.0</geoidheight>
2893        <fix>3d</fix>
2894        <sat>6</sat>
2895        <hdop>1.800000</hdop>
2896        <vdop>2.600000</vdop>
2897        <pdop>3.200000</pdop>
2898      </trkpt>
2899      <trkpt lat="-6.682736667" lon="-37.208001667">
2900        <ele>202.600000</ele>
2901        <time>2008-02-03T18:19:22Z</time>
2902        <course>176.300003</course>
2903        <speed>0.250000</speed>
2904        <geoidheight>-12.0</geoidheight>
2905        <fix>3d</fix>
2906        <sat>6</sat>
2907        <hdop>1.800000</hdop>
2908        <vdop>2.600000</vdop>
2909        <pdop>3.200000</pdop>
2910      </trkpt>
2911      <trkpt lat="-6.682751667" lon="-37.208020000">
2912        <ele>202.800000</ele>
2913        <time>2008-02-03T18:19:37Z</time>
2914        <course>176.300003</course>
2915        <speed>0.250000</speed>
2916        <geoidheight>-12.0</geoidheight>
2917        <fix>3d</fix>
2918        <sat>6</sat>
2919        <hdop>1.800000</hdop>
2920        <vdop>2.600000</vdop>
2921        <pdop>3.200000</pdop>
2922      </trkpt>
2923      <trkpt lat="-6.682783333" lon="-37.208043333">
2924        <ele>202.700000</ele>
2925        <time>2008-02-03T18:19:52Z</time>
2926        <course>203.800003</course>
2927        <speed>0.138889</speed>
2928        <geoidheight>-12.0</geoidheight>
2929        <fix>3d</fix>
2930        <sat>6</sat>
2931        <hdop>1.800000</hdop>
2932        <vdop>2.600000</vdop>
2933        <pdop>3.200000</pdop>
2934      </trkpt>
2935      <trkpt lat="-6.682661667" lon="-37.208030000">
2936        <ele>201.900000</ele>
2937        <time>2008-02-03T18:20:07Z</time>
2938        <course>326.200012</course>
2939        <speed>0.083333</speed>
2940        <geoidheight>-12.0</geoidheight>
2941        <fix>3d</fix>
2942        <sat>6</sat>
2943        <hdop>1.800000</hdop>
2944        <vdop>2.600000</vdop>
2945        <pdop>3.200000</pdop>
2946      </trkpt>
2947      <trkpt lat="-6.682675000" lon="-37.208030000">
2948        <ele>201.600000</ele>
2949        <time>2008-02-03T18:20:22Z</time>
2950        <course>326.200012</course>
2951        <speed>0.944444</speed>
2952        <geoidheight>-12.0</geoidheight>
2953        <fix>3d</fix>
2954        <sat>6</sat>
2955        <hdop>1.800000</hdop>
2956        <vdop>2.600000</vdop>
2957        <pdop>3.200000</pdop>
2958      </trkpt>
2959      <trkpt lat="-6.682661667" lon="-37.208028333">
2960        <ele>201.900000</ele>
2961        <time>2008-02-03T18:20:37Z</time>
2962        <course>326.200012</course>
2963        <speed>0.083333</speed>
2964        <geoidheight>-12.0</geoidheight>
2965        <fix>3d</fix>
2966        <sat>6</sat>
2967        <hdop>1.800000</hdop>
2968        <vdop>2.600000</vdop>
2969        <pdop>3.200000</pdop>
2970      </trkpt>
2971      <trkpt lat="-6.682668333" lon="-37.208023333">
2972        <ele>202.100000</ele>
2973        <time>2008-02-03T18:20:52Z</time>
2974        <course>326.200012</course>
2975        <speed>0.138889</speed>
2976        <geoidheight>-12.0</geoidheight>
2977        <fix>3d</fix>
2978        <sat>6</sat>
2979        <hdop>1.800000</hdop>
2980        <vdop>2.600000</vdop>
2981        <pdop>3.200000</pdop>
2982      </trkpt>
2983      <trkpt lat="-6.682663333" lon="-37.208018333">
2984        <ele>202.700000</ele>
2985        <time>2008-02-03T18:21:07Z</time>
2986        <course>326.200012</course>
2987        <speed>0.194444</speed>
2988        <geoidheight>-12.0</geoidheight>
2989        <fix>3d</fix>
2990        <sat>6</sat>
2991        <hdop>1.800000</hdop>
2992        <vdop>2.600000</vdop>
2993        <pdop>3.200000</pdop>
2994      </trkpt>
2995      <trkpt lat="-6.682653333" lon="-37.208018333">
2996        <ele>202.700000</ele>
2997        <time>2008-02-03T18:21:22Z</time>
2998        <course>326.200012</course>
2999        <speed>0.194444</speed>
3000        <geoidheight>-12.0</geoidheight>
3001        <fix>3d</fix>
3002        <sat>6</sat>
3003        <hdop>1.800000</hdop>
3004        <vdop>2.600000</vdop>
3005        <pdop>3.200000</pdop>
3006      </trkpt>
3007      <trkpt lat="-6.682705000" lon="-37.208023333">
3008        <ele>202.500000</ele>
3009        <time>2008-02-03T18:21:37Z</time>
3010        <course>353.399994</course>
3011        <speed>0.194444</speed>
3012        <geoidheight>-12.0</geoidheight>
3013        <fix>3d</fix>
3014        <sat>6</sat>
3015        <hdop>1.800000</hdop>
3016        <vdop>2.600000</vdop>
3017        <pdop>3.200000</pdop>
3018      </trkpt>
3019      <trkpt lat="-6.682721667" lon="-37.208018333">
3020        <ele>202.500000</ele>
3021        <time>2008-02-03T18:21:52Z</time>
3022        <course>65.900002</course>
3023        <speed>0.111111</speed>
3024        <geoidheight>-12.0</geoidheight>
3025        <fix>3d</fix>
3026        <sat>6</sat>
3027        <hdop>1.800000</hdop>
3028        <vdop>2.600000</vdop>
3029        <pdop>3.200000</pdop>
3030      </trkpt>
3031      <trkpt lat="-6.682705000" lon="-37.208020000">
3032        <ele>202.700000</ele>
3033        <time>2008-02-03T18:22:07Z</time>
3034        <course>65.900002</course>
3035        <speed>0.138889</speed>
3036        <geoidheight>-12.0</geoidheight>
3037        <fix>3d</fix>
3038        <sat>6</sat>
3039        <hdop>1.800000</hdop>
3040        <vdop>2.600000</vdop>
3041        <pdop>3.200000</pdop>
3042      </trkpt>
3043      <trkpt lat="-6.682706667" lon="-37.208010000">
3044        <ele>202.900000</ele>
3045        <time>2008-02-03T18:22:22Z</time>
3046        <course>17.900000</course>
3047        <speed>0.138889</speed>
3048        <geoidheight>-12.0</geoidheight>
3049        <fix>3d</fix>
3050        <sat>6</sat>
3051        <hdop>1.800000</hdop>
3052        <vdop>2.600000</vdop>
3053        <pdop>3.200000</pdop>
3054      </trkpt>
3055      <trkpt lat="-6.682705000" lon="-37.208013333">
3056        <ele>202.700000</ele>
3057        <time>2008-02-03T18:22:37Z</time>
3058        <course>17.900000</course>
3059        <speed>0.416667</speed>
3060        <geoidheight>-12.0</geoidheight>
3061        <fix>3d</fix>
3062        <sat>6</sat>
3063        <hdop>1.800000</hdop>
3064        <vdop>2.600000</vdop>
3065        <pdop>3.200000</pdop>
3066      </trkpt>
3067      <trkpt lat="-6.682683333" lon="-37.208016667">
3068        <ele>202.500000</ele>
3069        <time>2008-02-03T18:22:52Z</time>
3070        <course>358.000000</course>
3071        <speed>0.194444</speed>
3072        <geoidheight>-12.0</geoidheight>
3073        <fix>3d</fix>
3074        <sat>6</sat>
3075        <hdop>1.800000</hdop>
3076        <vdop>2.600000</vdop>
3077        <pdop>3.200000</pdop>
3078      </trkpt>
3079      <trkpt lat="-6.682673333" lon="-37.207981667">
3080        <ele>202.700000</ele>
3081        <time>2008-02-03T18:23:07Z</time>
3082        <course>39.000000</course>
3083        <speed>0.305556</speed>
3084        <geoidheight>-12.0</geoidheight>
3085        <fix>3d</fix>
3086        <sat>5</sat>
3087        <hdop>1.800000</hdop>
3088        <vdop>2.800000</vdop>
3089        <pdop>3.300000</pdop>
3090      </trkpt>
3091      <trkpt lat="-6.682676667" lon="-37.207985000">
3092        <ele>202.600000</ele>
3093        <time>2008-02-03T18:23:22Z</time>
3094        <course>29.299999</course>
3095        <speed>0.055556</speed>
3096        <geoidheight>-12.0</geoidheight>
3097        <fix>3d</fix>
3098        <sat>6</sat>
3099        <hdop>1.800000</hdop>
3100        <vdop>2.600000</vdop>
3101        <pdop>3.200000</pdop>
3102      </trkpt>
3103      <trkpt lat="-6.682720000" lon="-37.208000000">
3104        <ele>202.200000</ele>
3105        <time>2008-02-03T18:23:37Z</time>
3106        <course>104.800003</course>
3107        <speed>0.250000</speed>
3108        <geoidheight>-12.0</geoidheight>
3109        <fix>3d</fix>
3110        <sat>6</sat>
3111        <hdop>1.800000</hdop>
3112        <vdop>2.600000</vdop>
3113        <pdop>3.200000</pdop>
3114      </trkpt>
3115      <trkpt lat="-6.682671667" lon="-37.208016667">
3116        <ele>201.600000</ele>
3117        <time>2008-02-03T18:23:52Z</time>
3118        <course>352.000000</course>
3119        <speed>0.416667</speed>
3120        <geoidheight>-12.0</geoidheight>
3121        <fix>3d</fix>
3122        <sat>6</sat>
3123        <hdop>1.800000</hdop>
3124        <vdop>2.600000</vdop>
3125        <pdop>3.200000</pdop>
3126      </trkpt>
3127      <trkpt lat="-6.682580000" lon="-37.208008333">
3128        <ele>201.800000</ele>
3129        <time>2008-02-03T18:24:07Z</time>
3130        <course>357.100006</course>
3131        <speed>0.861111</speed>
3132        <geoidheight>-12.0</geoidheight>
3133        <fix>3d</fix>
3134        <sat>6</sat>
3135        <hdop>1.800000</hdop>
3136        <vdop>2.600000</vdop>
3137        <pdop>3.200000</pdop>
3138      </trkpt>
3139      <trkpt lat="-6.682490000" lon="-37.208021667">
3140        <ele>201.900000</ele>
3141        <time>2008-02-03T18:24:22Z</time>
3142        <course>14.300000</course>
3143        <speed>1.000000</speed>
3144        <geoidheight>-12.0</geoidheight>
3145        <fix>3d</fix>
3146        <sat>6</sat>
3147        <hdop>1.800000</hdop>
3148        <vdop>2.600000</vdop>
3149        <pdop>3.200000</pdop>
3150      </trkpt>
3151      <trkpt lat="-6.682375000" lon="-37.208080000">
3152        <ele>199.900000</ele>
3153        <time>2008-02-03T18:24:42Z</time>
3154        <course>342.700012</course>
3155        <speed>0.416667</speed>
3156        <geoidheight>-12.0</geoidheight>
3157        <fix>3d</fix>
3158        <sat>6</sat>
3159        <hdop>1.700000</hdop>
3160        <vdop>2.600000</vdop>
3161        <pdop>3.200000</pdop>
3162      </trkpt>
3163      <trkpt lat="-6.682313333" lon="-37.208081667">
3164        <ele>175.100000</ele>
3165        <time>2008-02-03T18:24:57Z</time>
3166        <course>233.100006</course>
3167        <speed>1.111111</speed>
3168        <geoidheight>-12.0</geoidheight>
3169        <fix>3d</fix>
3170        <sat>5</sat>
3171        <hdop>2.700000</hdop>
3172        <vdop>3.500000</vdop>
3173        <pdop>4.500000</pdop>
3174      </trkpt>
3175      <trkpt lat="-6.682221667" lon="-37.208141667">
3176        <ele>185.400000</ele>
3177        <time>2008-02-03T18:25:12Z</time>
3178        <course>275.000000</course>
3179        <speed>0.444444</speed>
3180        <geoidheight>-12.0</geoidheight>
3181        <fix>3d</fix>
3182        <sat>6</sat>
3183        <hdop>1.700000</hdop>
3184        <vdop>2.600000</vdop>
3185        <pdop>3.200000</pdop>
3186      </trkpt>
3187      <trkpt lat="-6.682238333" lon="-37.208255000">
3188        <ele>188.600000</ele>
3189        <time>2008-02-03T18:25:27Z</time>
3190        <course>252.600006</course>
3191        <speed>0.222222</speed>
3192        <geoidheight>-12.0</geoidheight>
3193        <fix>3d</fix>
3194        <sat>5</sat>
3195        <hdop>2.700000</hdop>
3196        <vdop>3.500000</vdop>
3197        <pdop>4.400000</pdop>
3198      </trkpt>
3199      <trkpt lat="-6.682285000" lon="-37.208188333">
3200        <ele>190.200000</ele>
3201        <time>2008-02-03T18:25:42Z</time>
3202        <course>181.800003</course>
3203        <speed>0.250000</speed>
3204        <geoidheight>-12.0</geoidheight>
3205        <fix>3d</fix>
3206        <sat>6</sat>
3207        <hdop>1.700000</hdop>
3208        <vdop>2.600000</vdop>
3209        <pdop>3.200000</pdop>
3210      </trkpt>
3211      <trkpt lat="-6.682223333" lon="-37.208158333">
3212        <ele>188.900000</ele>
3213        <time>2008-02-03T18:25:57Z</time>
3214        <course>181.800003</course>
3215        <speed>0.138889</speed>
3216        <geoidheight>-12.0</geoidheight>
3217        <fix>3d</fix>
3218        <sat>5</sat>
3219        <hdop>2.700000</hdop>
3220        <vdop>3.400000</vdop>
3221        <pdop>4.400000</pdop>
3222      </trkpt>
3223      <trkpt lat="-6.682213333" lon="-37.208133333">
3224        <ele>186.900000</ele>
3225        <time>2008-02-03T18:26:12Z</time>
3226        <course>181.800003</course>
3227        <speed>0.222222</speed>
3228        <geoidheight>-12.0</geoidheight>
3229        <fix>3d</fix>
3230        <sat>6</sat>
3231        <hdop>1.700000</hdop>
3232        <vdop>2.600000</vdop>
3233        <pdop>3.100000</pdop>
3234      </trkpt>
3235      <trkpt lat="-6.682185000" lon="-37.208121667">
3236        <ele>187.900000</ele>
3237        <time>2008-02-03T18:26:27Z</time>
3238        <course>174.300003</course>
3239        <speed>0.138889</speed>
3240        <geoidheight>-12.0</geoidheight>
3241        <fix>3d</fix>
3242        <sat>6</sat>
3243        <hdop>1.700000</hdop>
3244        <vdop>2.600000</vdop>
3245        <pdop>3.100000</pdop>
3246      </trkpt>
3247      <trkpt lat="-6.682155000" lon="-37.208098333">
3248        <ele>189.100000</ele>
3249        <time>2008-02-03T18:26:42Z</time>
3250        <course>174.300003</course>
3251        <speed>0.222222</speed>
3252        <geoidheight>-12.0</geoidheight>
3253        <fix>3d</fix>
3254        <sat>5</sat>
3255        <hdop>1.900000</hdop>
3256        <vdop>2.900000</vdop>
3257        <pdop>3.500000</pdop>
3258      </trkpt>
3259      <trkpt lat="-6.682175000" lon="-37.208080000">
3260        <ele>190.000000</ele>
3261        <time>2008-02-03T18:26:57Z</time>
3262        <course>171.600006</course>
3263        <speed>0.444444</speed>
3264        <geoidheight>-12.0</geoidheight>
3265        <fix>3d</fix>
3266        <sat>6</sat>
3267        <hdop>1.700000</hdop>
3268        <vdop>2.600000</vdop>
3269        <pdop>3.100000</pdop>
3270      </trkpt>
3271      <trkpt lat="-6.682246667" lon="-37.208065000">
3272        <ele>190.700000</ele>
3273        <time>2008-02-03T18:27:12Z</time>
3274        <course>169.899994</course>
3275        <speed>0.222222</speed>
3276        <geoidheight>-12.0</geoidheight>
3277        <fix>3d</fix>
3278        <sat>6</sat>
3279        <hdop>1.700000</hdop>
3280        <vdop>2.600000</vdop>
3281        <pdop>3.100000</pdop>
3282      </trkpt>
3283      <trkpt lat="-6.682183333" lon="-37.208045000">
3284        <ele>191.200000</ele>
3285        <time>2008-02-03T18:27:27Z</time>
3286        <course>157.800003</course>
3287        <speed>0.500000</speed>
3288        <geoidheight>-12.0</geoidheight>
3289        <fix>3d</fix>
3290        <sat>6</sat>
3291        <hdop>1.700000</hdop>
3292        <vdop>2.600000</vdop>
3293        <pdop>3.100000</pdop>
3294      </trkpt>
3295      <trkpt lat="-6.682158333" lon="-37.208058333">
3296        <ele>191.100000</ele>
3297        <time>2008-02-03T18:27:42Z</time>
3298        <course>122.500000</course>
3299        <speed>0.194444</speed>
3300        <geoidheight>-12.0</geoidheight>
3301        <fix>3d</fix>
3302        <sat>5</sat>
3303        <hdop>1.700000</hdop>
3304        <vdop>2.800000</vdop>
3305        <pdop>3.300000</pdop>
3306      </trkpt>
3307      <trkpt lat="-6.682088333" lon="-37.208050000">
3308        <ele>191.800000</ele>
3309        <time>2008-02-03T18:27:57Z</time>
3310        <course>41.900002</course>
3311        <speed>0.166667</speed>
3312        <geoidheight>-12.0</geoidheight>
3313        <fix>3d</fix>
3314        <sat>5</sat>
3315        <hdop>1.700000</hdop>
3316        <vdop>2.800000</vdop>
3317        <pdop>3.300000</pdop>
3318      </trkpt>
3319      <trkpt lat="-6.682056667" lon="-37.208055000">
3320        <ele>193.000000</ele>
3321        <time>2008-02-03T18:28:12Z</time>
3322        <course>12.600000</course>
3323        <speed>0.166667</speed>
3324        <geoidheight>-12.0</geoidheight>
3325        <fix>3d</fix>
3326        <sat>4</sat>
3327        <hdop>1.900000</hdop>
3328        <vdop>3.700000</vdop>
3329        <pdop>4.200000</pdop>
3330      </trkpt>
3331      <trkpt lat="-6.682106667" lon="-37.208051667">
3332        <ele>194.000000</ele>
3333        <time>2008-02-03T18:28:27Z</time>
3334        <course>99.199997</course>
3335        <speed>0.111111</speed>
3336        <geoidheight>-12.0</geoidheight>
3337        <fix>3d</fix>
3338        <sat>4</sat>
3339        <hdop>1.900000</hdop>
3340        <vdop>3.700000</vdop>
3341        <pdop>4.200000</pdop>
3342      </trkpt>
3343      <trkpt lat="-6.682070000" lon="-37.208068333">
3344        <ele>194.900000</ele>
3345        <time>2008-02-03T18:28:42Z</time>
3346        <course>99.199997</course>
3347        <speed>0.138889</speed>
3348        <geoidheight>-12.0</geoidheight>
3349        <fix>3d</fix>
3350        <sat>4</sat>
3351        <hdop>1.900000</hdop>
3352        <vdop>3.700000</vdop>
3353        <pdop>4.200000</pdop>
3354      </trkpt>
3355      <trkpt lat="-6.682068333" lon="-37.208060000">
3356        <ele>196.000000</ele>
3357        <time>2008-02-03T18:28:57Z</time>
3358        <course>146.199997</course>
3359        <speed>0.250000</speed>
3360        <geoidheight>-12.0</geoidheight>
3361        <fix>3d</fix>
3362        <sat>4</sat>
3363        <hdop>1.800000</hdop>
3364        <vdop>2.800000</vdop>
3365        <pdop>3.300000</pdop>
3366      </trkpt>
3367      <trkpt lat="-6.681998333" lon="-37.208041667">
3368        <ele>196.500000</ele>
3369        <time>2008-02-03T18:29:17Z</time>
3370        <course>42.599998</course>
3371        <speed>0.194444</speed>
3372        <geoidheight>-12.0</geoidheight>
3373        <fix>3d</fix>
3374        <sat>5</sat>
3375        <hdop>1.700000</hdop>
3376        <vdop>2.800000</vdop>
3377        <pdop>3.300000</pdop>
3378      </trkpt>
3379      <trkpt lat="-6.682066667" lon="-37.208041667">
3380        <ele>196.500000</ele>
3381        <time>2008-02-03T18:29:32Z</time>
3382        <course>42.599998</course>
3383        <speed>0.111111</speed>
3384        <geoidheight>-12.0</geoidheight>
3385        <fix>3d</fix>
3386        <sat>5</sat>
3387        <hdop>1.700000</hdop>
3388        <vdop>2.800000</vdop>
3389        <pdop>3.300000</pdop>
3390      </trkpt>
3391      <trkpt lat="-6.682123333" lon="-37.208028333">
3392        <ele>196.100000</ele>
3393        <time>2008-02-03T18:29:47Z</time>
3394        <course>89.199997</course>
3395        <speed>0.027778</speed>
3396        <geoidheight>-12.0</geoidheight>
3397        <fix>3d</fix>
3398        <sat>5</sat>
3399        <hdop>1.700000</hdop>
3400        <vdop>2.800000</vdop>
3401        <pdop>3.300000</pdop>
3402      </trkpt>
3403      <trkpt lat="-6.682098333" lon="-37.208003333">
3404        <ele>196.400000</ele>
3405        <time>2008-02-03T18:30:02Z</time>
3406        <course>21.700001</course>
3407        <speed>0.305556</speed>
3408        <geoidheight>-12.0</geoidheight>
3409        <fix>3d</fix>
3410        <sat>5</sat>
3411        <hdop>1.700000</hdop>
3412        <vdop>2.800000</vdop>
3413        <pdop>3.300000</pdop>
3414      </trkpt>
3415      <trkpt lat="-6.682201667" lon="-37.207996667">
3416        <ele>196.000000</ele>
3417        <time>2008-02-03T18:30:17Z</time>
3418        <course>133.399994</course>
3419        <speed>0.194444</speed>
3420        <geoidheight>-12.0</geoidheight>
3421        <fix>3d</fix>
3422        <sat>5</sat>
3423        <hdop>1.700000</hdop>
3424        <vdop>2.800000</vdop>
3425        <pdop>3.300000</pdop>
3426      </trkpt>
3427      <trkpt lat="-6.682205000" lon="-37.208028333">
3428        <ele>196.100000</ele>
3429        <time>2008-02-03T18:30:32Z</time>
3430        <course>178.399994</course>
3431        <speed>0.027778</speed>
3432        <geoidheight>-12.0</geoidheight>
3433        <fix>3d</fix>
3434        <sat>5</sat>
3435        <hdop>1.700000</hdop>
3436        <vdop>2.800000</vdop>
3437        <pdop>3.300000</pdop>
3438      </trkpt>
3439      <trkpt lat="-6.682211667" lon="-37.208056667">
3440        <ele>196.400000</ele>
3441        <time>2008-02-03T18:30:47Z</time>
3442        <course>178.399994</course>
3443        <speed>0.222222</speed>
3444        <geoidheight>-12.0</geoidheight>
3445        <fix>3d</fix>
3446        <sat>4</sat>
3447        <hdop>1.900000</hdop>
3448        <vdop>3.700000</vdop>
3449        <pdop>4.200000</pdop>
3450      </trkpt>
3451      <trkpt lat="-6.682206667" lon="-37.208031667">
3452        <ele>197.100000</ele>
3453        <time>2008-02-03T18:31:02Z</time>
3454        <course>99.800003</course>
3455        <speed>0.166667</speed>
3456        <geoidheight>-12.0</geoidheight>
3457        <fix>3d</fix>
3458        <sat>5</sat>
3459        <hdop>1.700000</hdop>
3460        <vdop>2.800000</vdop>
3461        <pdop>3.300000</pdop>
3462      </trkpt>
3463      <trkpt lat="-6.682410000" lon="-37.208105000">
3464        <ele>193.600000</ele>
3465        <time>2008-02-03T18:31:22Z</time>
3466        <course>184.300003</course>
3467        <speed>1.055556</speed>
3468        <geoidheight>-12.0</geoidheight>
3469        <fix>3d</fix>
3470        <sat>5</sat>
3471        <hdop>1.700000</hdop>
3472        <vdop>2.800000</vdop>
3473        <pdop>3.300000</pdop>
3474      </trkpt>
3475      <trkpt lat="-6.682378333" lon="-37.208093333">
3476        <ele>194.500000</ele>
3477        <time>2008-02-03T18:31:37Z</time>
3478        <course>167.300003</course>
3479        <speed>0.722222</speed>
3480        <geoidheight>-12.0</geoidheight>
3481        <fix>3d</fix>
3482        <sat>5</sat>
3483        <hdop>1.700000</hdop>
3484        <vdop>2.800000</vdop>
3485        <pdop>3.300000</pdop>
3486      </trkpt>
3487      <trkpt lat="-6.682586667" lon="-37.208083333">
3488        <ele>193.900000</ele>
3489        <time>2008-02-03T18:31:52Z</time>
3490        <course>177.800003</course>
3491        <speed>1.888889</speed>
3492        <geoidheight>-12.0</geoidheight>
3493        <fix>3d</fix>
3494        <sat>4</sat>
3495        <hdop>1.800000</hdop>
3496        <vdop>2.800000</vdop>
3497        <pdop>3.300000</pdop>
3498      </trkpt>
3499      <trkpt lat="-6.682706667" lon="-37.208046667">
3500        <ele>194.400000</ele>
3501        <time>2008-02-03T18:32:07Z</time>
3502        <course>182.000000</course>
3503        <speed>1.277778</speed>
3504        <geoidheight>-12.0</geoidheight>
3505        <fix>3d</fix>
3506        <sat>5</sat>
3507        <hdop>1.700000</hdop>
3508        <vdop>2.800000</vdop>
3509        <pdop>3.300000</pdop>
3510      </trkpt>
3511      <trkpt lat="-6.682720000" lon="-37.208018333">
3512        <ele>183.400000</ele>
3513        <time>2008-02-03T18:32:22Z</time>
3514        <course>167.600006</course>
3515        <speed>0.861111</speed>
3516        <geoidheight>-12.0</geoidheight>
3517        <fix>3d</fix>
3518        <sat>5</sat>
3519        <hdop>1.700000</hdop>
3520        <vdop>2.800000</vdop>
3521        <pdop>3.300000</pdop>
3522      </trkpt>
3523      <trkpt lat="-6.682723333" lon="-37.208010000">
3524        <ele>186.300000</ele>
3525        <time>2008-02-03T18:32:37Z</time>
3526        <course>173.800003</course>
3527        <speed>1.583333</speed>
3528        <geoidheight>-12.0</geoidheight>
3529        <fix>3d</fix>
3530        <sat>5</sat>
3531        <hdop>1.700000</hdop>
3532        <vdop>2.800000</vdop>
3533        <pdop>3.300000</pdop>
3534      </trkpt>
3535      <trkpt lat="-6.682740000" lon="-37.207976667">
3536        <ele>188.700000</ele>
3537        <time>2008-02-03T18:32:52Z</time>
3538        <course>173.800003</course>
3539        <speed>0.472222</speed>
3540        <geoidheight>-12.0</geoidheight>
3541        <fix>3d</fix>
3542        <sat>5</sat>
3543        <hdop>1.700000</hdop>
3544        <vdop>2.800000</vdop>
3545        <pdop>3.200000</pdop>
3546      </trkpt>
3547      <trkpt lat="-6.682745000" lon="-37.207965000">
3548        <ele>188.500000</ele>
3549        <time>2008-02-03T18:33:07Z</time>
3550        <course>173.800003</course>
3551        <speed>0.333333</speed>
3552        <geoidheight>-12.0</geoidheight>
3553        <fix>3d</fix>
3554        <sat>5</sat>
3555        <hdop>1.700000</hdop>
3556        <vdop>2.800000</vdop>
3557        <pdop>3.200000</pdop>
3558      </trkpt>
3559      <trkpt lat="-6.682720000" lon="-37.207968333">
3560        <ele>188.200000</ele>
3561        <time>2008-02-03T18:33:22Z</time>
3562        <course>124.000000</course>
3563        <speed>0.750000</speed>
3564        <geoidheight>-12.0</geoidheight>
3565        <fix>3d</fix>
3566        <sat>5</sat>
3567        <hdop>1.700000</hdop>
3568        <vdop>2.800000</vdop>
3569        <pdop>3.200000</pdop>
3570      </trkpt>
3571      <trkpt lat="-6.682845000" lon="-37.207995000">
3572        <ele>189.600000</ele>
3573        <time>2008-02-03T18:33:37Z</time>
3574        <course>174.399994</course>
3575        <speed>0.083333</speed>
3576        <geoidheight>-12.0</geoidheight>
3577        <fix>3d</fix>
3578        <sat>5</sat>
3579        <hdop>1.700000</hdop>
3580        <vdop>2.700000</vdop>
3581        <pdop>3.200000</pdop>
3582      </trkpt>
3583      <trkpt lat="-6.683660000" lon="-37.207623333">
3584        <ele>180.600000</ele>
3585        <time>2008-02-03T18:34:42Z</time>
3586        <course>308.000000</course>
3587        <speed>0.194444</speed>
3588        <geoidheight>-12.0</geoidheight>
3589        <fix>3d</fix>
3590        <sat>5</sat>
3591        <hdop>1.700000</hdop>
3592        <vdop>2.700000</vdop>
3593        <pdop>3.200000</pdop>
3594      </trkpt>
3595      <trkpt lat="-6.683750000" lon="-37.207578333">
3596        <ele>175.900000</ele>
3597        <time>2008-02-03T18:34:57Z</time>
3598        <course>308.000000</course>
3599        <speed>0.000000</speed>
3600        <geoidheight>-12.0</geoidheight>
3601        <fix>3d</fix>
3602        <sat>5</sat>
3603        <hdop>1.700000</hdop>
3604        <vdop>2.700000</vdop>
3605        <pdop>3.200000</pdop>
3606      </trkpt>
3607      <trkpt lat="-6.683710000" lon="-37.207611667">
3608        <ele>190.000000</ele>
3609        <time>2008-02-03T18:35:12Z</time>
3610        <course>308.000000</course>
3611        <speed>0.000000</speed>
3612        <geoidheight>-12.0</geoidheight>
3613        <fix>3d</fix>
3614        <sat>5</sat>
3615        <hdop>1.700000</hdop>
3616        <vdop>2.700000</vdop>
3617        <pdop>3.200000</pdop>
3618      </trkpt>
3619      <trkpt lat="-6.683701667" lon="-37.207640000">
3620        <ele>192.000000</ele>
3621        <time>2008-02-03T18:35:27Z</time>
3622        <course>308.000000</course>
3623        <speed>0.000000</speed>
3624        <geoidheight>-12.0</geoidheight>
3625        <fix>3d</fix>
3626        <sat>5</sat>
3627        <hdop>1.700000</hdop>
3628        <vdop>2.700000</vdop>
3629        <pdop>3.200000</pdop>
3630      </trkpt>
3631      <trkpt lat="-6.683691667" lon="-37.207648333">
3632        <ele>193.800000</ele>
3633        <time>2008-02-03T18:35:42Z</time>
3634        <course>308.000000</course>
3635        <speed>0.000000</speed>
3636        <geoidheight>-12.0</geoidheight>
3637        <fix>3d</fix>
3638        <sat>5</sat>
3639        <hdop>1.700000</hdop>
3640        <vdop>2.700000</vdop>
3641        <pdop>3.200000</pdop>
3642      </trkpt>
3643      <trkpt lat="-6.683690000" lon="-37.207658333">
3644        <ele>193.700000</ele>
3645        <time>2008-02-03T18:35:57Z</time>
3646        <course>308.000000</course>
3647        <speed>0.000000</speed>
3648        <geoidheight>-12.0</geoidheight>
3649        <fix>3d</fix>
3650        <sat>5</sat>
3651        <hdop>1.700000</hdop>
3652        <vdop>2.700000</vdop>
3653        <pdop>3.200000</pdop>
3654      </trkpt>
3655      <trkpt lat="-6.683690000" lon="-37.207658333">
3656        <ele>192.500000</ele>
3657        <time>2008-02-03T18:36:12Z</time>
3658        <course>308.000000</course>
3659        <speed>0.000000</speed>
3660        <geoidheight>-12.0</geoidheight>
3661        <fix>3d</fix>
3662        <sat>5</sat>
3663        <hdop>1.700000</hdop>
3664        <vdop>2.700000</vdop>
3665        <pdop>3.200000</pdop>
3666      </trkpt>
3667      <trkpt lat="-6.683688333" lon="-37.207668333">
3668        <ele>192.300000</ele>
3669        <time>2008-02-03T18:36:27Z</time>
3670        <course>308.000000</course>
3671        <speed>0.000000</speed>
3672        <geoidheight>-12.0</geoidheight>
3673        <fix>3d</fix>
3674        <sat>5</sat>
3675        <hdop>1.600000</hdop>
3676        <vdop>2.700000</vdop>
3677        <pdop>3.200000</pdop>
3678      </trkpt>
3679      <trkpt lat="-6.683691667" lon="-37.207671667">
3680        <ele>190.900000</ele>
3681        <time>2008-02-03T18:36:42Z</time>
3682        <course>308.000000</course>
3683        <speed>0.000000</speed>
3684        <geoidheight>-12.0</geoidheight>
3685        <fix>3d</fix>
3686        <sat>5</sat>
3687        <hdop>1.600000</hdop>
3688        <vdop>2.700000</vdop>
3689        <pdop>3.200000</pdop>
3690      </trkpt>
3691      <trkpt lat="-6.683686667" lon="-37.207673333">
3692        <ele>192.000000</ele>
3693        <time>2008-02-03T18:36:57Z</time>
3694        <course>308.000000</course>
3695        <speed>0.000000</speed>
3696        <geoidheight>-12.0</geoidheight>
3697        <fix>3d</fix>
3698        <sat>4</sat>
3699        <hdop>4.700000</hdop>
3700        <vdop>6.200000</vdop>
3701        <pdop>7.800000</pdop>
3702      </trkpt>
3703      <trkpt lat="-6.683681667" lon="-37.207676667">
3704        <ele>192.200000</ele>
3705        <time>2008-02-03T18:37:12Z</time>
3706        <course>308.000000</course>
3707        <speed>0.000000</speed>
3708        <geoidheight>-12.0</geoidheight>
3709        <fix>3d</fix>
3710        <sat>5</sat>
3711        <hdop>1.600000</hdop>
3712        <vdop>2.700000</vdop>
3713        <pdop>3.200000</pdop>
3714      </trkpt>
3715      <trkpt lat="-6.684163333" lon="-37.207706667">
3716        <ele>193.500000</ele>
3717        <time>2008-02-03T18:37:27Z</time>
3718        <course>174.699997</course>
3719        <speed>5.888889</speed>
3720        <geoidheight>-12.0</geoidheight>
3721        <fix>3d</fix>
3722        <sat>5</sat>
3723        <hdop>1.600000</hdop>
3724        <vdop>2.700000</vdop>
3725        <pdop>3.200000</pdop>
3726      </trkpt>
3727      <trkpt lat="-6.685108333" lon="-37.207551667">
3728        <ele>191.300000</ele>
3729        <time>2008-02-03T18:37:42Z</time>
3730        <course>170.199997</course>
3731        <speed>6.750000</speed>
3732        <geoidheight>-12.0</geoidheight>
3733        <fix>3d</fix>
3734        <sat>5</sat>
3735        <hdop>1.600000</hdop>
3736        <vdop>2.700000</vdop>
3737        <pdop>3.200000</pdop>
3738      </trkpt>
3739      <trkpt lat="-6.685936667" lon="-37.207475000">
3740        <ele>189.900000</ele>
3741        <time>2008-02-03T18:37:57Z</time>
3742        <course>185.500000</course>
3743        <speed>5.333333</speed>
3744        <geoidheight>-12.0</geoidheight>
3745        <fix>3d</fix>
3746        <sat>4</sat>
3747        <hdop>4.700000</hdop>
3748        <vdop>6.100000</vdop>
3749        <pdop>7.700000</pdop>
3750      </trkpt>
3751      <trkpt lat="-6.686986667" lon="-37.207643333">
3752        <ele>190.600000</ele>
3753        <time>2008-02-03T18:38:12Z</time>
3754        <course>194.100006</course>
3755        <speed>7.166667</speed>
3756        <geoidheight>-12.0</geoidheight>
3757        <fix>3d</fix>
3758        <sat>4</sat>
3759        <hdop>1.800000</hdop>
3760        <vdop>3.800000</vdop>
3761        <pdop>4.200000</pdop>
3762      </trkpt>
3763      <trkpt lat="-6.687475000" lon="-37.207446667">
3764        <ele>207.000000</ele>
3765        <time>2008-02-03T18:38:27Z</time>
3766        <course>139.300003</course>
3767        <speed>5.000000</speed>
3768        <geoidheight>-12.0</geoidheight>
3769        <fix>3d</fix>
3770        <sat>4</sat>
3771        <hdop>1.800000</hdop>
3772        <vdop>3.800000</vdop>
3773        <pdop>4.200000</pdop>
3774      </trkpt>
3775      <trkpt lat="-6.688123333" lon="-37.206978333">
3776        <ele>197.400000</ele>
3777        <time>2008-02-03T18:38:42Z</time>
3778        <course>161.899994</course>
3779        <speed>5.388889</speed>
3780        <geoidheight>-12.0</geoidheight>
3781        <fix>3d</fix>
3782        <sat>5</sat>
3783        <hdop>1.600000</hdop>
3784        <vdop>2.700000</vdop>
3785        <pdop>3.200000</pdop>
3786      </trkpt>
3787      <trkpt lat="-6.688846667" lon="-37.206480000">
3788        <ele>191.700000</ele>
3789        <time>2008-02-03T18:38:57Z</time>
3790        <course>134.000000</course>
3791        <speed>5.694445</speed>
3792        <geoidheight>-12.0</geoidheight>
3793        <fix>3d</fix>
3794        <sat>5</sat>
3795        <hdop>1.600000</hdop>
3796        <vdop>2.700000</vdop>
3797        <pdop>3.200000</pdop>
3798      </trkpt>
3799      <trkpt lat="-6.689353333" lon="-37.206051667">
3800        <ele>193.700000</ele>
3801        <time>2008-02-03T18:39:12Z</time>
3802        <course>143.300003</course>
3803        <speed>5.694445</speed>
3804        <geoidheight>-12.0</geoidheight>
3805        <fix>3d</fix>
3806        <sat>5</sat>
3807        <hdop>1.600000</hdop>
3808        <vdop>2.700000</vdop>
3809        <pdop>3.200000</pdop>
3810      </trkpt>
3811      <trkpt lat="-6.689833333" lon="-37.205681667">
3812        <ele>220.200000</ele>
3813        <time>2008-02-03T18:39:27Z</time>
3814        <course>139.800003</course>
3815        <speed>5.111111</speed>
3816        <geoidheight>-12.0</geoidheight>
3817        <fix>3d</fix>
3818        <sat>5</sat>
3819        <hdop>1.600000</hdop>
3820        <vdop>2.700000</vdop>
3821        <pdop>3.200000</pdop>
3822      </trkpt>
3823      <trkpt lat="-6.690770000" lon="-37.205430000">
3824        <ele>208.300000</ele>
3825        <time>2008-02-03T18:39:42Z</time>
3826        <course>161.100006</course>
3827        <speed>7.805555</speed>
3828        <geoidheight>-12.0</geoidheight>
3829        <fix>3d</fix>
3830        <sat>5</sat>
3831        <hdop>1.600000</hdop>
3832        <vdop>2.700000</vdop>
3833        <pdop>3.200000</pdop>
3834      </trkpt>
3835      <trkpt lat="-6.691516667" lon="-37.205141667">
3836        <ele>203.100000</ele>
3837        <time>2008-02-03T18:39:57Z</time>
3838        <course>147.500000</course>
3839        <speed>5.250000</speed>
3840        <geoidheight>-12.0</geoidheight>
3841        <fix>3d</fix>
3842        <sat>5</sat>
3843        <hdop>1.600000</hdop>
3844        <vdop>2.700000</vdop>
3845        <pdop>3.200000</pdop>
3846      </trkpt>
3847      <trkpt lat="-6.691861667" lon="-37.204565000">
3848        <ele>205.900000</ele>
3849        <time>2008-02-03T18:40:12Z</time>
3850        <course>118.900002</course>
3851        <speed>5.305555</speed>
3852        <geoidheight>-12.0</geoidheight>
3853        <fix>3d</fix>
3854        <sat>4</sat>
3855        <hdop>1.800000</hdop>
3856        <vdop>3.800000</vdop>
3857        <pdop>4.200000</pdop>
3858      </trkpt>
3859      <trkpt lat="-6.692556667" lon="-37.204028333">
3860        <ele>190.800000</ele>
3861        <time>2008-02-03T18:40:27Z</time>
3862        <course>150.300003</course>
3863        <speed>7.555555</speed>
3864        <geoidheight>-12.0</geoidheight>
3865        <fix>3d</fix>
3866        <sat>4</sat>
3867        <hdop>1.800000</hdop>
3868        <vdop>3.700000</vdop>
3869        <pdop>4.200000</pdop>
3870      </trkpt>
3871      <trkpt lat="-6.693841667" lon="-37.203718333">
3872        <ele>179.300000</ele>
3873        <time>2008-02-03T18:40:52Z</time>
3874        <course>158.300003</course>
3875        <speed>5.750000</speed>
3876        <geoidheight>-12.0</geoidheight>
3877        <fix>3d</fix>
3878        <sat>5</sat>
3879        <hdop>1.600000</hdop>
3880        <vdop>2.700000</vdop>
3881        <pdop>3.100000</pdop>
3882      </trkpt>
3883      <trkpt lat="-6.694581667" lon="-37.203226667">
3884        <ele>185.200000</ele>
3885        <time>2008-02-03T18:41:07Z</time>
3886        <course>146.899994</course>
3887        <speed>6.916667</speed>
3888        <geoidheight>-12.0</geoidheight>
3889        <fix>3d</fix>
3890        <sat>5</sat>
3891        <hdop>1.600000</hdop>
3892        <vdop>2.700000</vdop>
3893        <pdop>3.100000</pdop>
3894      </trkpt>
3895      <trkpt lat="-6.695396667" lon="-37.202795000">
3896        <ele>192.100000</ele>
3897        <time>2008-02-03T18:41:22Z</time>
3898        <course>156.199997</course>
3899        <speed>6.805555</speed>
3900        <geoidheight>-12.0</geoidheight>
3901        <fix>3d</fix>
3902        <sat>5</sat>
3903        <hdop>1.600000</hdop>
3904        <vdop>2.700000</vdop>
3905        <pdop>3.100000</pdop>
3906      </trkpt>
3907      <trkpt lat="-6.696256667" lon="-37.202490000">
3908        <ele>193.300000</ele>
3909        <time>2008-02-03T18:41:37Z</time>
3910        <course>161.199997</course>
3911        <speed>6.166667</speed>
3912        <geoidheight>-12.0</geoidheight>
3913        <fix>3d</fix>
3914        <sat>4</sat>
3915        <hdop>1.800000</hdop>
3916        <vdop>3.700000</vdop>
3917        <pdop>4.200000</pdop>
3918      </trkpt>
3919      <trkpt lat="-6.697043333" lon="-37.202300000">
3920        <ele>194.300000</ele>
3921        <time>2008-02-03T18:41:52Z</time>
3922        <course>186.600006</course>
3923        <speed>4.805555</speed>
3924        <geoidheight>-12.0</geoidheight>
3925        <fix>2d</fix>
3926        <sat>3</sat>
3927        <hdop>2.900000</hdop>
3928        <vdop>1.000000</vdop>
3929        <pdop>3.100000</pdop>
3930      </trkpt>
3931      <trkpt lat="-6.697685000" lon="-37.202365000">
3932        <ele>196.000000</ele>
3933        <time>2008-02-03T18:42:07Z</time>
3934        <course>180.199997</course>
3935        <speed>6.027778</speed>
3936        <geoidheight>-12.0</geoidheight>
3937        <fix>2d</fix>
3938        <sat>3</sat>
3939        <hdop>3.000000</hdop>
3940        <vdop>1.000000</vdop>
3941        <pdop>3.100000</pdop>
3942      </trkpt>
3943      <trkpt lat="-6.698795000" lon="-37.202435000">
3944        <ele>196.800000</ele>
3945        <time>2008-02-03T18:42:27Z</time>
3946        <course>183.800003</course>
3947        <speed>4.916667</speed>
3948        <geoidheight>-12.0</geoidheight>
3949        <fix>3d</fix>
3950        <sat>5</sat>
3951        <hdop>1.600000</hdop>
3952        <vdop>2.700000</vdop>
3953        <pdop>3.100000</pdop>
3954      </trkpt>
3955      <trkpt lat="-6.699563333" lon="-37.202403333">
3956        <ele>196.800000</ele>
3957        <time>2008-02-03T18:42:42Z</time>
3958        <course>169.500000</course>
3959        <speed>6.083333</speed>
3960        <geoidheight>-12.0</geoidheight>
3961        <fix>3d</fix>
3962        <sat>5</sat>
3963        <hdop>1.600000</hdop>
3964        <vdop>2.700000</vdop>
3965        <pdop>3.100000</pdop>
3966      </trkpt>
3967      <trkpt lat="-6.700295000" lon="-37.202165000">
3968        <ele>196.000000</ele>
3969        <time>2008-02-03T18:42:57Z</time>
3970        <course>152.800003</course>
3971        <speed>5.916667</speed>
3972        <geoidheight>-12.0</geoidheight>
3973        <fix>3d</fix>
3974        <sat>5</sat>
3975        <hdop>1.600000</hdop>
3976        <vdop>2.700000</vdop>
3977        <pdop>3.100000</pdop>
3978      </trkpt>
3979      <trkpt lat="-6.700981667" lon="-37.201823333">
3980        <ele>192.400000</ele>
3981        <time>2008-02-03T18:43:12Z</time>
3982        <course>156.500000</course>
3983        <speed>4.944445</speed>
3984        <geoidheight>-12.0</geoidheight>
3985        <fix>3d</fix>
3986        <sat>5</sat>
3987        <hdop>1.600000</hdop>
3988        <vdop>2.600000</vdop>
3989        <pdop>3.100000</pdop>
3990      </trkpt>
3991      <trkpt lat="-6.701523333" lon="-37.201508333">
3992        <ele>178.600000</ele>
3993        <time>2008-02-03T18:43:27Z</time>
3994        <course>146.199997</course>
3995        <speed>6.388889</speed>
3996        <geoidheight>-12.0</geoidheight>
3997        <fix>3d</fix>
3998        <sat>5</sat>
3999        <hdop>1.600000</hdop>
4000        <vdop>2.600000</vdop>
4001        <pdop>3.100000</pdop>
4002      </trkpt>
4003      <trkpt lat="-6.702173333" lon="-37.201140000">
4004        <ele>191.300000</ele>
4005        <time>2008-02-03T18:43:42Z</time>
4006        <course>140.300003</course>
4007        <speed>6.694445</speed>
4008        <geoidheight>-12.0</geoidheight>
4009        <fix>3d</fix>
4010        <sat>5</sat>
4011        <hdop>1.600000</hdop>
4012        <vdop>2.600000</vdop>
4013        <pdop>3.100000</pdop>
4014      </trkpt>
4015      <trkpt lat="-6.703266667" lon="-37.200486667">
4016        <ele>176.300000</ele>
4017        <time>2008-02-03T18:44:02Z</time>
4018        <course>145.699997</course>
4019        <speed>5.083333</speed>
4020        <geoidheight>-12.0</geoidheight>
4021        <fix>3d</fix>
4022        <sat>5</sat>
4023        <hdop>1.600000</hdop>
4024        <vdop>2.600000</vdop>
4025        <pdop>3.100000</pdop>
4026      </trkpt>
4027      <trkpt lat="-6.703755000" lon="-37.200103333">
4028        <ele>200.900000</ele>
4029        <time>2008-02-03T18:44:17Z</time>
4030        <course>138.800003</course>
4031        <speed>5.722222</speed>
4032        <geoidheight>-12.0</geoidheight>
4033        <fix>3d</fix>
4034        <sat>5</sat>
4035        <hdop>1.600000</hdop>
4036        <vdop>2.600000</vdop>
4037        <pdop>3.100000</pdop>
4038      </trkpt>
4039      <trkpt lat="-6.705950000" lon="-37.199351667">
4040        <ele>200.700000</ele>
4041        <time>2008-02-03T18:44:52Z</time>
4042        <course>178.899994</course>
4043        <speed>7.972222</speed>
4044        <geoidheight>-12.0</geoidheight>
4045        <fix>3d</fix>
4046        <sat>4</sat>
4047        <hdop>1.600000</hdop>
4048        <vdop>2.600000</vdop>
4049        <pdop>3.100000</pdop>
4050      </trkpt>
4051      <trkpt lat="-6.707106667" lon="-37.199250000">
4052        <ele>194.100000</ele>
4053        <time>2008-02-03T18:45:12Z</time>
4054        <course>181.300003</course>
4055        <speed>2.861111</speed>
4056        <geoidheight>-12.0</geoidheight>
4057        <fix>3d</fix>
4058        <sat>5</sat>
4059        <hdop>1.600000</hdop>
4060        <vdop>2.600000</vdop>
4061        <pdop>3.100000</pdop>
4062      </trkpt>
4063      <trkpt lat="-6.707921667" lon="-37.199193333">
4064        <ele>216.500000</ele>
4065        <time>2008-02-03T18:45:32Z</time>
4066        <course>182.199997</course>
4067        <speed>7.444445</speed>
4068        <geoidheight>-12.0</geoidheight>
4069        <fix>3d</fix>
4070        <sat>4</sat>
4071        <hdop>5.000000</hdop>
4072        <vdop>5.300000</vdop>
4073        <pdop>7.300000</pdop>
4074      </trkpt>
4075      <trkpt lat="-6.709258333" lon="-37.199156667">
4076        <ele>185.400000</ele>
4077        <time>2008-02-03T18:45:47Z</time>
4078        <course>168.000000</course>
4079        <speed>10.833333</speed>
4080        <geoidheight>-12.0</geoidheight>
4081        <fix>3d</fix>
4082        <sat>4</sat>
4083        <hdop>5.000000</hdop>
4084        <vdop>5.200000</vdop>
4085        <pdop>7.300000</pdop>
4086      </trkpt>
4087      <trkpt lat="-6.710845000" lon="-37.199408333">
4088        <ele>185.400000</ele>
4089        <time>2008-02-03T18:46:02Z</time>
4090        <course>203.000000</course>
4091        <speed>12.527778</speed>
4092        <geoidheight>-12.0</geoidheight>
4093        <fix>3d</fix>
4094        <sat>4</sat>
4095        <hdop>1.600000</hdop>
4096        <vdop>2.600000</vdop>
4097        <pdop>3.100000</pdop>
4098      </trkpt>
4099      <trkpt lat="-6.712858333" lon="-37.200078333">
4100        <ele>206.500000</ele>
4101        <time>2008-02-03T18:46:27Z</time>
4102        <course>208.699997</course>
4103        <speed>6.611111</speed>
4104        <geoidheight>-12.0</geoidheight>
4105        <fix>3d</fix>
4106        <sat>4</sat>
4107        <hdop>1.600000</hdop>
4108        <vdop>2.600000</vdop>
4109        <pdop>3.100000</pdop>
4110      </trkpt>
4111      <trkpt lat="-6.713456667" lon="-37.200478333">
4112        <ele>206.700000</ele>
4113        <time>2008-02-03T18:46:42Z</time>
4114        <course>199.300003</course>
4115        <speed>4.888889</speed>
4116        <geoidheight>-12.0</geoidheight>
4117        <fix>2d</fix>
4118        <sat>3</sat>
4119        <hdop>3.200000</hdop>
4120        <vdop>0.900000</vdop>
4121        <pdop>3.400000</pdop>
4122      </trkpt>
4123      <trkpt lat="-6.714141667" lon="-37.200768333">
4124        <ele>209.100000</ele>
4125        <time>2008-02-03T18:46:57Z</time>
4126        <course>198.399994</course>
4127        <speed>6.583333</speed>
4128        <geoidheight>-12.0</geoidheight>
4129        <fix>3d</fix>
4130        <sat>4</sat>
4131        <hdop>1.700000</hdop>
4132        <vdop>3.700000</vdop>
4133        <pdop>4.100000</pdop>
4134      </trkpt>
4135      <trkpt lat="-6.714830000" lon="-37.201308333">
4136        <ele>214.300000</ele>
4137        <time>2008-02-03T18:47:12Z</time>
4138        <course>238.199997</course>
4139        <speed>6.416667</speed>
4140        <geoidheight>-12.0</geoidheight>
4141        <fix>3d</fix>
4142        <sat>4</sat>
4143        <hdop>5.100000</hdop>
4144        <vdop>5.100000</vdop>
4145        <pdop>7.300000</pdop>
4146      </trkpt>
4147      <trkpt lat="-6.715331667" lon="-37.201781667">
4148        <ele>200.100000</ele>
4149        <time>2008-02-03T18:47:27Z</time>
4150        <course>197.300003</course>
4151        <speed>4.194445</speed>
4152        <geoidheight>-12.0</geoidheight>
4153        <fix>3d</fix>
4154        <sat>5</sat>
4155        <hdop>1.500000</hdop>
4156        <vdop>2.600000</vdop>
4157        <pdop>3.000000</pdop>
4158      </trkpt>
4159      <trkpt lat="-6.715956667" lon="-37.201928333">
4160        <ele>197.400000</ele>
4161        <time>2008-02-03T18:47:42Z</time>
4162        <course>190.500000</course>
4163        <speed>4.583333</speed>
4164        <geoidheight>-12.0</geoidheight>
4165        <fix>3d</fix>
4166        <sat>4</sat>
4167        <hdop>1.700000</hdop>
4168        <vdop>3.700000</vdop>
4169        <pdop>4.100000</pdop>
4170      </trkpt>
4171      <trkpt lat="-6.716516667" lon="-37.201991667">
4172        <ele>203.200000</ele>
4173        <time>2008-02-03T18:47:57Z</time>
4174        <course>189.199997</course>
4175        <speed>3.250000</speed>
4176        <geoidheight>-12.0</geoidheight>
4177        <fix>3d</fix>
4178        <sat>4</sat>
4179        <hdop>5.200000</hdop>
4180        <vdop>5.000000</vdop>
4181        <pdop>7.300000</pdop>
4182      </trkpt>
4183      <trkpt lat="-6.717765000" lon="-37.202120000">
4184        <ele>206.000000</ele>
4185        <time>2008-02-03T18:48:27Z</time>
4186        <course>189.600006</course>
4187        <speed>4.583333</speed>
4188        <geoidheight>-12.0</geoidheight>
4189        <fix>3d</fix>
4190        <sat>5</sat>
4191        <hdop>1.500000</hdop>
4192        <vdop>2.600000</vdop>
4193        <pdop>3.000000</pdop>
4194      </trkpt>
4195      <trkpt lat="-6.718120000" lon="-37.202171667">
4196        <ele>206.000000</ele>
4197        <time>2008-02-03T18:48:42Z</time>
4198        <course>122.300003</course>
4199        <speed>4.250000</speed>
4200        <geoidheight>-12.0</geoidheight>
4201        <fix>3d</fix>
4202        <sat>5</sat>
4203        <hdop>1.500000</hdop>
4204        <vdop>2.600000</vdop>
4205        <pdop>3.000000</pdop>
4206      </trkpt>
4207      <trkpt lat="-6.718226667" lon="-37.201540000">
4208        <ele>206.100000</ele>
4209        <time>2008-02-03T18:48:57Z</time>
4210        <course>104.199997</course>
4211        <speed>4.666667</speed>
4212        <geoidheight>-12.0</geoidheight>
4213        <fix>2d</fix>
4214        <sat>3</sat>
4215        <hdop>3.400000</hdop>
4216        <vdop>1.000000</vdop>
4217        <pdop>3.500000</pdop>
4218      </trkpt>
4219      <trkpt lat="-6.718451667" lon="-37.201205000">
4220        <ele>206.200000</ele>
4221        <time>2008-02-03T18:49:12Z</time>
4222        <course>189.100006</course>
4223        <speed>3.500000</speed>
4224        <geoidheight>-12.0</geoidheight>
4225        <fix>3d</fix>
4226        <sat>4</sat>
4227        <hdop>1.700000</hdop>
4228        <vdop>3.600000</vdop>
4229        <pdop>4.000000</pdop>
4230      </trkpt>
4231      <trkpt lat="-6.718875000" lon="-37.201166667">
4232        <ele>204.700000</ele>
4233        <time>2008-02-03T18:49:27Z</time>
4234        <course>176.000000</course>
4235        <speed>3.805556</speed>
4236        <geoidheight>-12.0</geoidheight>
4237        <fix>3d</fix>
4238        <sat>4</sat>
4239        <hdop>5.300000</hdop>
4240        <vdop>4.900000</vdop>
4241        <pdop>7.300000</pdop>
4242      </trkpt>
4243      <trkpt lat="-6.719445000" lon="-37.200713333">
4244        <ele>231.200000</ele>
4245        <time>2008-02-03T18:50:07Z</time>
4246        <course>109.199997</course>
4247        <speed>3.444444</speed>
4248        <geoidheight>-12.0</geoidheight>
4249        <fix>3d</fix>
4250        <sat>4</sat>
4251        <hdop>1.900000</hdop>
4252        <vdop>4.500000</vdop>
4253        <pdop>4.900000</pdop>
4254      </trkpt>
4255      <trkpt lat="-6.719646667" lon="-37.200288333">
4256        <ele>229.400000</ele>
4257        <time>2008-02-03T18:50:22Z</time>
4258        <course>113.199997</course>
4259        <speed>2.583333</speed>
4260        <geoidheight>-12.0</geoidheight>
4261        <fix>3d</fix>
4262        <sat>4</sat>
4263        <hdop>1.900000</hdop>
4264        <vdop>4.500000</vdop>
4265        <pdop>4.900000</pdop>
4266      </trkpt>
4267      <trkpt lat="-6.719786667" lon="-37.199938333">
4268        <ele>226.800000</ele>
4269        <time>2008-02-03T18:50:42Z</time>
4270        <course>111.500000</course>
4271        <speed>0.222222</speed>
4272        <geoidheight>-12.0</geoidheight>
4273        <fix>2d</fix>
4274        <sat>3</sat>
4275        <hdop>3.500000</hdop>
4276        <vdop>0.900000</vdop>
4277        <pdop>3.600000</pdop>
4278      </trkpt>
4279      <trkpt lat="-6.719773333" lon="-37.200063333">
4280        <ele>214.000000</ele>
4281        <time>2008-02-03T18:51:02Z</time>
4282        <course>111.500000</course>
4283        <speed>0.138889</speed>
4284        <geoidheight>-12.0</geoidheight>
4285        <fix>3d</fix>
4286        <sat>5</sat>
4287        <hdop>1.900000</hdop>
4288        <vdop>2.700000</vdop>
4289        <pdop>3.300000</pdop>
4290      </trkpt>
4291      <trkpt lat="-6.719780000" lon="-37.200040000">
4292        <ele>212.800000</ele>
4293        <time>2008-02-03T18:51:17Z</time>
4294        <course>124.900002</course>
4295        <speed>0.805556</speed>
4296        <geoidheight>-12.0</geoidheight>
4297        <fix>3d</fix>
4298        <sat>5</sat>
4299        <hdop>1.900000</hdop>
4300        <vdop>2.700000</vdop>
4301        <pdop>3.300000</pdop>
4302      </trkpt>
4303      <trkpt lat="-6.719776667" lon="-37.200078333">
4304        <ele>212.000000</ele>
4305        <time>2008-02-03T18:51:32Z</time>
4306        <course>147.699997</course>
4307        <speed>0.194444</speed>
4308        <geoidheight>-12.0</geoidheight>
4309        <fix>3d</fix>
4310        <sat>4</sat>
4311        <hdop>1.900000</hdop>
4312        <vdop>4.500000</vdop>
4313        <pdop>4.900000</pdop>
4314      </trkpt>
4315      <trkpt lat="-6.719775000" lon="-37.200043333">
4316        <ele>215.000000</ele>
4317        <time>2008-02-03T18:51:52Z</time>
4318        <course>125.800003</course>
4319        <speed>0.166667</speed>
4320        <geoidheight>-12.0</geoidheight>
4321        <fix>3d</fix>
4322        <sat>4</sat>
4323        <hdop>1.900000</hdop>
4324        <vdop>4.400000</vdop>
4325        <pdop>4.800000</pdop>
4326      </trkpt>
4327      <trkpt lat="-6.719721667" lon="-37.200108333">
4328        <ele>205.500000</ele>
4329        <time>2008-02-03T18:52:07Z</time>
4330        <course>289.899994</course>
4331        <speed>0.138889</speed>
4332        <geoidheight>-12.0</geoidheight>
4333        <fix>3d</fix>
4334        <sat>4</sat>
4335        <hdop>1.900000</hdop>
4336        <vdop>4.400000</vdop>
4337        <pdop>4.800000</pdop>
4338      </trkpt>
4339      <trkpt lat="-6.719746667" lon="-37.200071667">
4340        <ele>208.200000</ele>
4341        <time>2008-02-03T18:52:22Z</time>
4342        <course>289.899994</course>
4343        <speed>0.194444</speed>
4344        <geoidheight>-12.0</geoidheight>
4345        <fix>3d</fix>
4346        <sat>4</sat>
4347        <hdop>1.900000</hdop>
4348        <vdop>4.400000</vdop>
4349        <pdop>4.800000</pdop>
4350      </trkpt>
4351      <trkpt lat="-6.719750000" lon="-37.200066667">
4352        <ele>209.400000</ele>
4353        <time>2008-02-03T18:52:37Z</time>
4354        <course>289.899994</course>
4355        <speed>0.222222</speed>
4356        <geoidheight>-12.0</geoidheight>
4357        <fix>3d</fix>
4358        <sat>4</sat>
4359        <hdop>1.900000</hdop>
4360        <vdop>4.400000</vdop>
4361        <pdop>4.800000</pdop>
4362      </trkpt>
4363      <trkpt lat="-6.719778333" lon="-37.199998333">
4364        <ele>210.300000</ele>
4365        <time>2008-02-03T18:52:52Z</time>
4366        <course>294.299988</course>
4367        <speed>0.416667</speed>
4368        <geoidheight>-12.0</geoidheight>
4369        <fix>3d</fix>
4370        <sat>4</sat>
4371        <hdop>1.900000</hdop>
4372        <vdop>4.400000</vdop>
4373        <pdop>4.800000</pdop>
4374      </trkpt>
4375      <trkpt lat="-6.719808333" lon="-37.199943333">
4376        <ele>209.800000</ele>
4377        <time>2008-02-03T18:53:07Z</time>
4378        <course>53.900002</course>
4379        <speed>0.555556</speed>
4380        <geoidheight>-12.0</geoidheight>
4381        <fix>3d</fix>
4382        <sat>4</sat>
4383        <hdop>1.900000</hdop>
4384        <vdop>4.400000</vdop>
4385        <pdop>4.800000</pdop>
4386      </trkpt>
4387      <trkpt lat="-6.719813333" lon="-37.200050000">
4388        <ele>191.200000</ele>
4389        <time>2008-02-03T18:53:27Z</time>
4390        <course>53.900002</course>
4391        <speed>0.777778</speed>
4392        <geoidheight>-12.0</geoidheight>
4393        <fix>3d</fix>
4394        <sat>4</sat>
4395        <hdop>1.900000</hdop>
4396        <vdop>4.400000</vdop>
4397        <pdop>4.800000</pdop>
4398      </trkpt>
4399      <trkpt lat="-6.719841667" lon="-37.200030000">
4400        <ele>191.400000</ele>
4401        <time>2008-02-03T18:53:42Z</time>
4402        <course>139.500000</course>
4403        <speed>1.250000</speed>
4404        <geoidheight>-12.0</geoidheight>
4405        <fix>3d</fix>
4406        <sat>4</sat>
4407        <hdop>1.900000</hdop>
4408        <vdop>4.400000</vdop>
4409        <pdop>4.800000</pdop>
4410      </trkpt>
4411      <trkpt lat="-6.719851667" lon="-37.199973333">
4412        <ele>191.700000</ele>
4413        <time>2008-02-03T18:53:57Z</time>
4414        <course>106.000000</course>
4415        <speed>0.277778</speed>
4416        <geoidheight>-12.0</geoidheight>
4417        <fix>3d</fix>
4418        <sat>4</sat>
4419        <hdop>1.900000</hdop>
4420        <vdop>4.400000</vdop>
4421        <pdop>4.800000</pdop>
4422      </trkpt>
4423      <trkpt lat="-6.719828333" lon="-37.199945000">
4424        <ele>191.300000</ele>
4425        <time>2008-02-03T18:54:12Z</time>
4426        <course>106.000000</course>
4427        <speed>0.166667</speed>
4428        <geoidheight>-12.0</geoidheight>
4429        <fix>3d</fix>
4430        <sat>4</sat>
4431        <hdop>1.900000</hdop>
4432        <vdop>4.400000</vdop>
4433        <pdop>4.800000</pdop>
4434      </trkpt>
4435      <trkpt lat="-6.719810000" lon="-37.199968333">
4436        <ele>190.300000</ele>
4437        <time>2008-02-03T18:54:27Z</time>
4438        <course>98.199997</course>
4439        <speed>0.138889</speed>
4440        <geoidheight>-12.0</geoidheight>
4441        <fix>3d</fix>
4442        <sat>4</sat>
4443        <hdop>1.900000</hdop>
4444        <vdop>4.400000</vdop>
4445        <pdop>4.800000</pdop>
4446      </trkpt>
4447      <trkpt lat="-6.719825000" lon="-37.199940000">
4448        <ele>189.900000</ele>
4449        <time>2008-02-03T18:54:42Z</time>
4450        <course>111.800003</course>
4451        <speed>0.388889</speed>
4452        <geoidheight>-12.0</geoidheight>
4453        <fix>3d</fix>
4454        <sat>4</sat>
4455        <hdop>1.900000</hdop>
4456        <vdop>4.400000</vdop>
4457        <pdop>4.800000</pdop>
4458      </trkpt>
4459      <trkpt lat="-6.719810000" lon="-37.199956667">
4460        <ele>193.300000</ele>
4461        <time>2008-02-03T18:54:57Z</time>
4462        <course>111.800003</course>
4463        <speed>0.166667</speed>
4464        <geoidheight>-12.0</geoidheight>
4465        <fix>3d</fix>
4466        <sat>4</sat>
4467        <hdop>1.900000</hdop>
4468        <vdop>4.400000</vdop>
4469        <pdop>4.800000</pdop>
4470      </trkpt>
4471      <trkpt lat="-6.719948333" lon="-37.199475000">
4472        <ele>221.500000</ele>
4473        <time>2008-02-03T18:55:17Z</time>
4474        <course>104.300003</course>
4475        <speed>5.083333</speed>
4476        <geoidheight>-12.0</geoidheight>
4477        <fix>3d</fix>
4478        <sat>4</sat>
4479        <hdop>1.900000</hdop>
4480        <vdop>4.400000</vdop>
4481        <pdop>4.800000</pdop>
4482      </trkpt>
4483      <trkpt lat="-6.720141667" lon="-37.199113333">
4484        <ele>178.200000</ele>
4485        <time>2008-02-03T18:55:32Z</time>
4486        <course>103.199997</course>
4487        <speed>1.833333</speed>
4488        <geoidheight>-12.0</geoidheight>
4489        <fix>2d</fix>
4490        <sat>3</sat>
4491        <hdop>3.900000</hdop>
4492        <vdop>0.900000</vdop>
4493        <pdop>4.000000</pdop>
4494      </trkpt>
4495      <trkpt lat="-6.719538333" lon="-37.198933333">
4496        <ele>190.700000</ele>
4497        <time>2008-02-03T18:55:47Z</time>
4498        <course>10.600000</course>
4499        <speed>0.333333</speed>
4500        <geoidheight>-12.0</geoidheight>
4501        <fix>3d</fix>
4502        <sat>4</sat>
4503        <hdop>1.900000</hdop>
4504        <vdop>4.400000</vdop>
4505        <pdop>4.800000</pdop>
4506      </trkpt>
4507      <trkpt lat="-6.719611667" lon="-37.198783333">
4508        <ele>195.600000</ele>
4509        <time>2008-02-03T18:56:07Z</time>
4510        <course>82.500000</course>
4511        <speed>0.166667</speed>
4512        <geoidheight>-12.0</geoidheight>
4513        <fix>3d</fix>
4514        <sat>4</sat>
4515        <hdop>6.000000</hdop>
4516        <vdop>4.300000</vdop>
4517        <pdop>7.400000</pdop>
4518      </trkpt>
4519      <trkpt lat="-6.719613333" lon="-37.198770000">
4520        <ele>182.000000</ele>
4521        <time>2008-02-03T18:56:22Z</time>
4522        <course>82.500000</course>
4523        <speed>0.361111</speed>
4524        <geoidheight>-12.0</geoidheight>
4525        <fix>3d</fix>
4526        <sat>4</sat>
4527        <hdop>6.000000</hdop>
4528        <vdop>4.300000</vdop>
4529        <pdop>7.400000</pdop>
4530      </trkpt>
4531      <trkpt lat="-6.719563333" lon="-37.198746667">
4532        <ele>183.800000</ele>
4533        <time>2008-02-03T18:56:37Z</time>
4534        <course>82.500000</course>
4535        <speed>0.083333</speed>
4536        <geoidheight>-12.0</geoidheight>
4537        <fix>3d</fix>
4538        <sat>4</sat>
4539        <hdop>1.900000</hdop>
4540        <vdop>2.600000</vdop>
4541        <pdop>3.200000</pdop>
4542      </trkpt>
4543      <trkpt lat="-6.719573333" lon="-37.198711667">
4544        <ele>185.700000</ele>
4545        <time>2008-02-03T18:56:52Z</time>
4546        <course>82.500000</course>
4547        <speed>0.361111</speed>
4548        <geoidheight>-12.0</geoidheight>
4549        <fix>3d</fix>
4550        <sat>4</sat>
4551        <hdop>1.900000</hdop>
4552        <vdop>2.600000</vdop>
4553        <pdop>3.200000</pdop>
4554      </trkpt>
4555      <trkpt lat="-6.719580000" lon="-37.198720000">
4556        <ele>185.900000</ele>
4557        <time>2008-02-03T18:57:07Z</time>
4558        <course>82.500000</course>
4559        <speed>0.138889</speed>
4560        <geoidheight>-12.0</geoidheight>
4561        <fix>3d</fix>
4562        <sat>5</sat>
4563        <hdop>1.800000</hdop>
4564        <vdop>2.600000</vdop>
4565        <pdop>3.200000</pdop>
4566      </trkpt>
4567      <trkpt lat="-6.719581667" lon="-37.198728333">
4568        <ele>185.700000</ele>
4569        <time>2008-02-03T18:57:22Z</time>
4570        <course>82.500000</course>
4571        <speed>0.166667</speed>
4572        <geoidheight>-12.0</geoidheight>
4573        <fix>3d</fix>
4574        <sat>4</sat>
4575        <hdop>1.900000</hdop>
4576        <vdop>2.600000</vdop>
4577        <pdop>3.200000</pdop>
4578      </trkpt>
4579      <trkpt lat="-6.719590000" lon="-37.198725000">
4580        <ele>185.400000</ele>
4581        <time>2008-02-03T18:57:37Z</time>
4582        <course>82.500000</course>
4583        <speed>0.222222</speed>
4584        <geoidheight>-12.0</geoidheight>
4585        <fix>3d</fix>
4586        <sat>4</sat>
4587        <hdop>1.900000</hdop>
4588        <vdop>2.600000</vdop>
4589        <pdop>3.200000</pdop>
4590      </trkpt>
4591      <trkpt lat="-6.719626667" lon="-37.198651667">
4592        <ele>185.500000</ele>
4593        <time>2008-02-03T18:57:52Z</time>
4594        <course>108.099998</course>
4595        <speed>0.194444</speed>
4596        <geoidheight>-12.0</geoidheight>
4597        <fix>3d</fix>
4598        <sat>4</sat>
4599        <hdop>1.900000</hdop>
4600        <vdop>2.600000</vdop>
4601        <pdop>3.200000</pdop>
4602      </trkpt>
4603      <trkpt lat="-6.719733333" lon="-37.198463333">
4604        <ele>185.800000</ele>
4605        <time>2008-02-03T18:58:07Z</time>
4606        <course>123.300003</course>
4607        <speed>2.055556</speed>
4608        <geoidheight>-12.0</geoidheight>
4609        <fix>3d</fix>
4610        <sat>5</sat>
4611        <hdop>1.800000</hdop>
4612        <vdop>2.600000</vdop>
4613        <pdop>3.200000</pdop>
4614      </trkpt>
4615      <trkpt lat="-6.719311667" lon="-37.198250000">
4616        <ele>200.600000</ele>
4617        <time>2008-02-03T18:58:27Z</time>
4618        <course>43.599998</course>
4619        <speed>2.305556</speed>
4620        <geoidheight>-12.0</geoidheight>
4621        <fix>3d</fix>
4622        <sat>4</sat>
4623        <hdop>1.800000</hdop>
4624        <vdop>4.300000</vdop>
4625        <pdop>4.700000</pdop>
4626      </trkpt>
4627      <trkpt lat="-6.718846667" lon="-37.197965000">
4628        <ele>171.500000</ele>
4629        <time>2008-02-03T18:58:42Z</time>
4630        <course>351.899994</course>
4631        <speed>3.250000</speed>
4632        <geoidheight>-12.0</geoidheight>
4633        <fix>3d</fix>
4634        <sat>5</sat>
4635        <hdop>1.800000</hdop>
4636        <vdop>2.600000</vdop>
4637        <pdop>3.100000</pdop>
4638      </trkpt>
4639      <trkpt lat="-6.718546667" lon="-37.197876667">
4640        <ele>179.000000</ele>
4641        <time>2008-02-03T18:58:57Z</time>
4642        <course>73.000000</course>
4643        <speed>1.833333</speed>
4644        <geoidheight>-12.0</geoidheight>
4645        <fix>3d</fix>
4646        <sat>5</sat>
4647        <hdop>1.800000</hdop>
4648        <vdop>2.500000</vdop>
4649        <pdop>3.100000</pdop>
4650      </trkpt>
4651      <trkpt lat="-6.718818333" lon="-37.195723333">
4652        <ele>186.400000</ele>
4653        <time>2008-02-03T18:59:22Z</time>
4654        <course>96.300003</course>
4655        <speed>15.250000</speed>
4656        <geoidheight>-12.0</geoidheight>
4657        <fix>3d</fix>
4658        <sat>4</sat>
4659        <hdop>1.800000</hdop>
4660        <vdop>4.200000</vdop>
4661        <pdop>4.600000</pdop>
4662      </trkpt>
4663      <trkpt lat="-6.719186667" lon="-37.192106667">
4664        <ele>162.500000</ele>
4665        <time>2008-02-03T18:59:57Z</time>
4666        <course>90.300003</course>
4667        <speed>11.138889</speed>
4668        <geoidheight>-12.0</geoidheight>
4669        <fix>3d</fix>
4670        <sat>6</sat>
4671        <hdop>1.300000</hdop>
4672        <vdop>2.400000</vdop>
4673        <pdop>2.700000</pdop>
4674      </trkpt>
4675      <trkpt lat="-6.719223333" lon="-37.189601667">
4676        <ele>217.700000</ele>
4677        <time>2008-02-03T19:00:17Z</time>
4678        <course>96.000000</course>
4679        <speed>15.611111</speed>
4680        <geoidheight>-12.0</geoidheight>
4681        <fix>3d</fix>
4682        <sat>6</sat>
4683        <hdop>1.300000</hdop>
4684        <vdop>2.300000</vdop>
4685        <pdop>2.700000</pdop>
4686      </trkpt>
4687      <trkpt lat="-6.719451667" lon="-37.187501667">
4688        <ele>222.700000</ele>
4689        <time>2008-02-03T19:00:32Z</time>
4690        <course>96.500000</course>
4691        <speed>14.805555</speed>
4692        <geoidheight>-12.0</geoidheight>
4693        <fix>3d</fix>
4694        <sat>5</sat>
4695        <hdop>1.400000</hdop>
4696        <vdop>3.200000</vdop>
4697        <pdop>3.500000</pdop>
4698      </trkpt>
4699      <trkpt lat="-6.719666667" lon="-37.185373333">
4700        <ele>222.200000</ele>
4701        <time>2008-02-03T19:00:47Z</time>
4702        <course>95.300003</course>
4703        <speed>17.027779</speed>
4704        <geoidheight>-12.0</geoidheight>
4705        <fix>3d</fix>
4706        <sat>5</sat>
4707        <hdop>1.400000</hdop>
4708        <vdop>3.200000</vdop>
4709        <pdop>3.500000</pdop>
4710      </trkpt>
4711      <trkpt lat="-6.719688333" lon="-37.183910000">
4712        <ele>235.800000</ele>
4713        <time>2008-02-03T19:01:02Z</time>
4714        <course>99.599998</course>
4715        <speed>5.750000</speed>
4716        <geoidheight>-12.0</geoidheight>
4717        <fix>3d</fix>
4718        <sat>5</sat>
4719        <hdop>1.400000</hdop>
4720        <vdop>3.200000</vdop>
4721        <pdop>3.500000</pdop>
4722      </trkpt>
4723      <trkpt lat="-6.719938333" lon="-37.182928333">
4724        <ele>231.400000</ele>
4725        <time>2008-02-03T19:01:17Z</time>
4726        <course>109.099998</course>
4727        <speed>7.861111</speed>
4728        <geoidheight>-12.0</geoidheight>
4729        <fix>3d</fix>
4730        <sat>5</sat>
4731        <hdop>1.400000</hdop>
4732        <vdop>3.100000</vdop>
4733        <pdop>3.500000</pdop>
4734      </trkpt>
4735      <trkpt lat="-6.720553333" lon="-37.181913333">
4736        <ele>227.200000</ele>
4737        <time>2008-02-03T19:01:32Z</time>
4738        <course>125.400002</course>
4739        <speed>9.416667</speed>
4740        <geoidheight>-12.0</geoidheight>
4741        <fix>3d</fix>
4742        <sat>5</sat>
4743        <hdop>1.400000</hdop>
4744        <vdop>3.100000</vdop>
4745        <pdop>3.500000</pdop>
4746      </trkpt>
4747      <trkpt lat="-6.721361667" lon="-37.180945000">
4748        <ele>228.000000</ele>
4749        <time>2008-02-03T19:01:47Z</time>
4750        <course>128.100006</course>
4751        <speed>8.916667</speed>
4752        <geoidheight>-12.0</geoidheight>
4753        <fix>3d</fix>
4754        <sat>5</sat>
4755        <hdop>1.400000</hdop>
4756        <vdop>3.100000</vdop>
4757        <pdop>3.400000</pdop>
4758      </trkpt>
4759      <trkpt lat="-6.722170000" lon="-37.179798333">
4760        <ele>231.100000</ele>
4761        <time>2008-02-03T19:02:02Z</time>
4762        <course>124.599998</course>
4763        <speed>10.472222</speed>
4764        <geoidheight>-12.0</geoidheight>
4765        <fix>3d</fix>
4766        <sat>5</sat>
4767        <hdop>1.400000</hdop>
4768        <vdop>3.100000</vdop>
4769        <pdop>3.400000</pdop>
4770      </trkpt>
4771      <trkpt lat="-6.722840000" lon="-37.178813333">
4772        <ele>232.900000</ele>
4773        <time>2008-02-03T19:02:17Z</time>
4774        <course>125.599998</course>
4775        <speed>6.944445</speed>
4776        <geoidheight>-12.0</geoidheight>
4777        <fix>3d</fix>
4778        <sat>5</sat>
4779        <hdop>1.400000</hdop>
4780        <vdop>3.100000</vdop>
4781        <pdop>3.400000</pdop>
4782      </trkpt>
4783      <trkpt lat="-6.723291667" lon="-37.177775000">
4784        <ele>208.400000</ele>
4785        <time>2008-02-03T19:02:32Z</time>
4786        <course>107.300003</course>
4787        <speed>7.611111</speed>
4788        <geoidheight>-12.0</geoidheight>
4789        <fix>3d</fix>
4790        <sat>5</sat>
4791        <hdop>1.800000</hdop>
4792        <vdop>2.500000</vdop>
4793        <pdop>3.100000</pdop>
4794      </trkpt>
4795      <trkpt lat="-6.723603333" lon="-37.176796667">
4796        <ele>205.600000</ele>
4797        <time>2008-02-03T19:02:47Z</time>
4798        <course>109.400002</course>
4799        <speed>9.333333</speed>
4800        <geoidheight>-12.0</geoidheight>
4801        <fix>3d</fix>
4802        <sat>4</sat>
4803        <hdop>1.800000</hdop>
4804        <vdop>4.100000</vdop>
4805        <pdop>4.500000</pdop>
4806      </trkpt>
4807      <trkpt lat="-6.723921667" lon="-37.175758333">
4808        <ele>221.200000</ele>
4809        <time>2008-02-03T19:03:02Z</time>
4810        <course>108.199997</course>
4811        <speed>7.555555</speed>
4812        <geoidheight>-12.0</geoidheight>
4813        <fix>2d</fix>
4814        <sat>3</sat>
4815        <hdop>1.800000</hdop>
4816        <vdop>1.000000</vdop>
4817        <pdop>2.100000</pdop>
4818      </trkpt>
4819      <trkpt lat="-6.724301667" lon="-37.174701667">
4820        <ele>221.400000</ele>
4821        <time>2008-02-03T19:03:17Z</time>
4822        <course>108.199997</course>
4823        <speed>8.361111</speed>
4824        <geoidheight>-12.0</geoidheight>
4825        <fix>2d</fix>
4826        <sat>3</sat>
4827        <hdop>1.800000</hdop>
4828        <vdop>0.900000</vdop>
4829        <pdop>2.100000</pdop>
4830      </trkpt>
4831      <trkpt lat="-6.724621667" lon="-37.173596667">
4832        <ele>230.100000</ele>
4833        <time>2008-02-03T19:03:32Z</time>
4834        <course>110.099998</course>
4835        <speed>7.750000</speed>
4836        <geoidheight>-12.0</geoidheight>
4837        <fix>2d</fix>
4838        <sat>3</sat>
4839        <hdop>1.800000</hdop>
4840        <vdop>0.900000</vdop>
4841        <pdop>2.100000</pdop>
4842      </trkpt>
4843      <trkpt lat="-6.725073333" lon="-37.172335000">
4844        <ele>236.100000</ele>
4845        <time>2008-02-03T19:03:52Z</time>
4846        <course>96.300003</course>
4847        <speed>9.361111</speed>
4848        <geoidheight>-12.0</geoidheight>
4849        <fix>3d</fix>
4850        <sat>4</sat>
4851        <hdop>1.800000</hdop>
4852        <vdop>4.200000</vdop>
4853        <pdop>4.600000</pdop>
4854      </trkpt>
4855      <trkpt lat="-6.724890000" lon="-37.171148333">
4856        <ele>261.700000</ele>
4857        <time>2008-02-03T19:04:07Z</time>
4858        <course>84.000000</course>
4859        <speed>5.805555</speed>
4860        <geoidheight>-12.0</geoidheight>
4861        <fix>3d</fix>
4862        <sat>5</sat>
4863        <hdop>1.400000</hdop>
4864        <vdop>3.000000</vdop>
4865        <pdop>3.300000</pdop>
4866      </trkpt>
4867      <trkpt lat="-6.724880000" lon="-37.169985000">
4868        <ele>249.900000</ele>
4869        <time>2008-02-03T19:04:27Z</time>
4870        <course>102.500000</course>
4871        <speed>6.500000</speed>
4872        <geoidheight>-12.0</geoidheight>
4873        <fix>3d</fix>
4874        <sat>4</sat>
4875        <hdop>1.800000</hdop>
4876        <vdop>4.100000</vdop>
4877        <pdop>4.500000</pdop>
4878      </trkpt>
4879      <trkpt lat="-6.725401667" lon="-37.168935000">
4880        <ele>249.900000</ele>
4881        <time>2008-02-03T19:04:42Z</time>
4882        <course>114.199997</course>
4883        <speed>8.333333</speed>
4884        <geoidheight>-12.0</geoidheight>
4885        <fix>2d</fix>
4886        <sat>3</sat>
4887        <hdop>1.800000</hdop>
4888        <vdop>0.900000</vdop>
4889        <pdop>2.100000</pdop>
4890      </trkpt>
4891      <trkpt lat="-6.725763333" lon="-37.167601667">
4892        <ele>256.700000</ele>
4893        <time>2008-02-03T19:05:02Z</time>
4894        <course>110.099998</course>
4895        <speed>4.638889</speed>
4896        <geoidheight>-12.0</geoidheight>
4897        <fix>3d</fix>
4898        <sat>5</sat>
4899        <hdop>1.400000</hdop>
4900        <vdop>3.000000</vdop>
4901        <pdop>3.300000</pdop>
4902      </trkpt>
4903      <trkpt lat="-6.726010000" lon="-37.166993333">
4904        <ele>233.900000</ele>
4905        <time>2008-02-03T19:05:17Z</time>
4906        <course>62.599998</course>
4907        <speed>4.444445</speed>
4908        <geoidheight>-12.0</geoidheight>
4909        <fix>3d</fix>
4910        <sat>5</sat>
4911        <hdop>1.400000</hdop>
4912        <vdop>3.000000</vdop>
4913        <pdop>3.300000</pdop>
4914      </trkpt>
4915      <trkpt lat="-6.726303333" lon="-37.166120000">
4916        <ele>253.400000</ele>
4917        <time>2008-02-03T19:05:32Z</time>
4918        <course>106.099998</course>
4919        <speed>7.277778</speed>
4920        <geoidheight>-12.0</geoidheight>
4921        <fix>3d</fix>
4922        <sat>5</sat>
4923        <hdop>1.400000</hdop>
4924        <vdop>3.000000</vdop>
4925        <pdop>3.300000</pdop>
4926      </trkpt>
4927      <trkpt lat="-6.726533333" lon="-37.165216667">
4928        <ele>265.600000</ele>
4929        <time>2008-02-03T19:05:47Z</time>
4930        <course>109.599998</course>
4931        <speed>6.222222</speed>
4932        <geoidheight>-12.0</geoidheight>
4933        <fix>3d</fix>
4934        <sat>4</sat>
4935        <hdop>1.700000</hdop>
4936        <vdop>3.900000</vdop>
4937        <pdop>4.300000</pdop>
4938      </trkpt>
4939      <trkpt lat="-6.726898333" lon="-37.164065000">
4940        <ele>260.500000</ele>
4941        <time>2008-02-03T19:06:02Z</time>
4942        <course>113.300003</course>
4943        <speed>8.611111</speed>
4944        <geoidheight>-12.0</geoidheight>
4945        <fix>3d</fix>
4946        <sat>4</sat>
4947        <hdop>1.700000</hdop>
4948        <vdop>3.900000</vdop>
4949        <pdop>4.300000</pdop>
4950      </trkpt>
4951      <trkpt lat="-6.727458333" lon="-37.163203333">
4952        <ele>259.500000</ele>
4953        <time>2008-02-03T19:06:17Z</time>
4954        <course>124.599998</course>
4955        <speed>6.083333</speed>
4956        <geoidheight>-12.0</geoidheight>
4957        <fix>3d</fix>
4958        <sat>4</sat>
4959        <hdop>1.700000</hdop>
4960        <vdop>3.900000</vdop>
4961        <pdop>4.300000</pdop>
4962      </trkpt>
4963      <trkpt lat="-6.727596667" lon="-37.162498333">
4964        <ele>259.300000</ele>
4965        <time>2008-02-03T19:06:32Z</time>
4966        <course>78.099998</course>
4967        <speed>4.833333</speed>
4968        <geoidheight>-12.0</geoidheight>
4969        <fix>3d</fix>
4970        <sat>5</sat>
4971        <hdop>1.400000</hdop>
4972        <vdop>2.900000</vdop>
4973        <pdop>3.200000</pdop>
4974      </trkpt>
4975      <trkpt lat="-6.727948333" lon="-37.161963333">
4976        <ele>257.500000</ele>
4977        <time>2008-02-03T19:06:47Z</time>
4978        <course>140.600006</course>
4979        <speed>4.055555</speed>
4980        <geoidheight>-12.0</geoidheight>
4981        <fix>3d</fix>
4982        <sat>5</sat>
4983        <hdop>1.400000</hdop>
4984        <vdop>2.900000</vdop>
4985        <pdop>3.200000</pdop>
4986      </trkpt>
4987      <trkpt lat="-6.728661667" lon="-37.161231667">
4988        <ele>253.000000</ele>
4989        <time>2008-02-03T19:07:02Z</time>
4990        <course>133.699997</course>
4991        <speed>7.055555</speed>
4992        <geoidheight>-12.0</geoidheight>
4993        <fix>3d</fix>
4994        <sat>4</sat>
4995        <hdop>1.700000</hdop>
4996        <vdop>3.900000</vdop>
4997        <pdop>4.200000</pdop>
4998      </trkpt>
4999      <trkpt lat="-6.729221667" lon="-37.160431667">
5000        <ele>252.400000</ele>
5001        <time>2008-02-03T19:07:17Z</time>
5002        <course>131.800003</course>
5003        <speed>7.666667</speed>
5004        <geoidheight>-12.0</geoidheight>
5005        <fix>3d</fix>
5006        <sat>5</sat>
5007        <hdop>1.300000</hdop>
5008        <vdop>2.900000</vdop>
5009        <pdop>3.200000</pdop>
5010      </trkpt>
5011      <trkpt lat="-6.729506667" lon="-37.159478333">
5012        <ele>250.700000</ele>
5013        <time>2008-02-03T19:07:32Z</time>
5014        <course>98.199997</course>
5015        <speed>4.472222</speed>
5016        <geoidheight>-12.0</geoidheight>
5017        <fix>3d</fix>
5018        <sat>5</sat>
5019        <hdop>1.300000</hdop>
5020        <vdop>2.900000</vdop>
5021        <pdop>3.200000</pdop>
5022      </trkpt>
5023      <trkpt lat="-6.729628333" lon="-37.158578333">
5024        <ele>248.300000</ele>
5025        <time>2008-02-03T19:07:47Z</time>
5026        <course>97.199997</course>
5027        <speed>6.583333</speed>
5028        <geoidheight>-12.0</geoidheight>
5029        <fix>3d</fix>
5030        <sat>4</sat>
5031        <hdop>1.700000</hdop>
5032        <vdop>3.800000</vdop>
5033        <pdop>4.200000</pdop>
5034      </trkpt>
5035      <trkpt lat="-6.729760000" lon="-37.157383333">
5036        <ele>244.600000</ele>
5037        <time>2008-02-03T19:08:02Z</time>
5038        <course>94.500000</course>
5039        <speed>9.666667</speed>
5040        <geoidheight>-12.0</geoidheight>
5041        <fix>3d</fix>
5042        <sat>5</sat>
5043        <hdop>1.300000</hdop>
5044        <vdop>2.900000</vdop>
5045        <pdop>3.200000</pdop>
5046      </trkpt>
5047      <trkpt lat="-6.729603333" lon="-37.156095000">
5048        <ele>241.900000</ele>
5049        <time>2008-02-03T19:08:17Z</time>
5050        <course>75.500000</course>
5051        <speed>8.916667</speed>
5052        <geoidheight>-12.0</geoidheight>
5053        <fix>3d</fix>
5054        <sat>4</sat>
5055        <hdop>1.700000</hdop>
5056        <vdop>3.700000</vdop>
5057        <pdop>4.100000</pdop>
5058      </trkpt>
5059      <trkpt lat="-6.729151667" lon="-37.154395000">
5060        <ele>207.900000</ele>
5061        <time>2008-02-03T19:08:42Z</time>
5062        <course>75.400002</course>
5063        <speed>7.333333</speed>
5064        <geoidheight>-12.0</geoidheight>
5065        <fix>3d</fix>
5066        <sat>4</sat>
5067        <hdop>1.700000</hdop>
5068        <vdop>3.700000</vdop>
5069        <pdop>4.000000</pdop>
5070      </trkpt>
5071      <trkpt lat="-6.728860000" lon="-37.153366667">
5072        <ele>223.700000</ele>
5073        <time>2008-02-03T19:08:57Z</time>
5074        <course>75.199997</course>
5075        <speed>7.138889</speed>
5076        <geoidheight>-12.0</geoidheight>
5077        <fix>3d</fix>
5078        <sat>5</sat>
5079        <hdop>1.300000</hdop>
5080        <vdop>2.800000</vdop>
5081        <pdop>3.100000</pdop>
5082      </trkpt>
5083      <trkpt lat="-6.728720000" lon="-37.152671667">
5084        <ele>218.300000</ele>
5085        <time>2008-02-03T19:09:12Z</time>
5086        <course>77.300003</course>
5087        <speed>4.305555</speed>
5088        <geoidheight>-12.0</geoidheight>
5089        <fix>3d</fix>
5090        <sat>5</sat>
5091        <hdop>1.300000</hdop>
5092        <vdop>2.800000</vdop>
5093        <pdop>3.100000</pdop>
5094      </trkpt>
5095      <trkpt lat="-6.728453333" lon="-37.151946667">
5096        <ele>235.600000</ele>
5097        <time>2008-02-03T19:09:27Z</time>
5098        <course>93.699997</course>
5099        <speed>6.388889</speed>
5100        <geoidheight>-12.0</geoidheight>
5101        <fix>3d</fix>
5102        <sat>5</sat>
5103        <hdop>1.300000</hdop>
5104        <vdop>2.800000</vdop>
5105        <pdop>3.100000</pdop>
5106      </trkpt>
5107      <trkpt lat="-6.728415000" lon="-37.151093333">
5108        <ele>242.000000</ele>
5109        <time>2008-02-03T19:09:42Z</time>
5110        <course>104.199997</course>
5111        <speed>5.583333</speed>
5112        <geoidheight>-12.0</geoidheight>
5113        <fix>3d</fix>
5114        <sat>5</sat>
5115        <hdop>1.300000</hdop>
5116        <vdop>2.800000</vdop>
5117        <pdop>3.100000</pdop>
5118      </trkpt>
5119      <trkpt lat="-6.729163333" lon="-37.150486667">
5120        <ele>237.100000</ele>
5121        <time>2008-02-03T19:09:57Z</time>
5122        <course>162.800003</course>
5123        <speed>6.666667</speed>
5124        <geoidheight>-12.0</geoidheight>
5125        <fix>3d</fix>
5126        <sat>4</sat>
5127        <hdop>1.600000</hdop>
5128        <vdop>3.500000</vdop>
5129        <pdop>3.900000</pdop>
5130      </trkpt>
5131      <trkpt lat="-6.729581667" lon="-37.150375000">
5132        <ele>236.500000</ele>
5133        <time>2008-02-03T19:10:12Z</time>
5134        <course>165.000000</course>
5135        <speed>3.888889</speed>
5136        <geoidheight>-12.0</geoidheight>
5137        <fix>3d</fix>
5138        <sat>5</sat>
5139        <hdop>1.300000</hdop>
5140        <vdop>2.800000</vdop>
5141        <pdop>3.100000</pdop>
5142      </trkpt>
5143      <trkpt lat="-6.730086667" lon="-37.149801667">
5144        <ele>233.000000</ele>
5145        <time>2008-02-03T19:10:27Z</time>
5146        <course>116.099998</course>
5147        <speed>5.888889</speed>
5148        <geoidheight>-11.9</geoidheight>
5149        <fix>3d</fix>
5150        <sat>5</sat>
5151        <hdop>1.300000</hdop>
5152        <vdop>2.800000</vdop>
5153        <pdop>3.100000</pdop>
5154      </trkpt>
5155      <trkpt lat="-6.730368333" lon="-37.148903333">
5156        <ele>232.400000</ele>
5157        <time>2008-02-03T19:10:42Z</time>
5158        <course>107.699997</course>
5159        <speed>7.861111</speed>
5160        <geoidheight>-11.9</geoidheight>
5161        <fix>3d</fix>
5162        <sat>5</sat>
5163        <hdop>1.300000</hdop>
5164        <vdop>2.800000</vdop>
5165        <pdop>3.100000</pdop>
5166      </trkpt>
5167      <trkpt lat="-6.730636667" lon="-37.148023333">
5168        <ele>231.800000</ele>
5169        <time>2008-02-03T19:10:57Z</time>
5170        <course>110.800003</course>
5171        <speed>6.416667</speed>
5172        <geoidheight>-11.9</geoidheight>
5173        <fix>3d</fix>
5174        <sat>5</sat>
5175        <hdop>1.300000</hdop>
5176        <vdop>2.700000</vdop>
5177        <pdop>3.100000</pdop>
5178      </trkpt>
5179      <trkpt lat="-6.730810000" lon="-37.147206667">
5180        <ele>232.500000</ele>
5181        <time>2008-02-03T19:11:12Z</time>
5182        <course>105.000000</course>
5183        <speed>5.305555</speed>
5184        <geoidheight>-11.9</geoidheight>
5185        <fix>3d</fix>
5186        <sat>5</sat>
5187        <hdop>1.300000</hdop>
5188        <vdop>2.700000</vdop>
5189        <pdop>3.000000</pdop>
5190      </trkpt>
5191      <trkpt lat="-6.730921667" lon="-37.146380000">
5192        <ele>235.100000</ele>
5193        <time>2008-02-03T19:11:27Z</time>
5194        <course>96.500000</course>
5195        <speed>8.416667</speed>
5196        <geoidheight>-11.9</geoidheight>
5197        <fix>3d</fix>
5198        <sat>5</sat>
5199        <hdop>1.300000</hdop>
5200        <vdop>2.700000</vdop>
5201        <pdop>3.000000</pdop>
5202      </trkpt>
5203      <trkpt lat="-6.731230000" lon="-37.145301667">
5204        <ele>236.800000</ele>
5205        <time>2008-02-03T19:11:42Z</time>
5206        <course>119.800003</course>
5207        <speed>8.250000</speed>
5208        <geoidheight>-11.9</geoidheight>
5209        <fix>3d</fix>
5210        <sat>5</sat>
5211        <hdop>1.300000</hdop>
5212        <vdop>2.700000</vdop>
5213        <pdop>3.000000</pdop>
5214      </trkpt>
5215      <trkpt lat="-6.732006667" lon="-37.144300000">
5216        <ele>237.000000</ele>
5217        <time>2008-02-03T19:11:57Z</time>
5218        <course>119.699997</course>
5219        <speed>10.166667</speed>
5220        <geoidheight>-11.9</geoidheight>
5221        <fix>3d</fix>
5222        <sat>5</sat>
5223        <hdop>1.300000</hdop>
5224        <vdop>2.700000</vdop>
5225        <pdop>3.000000</pdop>
5226      </trkpt>
5227      <trkpt lat="-6.732523333" lon="-37.143135000">
5228        <ele>237.400000</ele>
5229        <time>2008-02-03T19:12:12Z</time>
5230        <course>109.699997</course>
5231        <speed>7.555555</speed>
5232        <geoidheight>-11.9</geoidheight>
5233        <fix>3d</fix>
5234        <sat>4</sat>
5235        <hdop>1.700000</hdop>
5236        <vdop>3.600000</vdop>
5237        <pdop>4.000000</pdop>
5238      </trkpt>
5239      <trkpt lat="-6.732908333" lon="-37.142056667">
5240        <ele>236.700000</ele>
5241        <time>2008-02-03T19:12:27Z</time>
5242        <course>112.599998</course>
5243        <speed>7.583333</speed>
5244        <geoidheight>-11.9</geoidheight>
5245        <fix>3d</fix>
5246        <sat>4</sat>
5247        <hdop>1.700000</hdop>
5248        <vdop>3.600000</vdop>
5249        <pdop>3.900000</pdop>
5250      </trkpt>
5251      <trkpt lat="-6.733285000" lon="-37.141346667">
5252        <ele>237.500000</ele>
5253        <time>2008-02-03T19:12:42Z</time>
5254        <course>114.400002</course>
5255        <speed>7.222222</speed>
5256        <geoidheight>-11.9</geoidheight>
5257        <fix>3d</fix>
5258        <sat>5</sat>
5259        <hdop>1.300000</hdop>
5260        <vdop>2.700000</vdop>
5261        <pdop>3.000000</pdop>
5262      </trkpt>
5263      <trkpt lat="-6.733600000" lon="-37.140558333">
5264        <ele>238.400000</ele>
5265        <time>2008-02-03T19:12:57Z</time>
5266        <course>114.199997</course>
5267        <speed>5.416667</speed>
5268        <geoidheight>-11.9</geoidheight>
5269        <fix>3d</fix>
5270        <sat>5</sat>
5271        <hdop>1.300000</hdop>
5272        <vdop>2.700000</vdop>
5273        <pdop>3.000000</pdop>
5274      </trkpt>
5275      <trkpt lat="-6.734071667" lon="-37.139696667">
5276        <ele>238.400000</ele>
5277        <time>2008-02-03T19:13:12Z</time>
5278        <course>120.400002</course>
5279        <speed>7.138889</speed>
5280        <geoidheight>-11.9</geoidheight>
5281        <fix>3d</fix>
5282        <sat>5</sat>
5283        <hdop>1.300000</hdop>
5284        <vdop>2.700000</vdop>
5285        <pdop>3.000000</pdop>
5286      </trkpt>
5287      <trkpt lat="-6.734730000" lon="-37.138978333">
5288        <ele>238.600000</ele>
5289        <time>2008-02-03T19:13:27Z</time>
5290        <course>133.899994</course>
5291        <speed>6.416667</speed>
5292        <geoidheight>-11.9</geoidheight>
5293        <fix>3d</fix>
5294        <sat>5</sat>
5295        <hdop>1.300000</hdop>
5296        <vdop>2.600000</vdop>
5297        <pdop>3.000000</pdop>
5298      </trkpt>
5299      <trkpt lat="-6.735288333" lon="-37.138431667">
5300        <ele>238.700000</ele>
5301        <time>2008-02-03T19:13:42Z</time>
5302        <course>131.199997</course>
5303        <speed>4.277778</speed>
5304        <geoidheight>-11.9</geoidheight>
5305        <fix>3d</fix>
5306        <sat>5</sat>
5307        <hdop>1.300000</hdop>
5308        <vdop>2.600000</vdop>
5309        <pdop>3.000000</pdop>
5310      </trkpt>
5311      <trkpt lat="-6.735766667" lon="-37.137841667">
5312        <ele>238.400000</ele>
5313        <time>2008-02-03T19:13:57Z</time>
5314        <course>118.599998</course>
5315        <speed>6.916667</speed>
5316        <geoidheight>-11.9</geoidheight>
5317        <fix>3d</fix>
5318        <sat>5</sat>
5319        <hdop>1.300000</hdop>
5320        <vdop>2.600000</vdop>
5321        <pdop>2.900000</pdop>
5322      </trkpt>
5323      <trkpt lat="-6.736046667" lon="-37.137208333">
5324        <ele>239.000000</ele>
5325        <time>2008-02-03T19:14:12Z</time>
5326        <course>114.400002</course>
5327        <speed>3.583333</speed>
5328        <geoidheight>-11.9</geoidheight>
5329        <fix>3d</fix>
5330        <sat>4</sat>
5331        <hdop>1.600000</hdop>
5332        <vdop>3.500000</vdop>
5333        <pdop>3.800000</pdop>
5334      </trkpt>
5335      <trkpt lat="-6.736218333" lon="-37.136725000">
5336        <ele>239.400000</ele>
5337        <time>2008-02-03T19:14:27Z</time>
5338        <course>107.699997</course>
5339        <speed>5.333333</speed>
5340        <geoidheight>-11.9</geoidheight>
5341        <fix>3d</fix>
5342        <sat>5</sat>
5343        <hdop>1.300000</hdop>
5344        <vdop>2.600000</vdop>
5345        <pdop>2.900000</pdop>
5346      </trkpt>
5347      <trkpt lat="-6.736766667" lon="-37.135981667">
5348        <ele>239.900000</ele>
5349        <time>2008-02-03T19:14:42Z</time>
5350        <course>135.300003</course>
5351        <speed>6.694445</speed>
5352        <geoidheight>-11.9</geoidheight>
5353        <fix>3d</fix>
5354        <sat>5</sat>
5355        <hdop>1.300000</hdop>
5356        <vdop>2.600000</vdop>
5357        <pdop>2.900000</pdop>
5358      </trkpt>
5359      <trkpt lat="-6.737300000" lon="-37.135383333">
5360        <ele>240.400000</ele>
5361        <time>2008-02-03T19:14:57Z</time>
5362        <course>137.199997</course>
5363        <speed>5.083333</speed>
5364        <geoidheight>-11.9</geoidheight>
5365        <fix>3d</fix>
5366        <sat>5</sat>
5367        <hdop>1.300000</hdop>
5368        <vdop>2.600000</vdop>
5369        <pdop>2.900000</pdop>
5370      </trkpt>
5371      <trkpt lat="-6.737623333" lon="-37.135050000">
5372        <ele>240.100000</ele>
5373        <time>2008-02-03T19:15:12Z</time>
5374        <course>145.800003</course>
5375        <speed>4.222222</speed>
5376        <geoidheight>-11.9</geoidheight>
5377        <fix>3d</fix>
5378        <sat>5</sat>
5379        <hdop>1.300000</hdop>
5380        <vdop>2.600000</vdop>
5381        <pdop>2.900000</pdop>
5382      </trkpt>
5383      <trkpt lat="-6.738143333" lon="-37.134630000">
5384        <ele>239.000000</ele>
5385        <time>2008-02-03T19:15:27Z</time>
5386        <course>134.899994</course>
5387        <speed>6.166667</speed>
5388        <geoidheight>-11.9</geoidheight>
5389        <fix>3d</fix>
5390        <sat>5</sat>
5391        <hdop>1.300000</hdop>
5392        <vdop>2.600000</vdop>
5393        <pdop>2.900000</pdop>
5394      </trkpt>
5395      <trkpt lat="-6.738763333" lon="-37.133983333">
5396        <ele>237.900000</ele>
5397        <time>2008-02-03T19:15:42Z</time>
5398        <course>139.199997</course>
5399        <speed>6.805555</speed>
5400        <geoidheight>-11.9</geoidheight>
5401        <fix>3d</fix>
5402        <sat>4</sat>
5403        <hdop>1.600000</hdop>
5404        <vdop>3.400000</vdop>
5405        <pdop>3.800000</pdop>
5406      </trkpt>
5407      <trkpt lat="-6.739368333" lon="-37.133321667">
5408        <ele>237.600000</ele>
5409        <time>2008-02-03T19:15:57Z</time>
5410        <course>137.000000</course>
5411        <speed>3.750000</speed>
5412        <geoidheight>-11.9</geoidheight>
5413        <fix>3d</fix>
5414        <sat>4</sat>
5415        <hdop>1.600000</hdop>
5416        <vdop>3.400000</vdop>
5417        <pdop>3.800000</pdop>
5418      </trkpt>
5419      <trkpt lat="-6.739890000" lon="-37.133001667">
5420        <ele>237.900000</ele>
5421        <time>2008-02-03T19:16:12Z</time>
5422        <course>121.199997</course>
5423        <speed>7.527778</speed>
5424        <geoidheight>-11.9</geoidheight>
5425        <fix>3d</fix>
5426        <sat>5</sat>
5427        <hdop>1.300000</hdop>
5428        <vdop>2.600000</vdop>
5429        <pdop>2.900000</pdop>
5430      </trkpt>
5431      <trkpt lat="-6.740858333" lon="-37.132516667">
5432        <ele>237.800000</ele>
5433        <time>2008-02-03T19:16:27Z</time>
5434        <course>161.500000</course>
5435        <speed>7.694445</speed>
5436        <geoidheight>-11.9</geoidheight>
5437        <fix>3d</fix>
5438        <sat>5</sat>
5439        <hdop>1.300000</hdop>
5440        <vdop>2.500000</vdop>
5441        <pdop>2.900000</pdop>
5442      </trkpt>
5443      <trkpt lat="-6.741568333" lon="-37.132533333">
5444        <ele>237.800000</ele>
5445        <time>2008-02-03T19:16:42Z</time>
5446        <course>217.100006</course>
5447        <speed>5.083333</speed>
5448        <geoidheight>-11.9</geoidheight>
5449        <fix>3d</fix>
5450        <sat>4</sat>
5451        <hdop>1.500000</hdop>
5452        <vdop>3.100000</vdop>
5453        <pdop>3.400000</pdop>
5454      </trkpt>
5455      <trkpt lat="-6.741963333" lon="-37.133106667">
5456        <ele>238.000000</ele>
5457        <time>2008-02-03T19:16:57Z</time>
5458        <course>245.899994</course>
5459        <speed>2.972222</speed>
5460        <geoidheight>-11.9</geoidheight>
5461        <fix>3d</fix>
5462        <sat>5</sat>
5463        <hdop>1.300000</hdop>
5464        <vdop>2.500000</vdop>
5465        <pdop>2.800000</pdop>
5466      </trkpt>
5467      <trkpt lat="-6.742050000" lon="-37.133200000">
5468        <ele>238.200000</ele>
5469        <time>2008-02-03T19:17:12Z</time>
5470        <course>240.600006</course>
5471        <speed>0.277778</speed>
5472        <geoidheight>-11.9</geoidheight>
5473        <fix>3d</fix>
5474        <sat>5</sat>
5475        <hdop>1.300000</hdop>
5476        <vdop>2.500000</vdop>
5477        <pdop>2.800000</pdop>
5478      </trkpt>
5479      <trkpt lat="-6.742061667" lon="-37.133233333">
5480        <ele>241.200000</ele>
5481        <time>2008-02-03T19:17:27Z</time>
5482        <course>240.600006</course>
5483        <speed>0.416667</speed>
5484        <geoidheight>-11.9</geoidheight>
5485        <fix>3d</fix>
5486        <sat>5</sat>
5487        <hdop>1.300000</hdop>
5488        <vdop>2.500000</vdop>
5489        <pdop>2.800000</pdop>
5490      </trkpt>
5491      <trkpt lat="-6.742130000" lon="-37.133296667">
5492        <ele>242.300000</ele>
5493        <time>2008-02-03T19:17:42Z</time>
5494        <course>235.199997</course>
5495        <speed>0.055556</speed>
5496        <geoidheight>-11.9</geoidheight>
5497        <fix>3d</fix>
5498        <sat>4</sat>
5499        <hdop>1.600000</hdop>
5500        <vdop>3.300000</vdop>
5501        <pdop>3.700000</pdop>
5502      </trkpt>
5503      <trkpt lat="-6.742318333" lon="-37.133560000">
5504        <ele>239.800000</ele>
5505        <time>2008-02-03T19:17:57Z</time>
5506        <course>238.800003</course>
5507        <speed>5.694445</speed>
5508        <geoidheight>-11.9</geoidheight>
5509        <fix>3d</fix>
5510        <sat>4</sat>
5511        <hdop>1.500000</hdop>
5512        <vdop>3.000000</vdop>
5513        <pdop>3.400000</pdop>
5514      </trkpt>
5515      <trkpt lat="-6.742761667" lon="-37.134405000">
5516        <ele>234.300000</ele>
5517        <time>2008-02-03T19:18:12Z</time>
5518        <course>252.800003</course>
5519        <speed>7.888889</speed>
5520        <geoidheight>-11.9</geoidheight>
5521        <fix>3d</fix>
5522        <sat>4</sat>
5523        <hdop>1.600000</hdop>
5524        <vdop>3.200000</vdop>
5525        <pdop>3.600000</pdop>
5526      </trkpt>
5527      <trkpt lat="-6.743153333" lon="-37.135210000">
5528        <ele>245.600000</ele>
5529        <time>2008-02-03T19:18:27Z</time>
5530        <course>215.800003</course>
5531        <speed>3.333333</speed>
5532        <geoidheight>-11.9</geoidheight>
5533        <fix>3d</fix>
5534        <sat>5</sat>
5535        <hdop>1.200000</hdop>
5536        <vdop>2.500000</vdop>
5537        <pdop>2.800000</pdop>
5538      </trkpt>
5539      <trkpt lat="-6.743653333" lon="-37.134918333">
5540        <ele>222.200000</ele>
5541        <time>2008-02-03T19:18:42Z</time>
5542        <course>141.500000</course>
5543        <speed>5.361111</speed>
5544        <geoidheight>-11.9</geoidheight>
5545        <fix>3d</fix>
5546        <sat>5</sat>
5547        <hdop>1.200000</hdop>
5548        <vdop>2.500000</vdop>
5549        <pdop>2.800000</pdop>
5550      </trkpt>
5551      <trkpt lat="-6.744223333" lon="-37.134298333">
5552        <ele>225.000000</ele>
5553        <time>2008-02-03T19:18:57Z</time>
5554        <course>118.099998</course>
5555        <speed>7.583333</speed>
5556        <geoidheight>-11.9</geoidheight>
5557        <fix>3d</fix>
5558        <sat>4</sat>
5559        <hdop>1.600000</hdop>
5560        <vdop>3.200000</vdop>
5561        <pdop>3.600000</pdop>
5562      </trkpt>
5563      <trkpt lat="-6.745046667" lon="-37.133555000">
5564        <ele>224.000000</ele>
5565        <time>2008-02-03T19:19:12Z</time>
5566        <course>142.800003</course>
5567        <speed>6.083333</speed>
5568        <geoidheight>-11.9</geoidheight>
5569        <fix>3d</fix>
5570        <sat>4</sat>
5571        <hdop>1.600000</hdop>
5572        <vdop>3.200000</vdop>
5573        <pdop>3.600000</pdop>
5574      </trkpt>
5575      <trkpt lat="-6.745833333" lon="-37.132983333">
5576        <ele>226.000000</ele>
5577        <time>2008-02-03T19:19:27Z</time>
5578        <course>143.600006</course>
5579        <speed>7.222222</speed>
5580        <geoidheight>-11.9</geoidheight>
5581        <fix>3d</fix>
5582        <sat>5</sat>
5583        <hdop>1.200000</hdop>
5584        <vdop>2.400000</vdop>
5585        <pdop>2.800000</pdop>
5586      </trkpt>
5587      <trkpt lat="-6.746680000" lon="-37.132416667">
5588        <ele>227.500000</ele>
5589        <time>2008-02-03T19:19:42Z</time>
5590        <course>145.199997</course>
5591        <speed>7.222222</speed>
5592        <geoidheight>-11.9</geoidheight>
5593        <fix>3d</fix>
5594        <sat>5</sat>
5595        <hdop>1.200000</hdop>
5596        <vdop>2.400000</vdop>
5597        <pdop>2.800000</pdop>
5598      </trkpt>
5599      <trkpt lat="-6.747143333" lon="-37.131755000">
5600        <ele>229.200000</ele>
5601        <time>2008-02-03T19:19:57Z</time>
5602        <course>115.300003</course>
5603        <speed>6.166667</speed>
5604        <geoidheight>-11.9</geoidheight>
5605        <fix>3d</fix>
5606        <sat>5</sat>
5607        <hdop>1.200000</hdop>
5608        <vdop>2.400000</vdop>
5609        <pdop>2.700000</pdop>
5610      </trkpt>
5611      <trkpt lat="-6.748026667" lon="-37.131143333">
5612        <ele>228.600000</ele>
5613        <time>2008-02-03T19:20:12Z</time>
5614        <course>155.100006</course>
5615        <speed>8.333333</speed>
5616        <geoidheight>-11.9</geoidheight>
5617        <fix>3d</fix>
5618        <sat>4</sat>
5619        <hdop>1.600000</hdop>
5620        <vdop>3.100000</vdop>
5621        <pdop>3.500000</pdop>
5622      </trkpt>
5623      <trkpt lat="-6.748773333" lon="-37.130658333">
5624        <ele>227.100000</ele>
5625        <time>2008-02-03T19:20:27Z</time>
5626        <course>144.300003</course>
5627        <speed>6.027778</speed>
5628        <geoidheight>-11.9</geoidheight>
5629        <fix>3d</fix>
5630        <sat>5</sat>
5631        <hdop>1.200000</hdop>
5632        <vdop>2.400000</vdop>
5633        <pdop>2.700000</pdop>
5634      </trkpt>
5635      <trkpt lat="-6.749846667" lon="-37.130225000">
5636        <ele>227.400000</ele>
5637        <time>2008-02-03T19:20:42Z</time>
5638        <course>163.800003</course>
5639        <speed>10.444445</speed>
5640        <geoidheight>-11.9</geoidheight>
5641        <fix>3d</fix>
5642        <sat>5</sat>
5643        <hdop>1.200000</hdop>
5644        <vdop>2.400000</vdop>
5645        <pdop>2.700000</pdop>
5646      </trkpt>
5647      <trkpt lat="-6.750903333" lon="-37.129890000">
5648        <ele>229.100000</ele>
5649        <time>2008-02-03T19:20:57Z</time>
5650        <course>150.300003</course>
5651        <speed>6.944445</speed>
5652        <geoidheight>-11.9</geoidheight>
5653        <fix>3d</fix>
5654        <sat>5</sat>
5655        <hdop>1.200000</hdop>
5656        <vdop>2.400000</vdop>
5657        <pdop>2.700000</pdop>
5658      </trkpt>
5659      <trkpt lat="-6.751238333" lon="-37.129713333">
5660        <ele>228.900000</ele>
5661        <time>2008-02-03T19:21:12Z</time>
5662        <course>151.399994</course>
5663        <speed>0.055556</speed>
5664        <geoidheight>-11.9</geoidheight>
5665        <fix>3d</fix>
5666        <sat>5</sat>
5667        <hdop>1.200000</hdop>
5668        <vdop>2.400000</vdop>
5669        <pdop>2.700000</pdop>
5670      </trkpt>
5671      <trkpt lat="-6.751255000" lon="-37.129730000">
5672        <ele>229.300000</ele>
5673        <time>2008-02-03T19:21:27Z</time>
5674        <course>151.399994</course>
5675        <speed>0.194444</speed>
5676        <geoidheight>-11.9</geoidheight>
5677        <fix>3d</fix>
5678        <sat>5</sat>
5679        <hdop>1.200000</hdop>
5680        <vdop>2.400000</vdop>
5681        <pdop>2.700000</pdop>
5682      </trkpt>
5683      <trkpt lat="-6.751293333" lon="-37.129688333">
5684        <ele>230.000000</ele>
5685        <time>2008-02-03T19:21:42Z</time>
5686        <course>131.100006</course>
5687        <speed>0.166667</speed>
5688        <geoidheight>-11.9</geoidheight>
5689        <fix>3d</fix>
5690        <sat>4</sat>
5691        <hdop>1.500000</hdop>
5692        <vdop>2.800000</vdop>
5693        <pdop>3.200000</pdop>
5694      </trkpt>
5695      <trkpt lat="-6.751350000" lon="-37.129655000">
5696        <ele>230.900000</ele>
5697        <time>2008-02-03T19:21:57Z</time>
5698        <course>147.500000</course>
5699        <speed>1.361111</speed>
5700        <geoidheight>-11.9</geoidheight>
5701        <fix>2d</fix>
5702        <sat>3</sat>
5703        <hdop>1.700000</hdop>
5704        <vdop>0.900000</vdop>
5705        <pdop>1.900000</pdop>
5706      </trkpt>
5707      <trkpt lat="-6.751796667" lon="-37.129225000">
5708        <ele>233.000000</ele>
5709        <time>2008-02-03T19:22:12Z</time>
5710        <course>131.399994</course>
5711        <speed>6.527778</speed>
5712        <geoidheight>-11.9</geoidheight>
5713        <fix>3d</fix>
5714        <sat>5</sat>
5715        <hdop>1.200000</hdop>
5716        <vdop>2.400000</vdop>
5717        <pdop>2.700000</pdop>
5718      </trkpt>
5719      <trkpt lat="-6.752486667" lon="-37.128550000">
5720        <ele>232.600000</ele>
5721        <time>2008-02-03T19:22:27Z</time>
5722        <course>164.800003</course>
5723        <speed>7.416667</speed>
5724        <geoidheight>-11.9</geoidheight>
5725        <fix>3d</fix>
5726        <sat>5</sat>
5727        <hdop>1.200000</hdop>
5728        <vdop>2.400000</vdop>
5729        <pdop>2.700000</pdop>
5730      </trkpt>
5731      <trkpt lat="-6.753371667" lon="-37.128263333">
5732        <ele>232.600000</ele>
5733        <time>2008-02-03T19:22:42Z</time>
5734        <course>159.100006</course>
5735        <speed>5.416667</speed>
5736        <geoidheight>-11.9</geoidheight>
5737        <fix>3d</fix>
5738        <sat>4</sat>
5739        <hdop>1.600000</hdop>
5740        <vdop>3.000000</vdop>
5741        <pdop>3.400000</pdop>
5742      </trkpt>
5743      <trkpt lat="-6.754103333" lon="-37.128028333">
5744        <ele>232.900000</ele>
5745        <time>2008-02-03T19:22:57Z</time>
5746        <course>163.000000</course>
5747        <speed>5.666667</speed>
5748        <geoidheight>-11.9</geoidheight>
5749        <fix>3d</fix>
5750        <sat>5</sat>
5751        <hdop>1.200000</hdop>
5752        <vdop>2.300000</vdop>
5753        <pdop>2.700000</pdop>
5754      </trkpt>
5755      <trkpt lat="-6.754863333" lon="-37.127821667">
5756        <ele>233.700000</ele>
5757        <time>2008-02-03T19:23:12Z</time>
5758        <course>159.199997</course>
5759        <speed>6.166667</speed>
5760        <geoidheight>-11.9</geoidheight>
5761        <fix>3d</fix>
5762        <sat>5</sat>
5763        <hdop>1.200000</hdop>
5764        <vdop>2.300000</vdop>
5765        <pdop>2.700000</pdop>
5766      </trkpt>
5767      <trkpt lat="-6.755988333" lon="-37.127550000">
5768        <ele>234.000000</ele>
5769        <time>2008-02-03T19:23:27Z</time>
5770        <course>162.100006</course>
5771        <speed>9.694445</speed>
5772        <geoidheight>-11.9</geoidheight>
5773        <fix>3d</fix>
5774        <sat>5</sat>
5775        <hdop>1.200000</hdop>
5776        <vdop>2.300000</vdop>
5777        <pdop>2.700000</pdop>
5778      </trkpt>
5779      <trkpt lat="-6.757150000" lon="-37.127253333">
5780        <ele>235.800000</ele>
5781        <time>2008-02-03T19:23:42Z</time>
5782        <course>173.399994</course>
5783        <speed>8.083333</speed>
5784        <geoidheight>-11.9</geoidheight>
5785        <fix>3d</fix>
5786        <sat>5</sat>
5787        <hdop>1.200000</hdop>
5788        <vdop>2.300000</vdop>
5789        <pdop>2.600000</pdop>
5790      </trkpt>
5791      <trkpt lat="-6.758021667" lon="-37.127181667">
5792        <ele>237.600000</ele>
5793        <time>2008-02-03T19:23:57Z</time>
5794        <course>167.100006</course>
5795        <speed>6.250000</speed>
5796        <geoidheight>-11.9</geoidheight>
5797        <fix>3d</fix>
5798        <sat>4</sat>
5799        <hdop>1.400000</hdop>
5800        <vdop>2.700000</vdop>
5801        <pdop>3.100000</pdop>
5802      </trkpt>
5803      <trkpt lat="-6.758941667" lon="-37.126996667">
5804        <ele>239.900000</ele>
5805        <time>2008-02-03T19:24:12Z</time>
5806        <course>154.399994</course>
5807        <speed>8.194445</speed>
5808        <geoidheight>-11.9</geoidheight>
5809        <fix>3d</fix>
5810        <sat>5</sat>
5811        <hdop>1.200000</hdop>
5812        <vdop>2.300000</vdop>
5813        <pdop>2.600000</pdop>
5814      </trkpt>
5815      <trkpt lat="-6.759661667" lon="-37.126748333">
5816        <ele>240.800000</ele>
5817        <time>2008-02-03T19:24:27Z</time>
5818        <course>170.600006</course>
5819        <speed>7.250000</speed>
5820        <geoidheight>-11.9</geoidheight>
5821        <fix>3d</fix>
5822        <sat>5</sat>
5823        <hdop>1.200000</hdop>
5824        <vdop>2.300000</vdop>
5825        <pdop>2.600000</pdop>
5826      </trkpt>
5827      <trkpt lat="-6.760191667" lon="-37.126078333">
5828        <ele>241.800000</ele>
5829        <time>2008-02-03T19:24:42Z</time>
5830        <course>107.000000</course>
5831        <speed>4.527778</speed>
5832        <geoidheight>-11.9</geoidheight>
5833        <fix>3d</fix>
5834        <sat>5</sat>
5835        <hdop>1.200000</hdop>
5836        <vdop>2.300000</vdop>
5837        <pdop>2.600000</pdop>
5838      </trkpt>
5839      <trkpt lat="-6.760321667" lon="-37.125885000">
5840        <ele>246.100000</ele>
5841        <time>2008-02-03T19:24:57Z</time>
5842        <course>128.500000</course>
5843        <speed>0.138889</speed>
5844        <geoidheight>-11.9</geoidheight>
5845        <fix>3d</fix>
5846        <sat>5</sat>
5847        <hdop>1.200000</hdop>
5848        <vdop>2.300000</vdop>
5849        <pdop>2.600000</pdop>
5850      </trkpt>
5851    </trkseg>
5852  </trk>
5853</gpx>
Note: See TracBrowser for help on using the repository browser.